<?xml version="1.0" encoding="UTF-8" standalone="no" ?>
<gpx xmlns="http://www.topografix.com/GPX/1/1" xmlns:xsi="http://www.w3.org/2001/XMLSchema-instance" xsi:schemaLocation="http://www.topografix.com/GPX/1/1 http://www.topografix.com/GPX/1/1/gpx.xsd" version="1.1" creator="VisuGPX - https://www.visugpx.com">
  <metadata>
    <name>20180529-cretes</name>
    <desc><![CDATA[La route des crêtes du grand canyon du Verdon à partir de La Palud. Un circuit superbe parfait pour les vélos avec les arrêts aux nombreux belvédères ]]></desc>
  </metadata>
  <trk>
    <name><![CDATA[20180529-110033-190625-x-MNT-F]]></name>
    <trkseg>
      <trkpt lat="43.7809" lon="6.34319">
        <ele>918</ele>
        <time>2018-05-29T09:00:34Z</time>
      </trkpt>
      <trkpt lat="43.78089" lon="6.34331">
        <ele>918</ele>
        <time>2018-05-29T09:00:39Z</time>
      </trkpt>
      <trkpt lat="43.78088" lon="6.34334">
        <ele>917</ele>
        <time>2018-05-29T09:00:40Z</time>
      </trkpt>
      <trkpt lat="43.78087" lon="6.34352">
        <ele>916</ele>
        <time>2018-05-29T09:00:46Z</time>
      </trkpt>
      <trkpt lat="43.78091" lon="6.34361">
        <ele>916</ele>
        <time>2018-05-29T09:00:48Z</time>
      </trkpt>
      <trkpt lat="43.78138" lon="6.34426">
        <ele>910</ele>
        <time>2018-05-29T09:00:58Z</time>
      </trkpt>
      <trkpt lat="43.78194" lon="6.34509">
        <ele>908</ele>
        <time>2018-05-29T09:01:08Z</time>
      </trkpt>
      <trkpt lat="43.78197" lon="6.34519">
        <ele>908</ele>
        <time>2018-05-29T09:01:09Z</time>
      </trkpt>
      <trkpt lat="43.78198" lon="6.34529">
        <ele>908</ele>
        <time>2018-05-29T09:01:10Z</time>
      </trkpt>
      <trkpt lat="43.78199" lon="6.34537">
        <ele>908</ele>
        <time>2018-05-29T09:01:11Z</time>
      </trkpt>
      <trkpt lat="43.78199" lon="6.34546">
        <ele>908</ele>
        <time>2018-05-29T09:01:12Z</time>
      </trkpt>
      <trkpt lat="43.78199" lon="6.34556">
        <ele>908</ele>
        <time>2018-05-29T09:01:13Z</time>
      </trkpt>
      <trkpt lat="43.78189" lon="6.3461">
        <ele>907</ele>
        <time>2018-05-29T09:01:20Z</time>
      </trkpt>
      <trkpt lat="43.78183" lon="6.34624">
        <ele>907</ele>
        <time>2018-05-29T09:01:22Z</time>
      </trkpt>
      <trkpt lat="43.78126" lon="6.34729">
        <ele>907</ele>
        <time>2018-05-29T09:01:37Z</time>
      </trkpt>
      <trkpt lat="43.7807" lon="6.34855">
        <ele>903</ele>
        <time>2018-05-29T09:01:52Z</time>
      </trkpt>
      <trkpt lat="43.7804" lon="6.34938">
        <ele>898</ele>
        <time>2018-05-29T09:02:00Z</time>
      </trkpt>
      <trkpt lat="43.78038" lon="6.34949">
        <ele>898</ele>
        <time>2018-05-29T09:02:01Z</time>
      </trkpt>
      <trkpt lat="43.78036" lon="6.34961">
        <ele>898</ele>
        <time>2018-05-29T09:02:02Z</time>
      </trkpt>
      <trkpt lat="43.78028" lon="6.3516">
        <ele>894</ele>
        <time>2018-05-29T09:02:19Z</time>
      </trkpt>
      <trkpt lat="43.7802" lon="6.35323">
        <ele>890</ele>
        <time>2018-05-29T09:02:35Z</time>
      </trkpt>
      <trkpt lat="43.77998" lon="6.35471">
        <ele>885</ele>
        <time>2018-05-29T09:02:48Z</time>
      </trkpt>
      <trkpt lat="43.77961" lon="6.35706">
        <ele>882</ele>
        <time>2018-05-29T09:03:08Z</time>
      </trkpt>
      <trkpt lat="43.77954" lon="6.35842">
        <ele>887</ele>
        <time>2018-05-29T09:03:21Z</time>
      </trkpt>
      <trkpt lat="43.77942" lon="6.35999">
        <ele>886</ele>
        <time>2018-05-29T09:03:37Z</time>
      </trkpt>
      <trkpt lat="43.77944" lon="6.36207">
        <ele>882</ele>
        <time>2018-05-29T09:03:56Z</time>
      </trkpt>
      <trkpt lat="43.77942" lon="6.36366">
        <ele>873</ele>
        <time>2018-05-29T09:04:10Z</time>
      </trkpt>
      <trkpt lat="43.7794" lon="6.36376">
        <ele>873</ele>
        <time>2018-05-29T09:04:11Z</time>
      </trkpt>
      <trkpt lat="43.77884" lon="6.36498">
        <ele>870</ele>
        <time>2018-05-29T09:04:23Z</time>
      </trkpt>
      <trkpt lat="43.77805" lon="6.36651">
        <ele>864</ele>
        <time>2018-05-29T09:04:40Z</time>
      </trkpt>
      <trkpt lat="43.77777" lon="6.36715">
        <ele>868</ele>
        <time>2018-05-29T09:04:47Z</time>
      </trkpt>
      <trkpt lat="43.77774" lon="6.36725">
        <ele>868</ele>
        <time>2018-05-29T09:04:48Z</time>
      </trkpt>
      <trkpt lat="43.77772" lon="6.36736">
        <ele>869</ele>
        <time>2018-05-29T09:04:49Z</time>
      </trkpt>
      <trkpt lat="43.77772" lon="6.3679">
        <ele>872</ele>
        <time>2018-05-29T09:04:54Z</time>
      </trkpt>
      <trkpt lat="43.77773" lon="6.36799">
        <ele>872</ele>
        <time>2018-05-29T09:04:55Z</time>
      </trkpt>
      <trkpt lat="43.77776" lon="6.36809">
        <ele>872</ele>
        <time>2018-05-29T09:04:56Z</time>
      </trkpt>
      <trkpt lat="43.77778" lon="6.36817">
        <ele>873</ele>
        <time>2018-05-29T09:04:57Z</time>
      </trkpt>
      <trkpt lat="43.77781" lon="6.36826">
        <ele>873</ele>
        <time>2018-05-29T09:04:58Z</time>
      </trkpt>
      <trkpt lat="43.77795" lon="6.36864">
        <ele>872</ele>
        <time>2018-05-29T09:05:03Z</time>
      </trkpt>
      <trkpt lat="43.77832" lon="6.36976">
        <ele>872</ele>
        <time>2018-05-29T09:05:15Z</time>
      </trkpt>
      <trkpt lat="43.77871" lon="6.37117">
        <ele>871</ele>
        <time>2018-05-29T09:05:29Z</time>
      </trkpt>
      <trkpt lat="43.77876" lon="6.37155">
        <ele>871</ele>
        <time>2018-05-29T09:05:34Z</time>
      </trkpt>
      <trkpt lat="43.77877" lon="6.37242">
        <ele>872</ele>
        <time>2018-05-29T09:05:48Z</time>
      </trkpt>
      <trkpt lat="43.77877" lon="6.37248">
        <ele>872</ele>
        <time>2018-05-29T09:05:49Z</time>
      </trkpt>
      <trkpt lat="43.77877" lon="6.37255">
        <ele>873</ele>
        <time>2018-05-29T09:05:50Z</time>
      </trkpt>
      <trkpt lat="43.77877" lon="6.37261">
        <ele>873</ele>
        <time>2018-05-29T09:05:51Z</time>
      </trkpt>
      <trkpt lat="43.77877" lon="6.37267">
        <ele>873</ele>
        <time>2018-05-29T09:05:52Z</time>
      </trkpt>
      <trkpt lat="43.77878" lon="6.37357">
        <ele>875</ele>
        <time>2018-05-29T09:06:07Z</time>
      </trkpt>
      <trkpt lat="43.77881" lon="6.37368">
        <ele>875</ele>
        <time>2018-05-29T09:06:09Z</time>
      </trkpt>
      <trkpt lat="43.77903" lon="6.37443">
        <ele>874</ele>
        <time>2018-05-29T09:06:24Z</time>
      </trkpt>
      <trkpt lat="43.77911" lon="6.37463">
        <ele>873</ele>
        <time>2018-05-29T09:06:31Z</time>
      </trkpt>
      <trkpt lat="43.77929" lon="6.37504">
        <ele>873</ele>
        <time>2018-05-29T09:06:41Z</time>
      </trkpt>
      <trkpt lat="43.7797" lon="6.37603">
        <ele>870</ele>
        <time>2018-05-29T09:06:56Z</time>
      </trkpt>
      <trkpt lat="43.78018" lon="6.37722">
        <ele>865</ele>
        <time>2018-05-29T09:07:09Z</time>
      </trkpt>
      <trkpt lat="43.78053" lon="6.37882">
        <ele>862</ele>
        <time>2018-05-29T09:07:22Z</time>
      </trkpt>
      <trkpt lat="43.78056" lon="6.37994">
        <ele>864</ele>
        <time>2018-05-29T09:07:33Z</time>
      </trkpt>
      <trkpt lat="43.78057" lon="6.38042">
        <ele>866</ele>
        <time>2018-05-29T09:07:44Z</time>
      </trkpt>
      <trkpt lat="43.78059" lon="6.381">
        <ele>868</ele>
        <time>2018-05-29T09:08:02Z</time>
      </trkpt>
      <trkpt lat="43.78057" lon="6.38149">
        <ele>870</ele>
        <time>2018-05-29T09:08:20Z</time>
      </trkpt>
      <trkpt lat="43.78056" lon="6.38164">
        <ele>870</ele>
        <time>2018-05-29T09:08:29Z</time>
      </trkpt>
      <trkpt lat="43.78057" lon="6.38166">
        <ele>870</ele>
        <time>2018-05-29T09:08:30Z</time>
      </trkpt>
      <trkpt lat="43.78057" lon="6.38168">
        <ele>870</ele>
        <time>2018-05-29T09:08:31Z</time>
      </trkpt>
      <trkpt lat="43.78057" lon="6.3817">
        <ele>870</ele>
        <time>2018-05-29T09:08:32Z</time>
      </trkpt>
      <trkpt lat="43.78057" lon="6.38172">
        <ele>870</ele>
        <time>2018-05-29T09:08:33Z</time>
      </trkpt>
      <trkpt lat="43.78057" lon="6.38174">
        <ele>871</ele>
        <time>2018-05-29T09:08:34Z</time>
      </trkpt>
      <trkpt lat="43.78057" lon="6.38177">
        <ele>871</ele>
        <time>2018-05-29T09:08:35Z</time>
      </trkpt>
      <trkpt lat="43.78058" lon="6.38179">
        <ele>871</ele>
        <time>2018-05-29T09:08:36Z</time>
      </trkpt>
      <trkpt lat="43.78057" lon="6.38182">
        <ele>871</ele>
        <time>2018-05-29T09:08:37Z</time>
      </trkpt>
      <trkpt lat="43.78057" lon="6.38185">
        <ele>871</ele>
        <time>2018-05-29T09:08:38Z</time>
      </trkpt>
      <trkpt lat="43.78057" lon="6.38188">
        <ele>871</ele>
        <time>2018-05-29T09:08:39Z</time>
      </trkpt>
      <trkpt lat="43.78056" lon="6.38191">
        <ele>872</ele>
        <time>2018-05-29T09:08:40Z</time>
      </trkpt>
      <trkpt lat="43.78055" lon="6.38195">
        <ele>872</ele>
        <time>2018-05-29T09:08:41Z</time>
      </trkpt>
      <trkpt lat="43.78054" lon="6.38198">
        <ele>873</ele>
        <time>2018-05-29T09:08:42Z</time>
      </trkpt>
      <trkpt lat="43.78054" lon="6.38202">
        <ele>873</ele>
        <time>2018-05-29T09:08:43Z</time>
      </trkpt>
      <trkpt lat="43.78053" lon="6.38205">
        <ele>873</ele>
        <time>2018-05-29T09:08:44Z</time>
      </trkpt>
      <trkpt lat="43.78053" lon="6.38207">
        <ele>874</ele>
        <time>2018-05-29T09:08:45Z</time>
      </trkpt>
      <trkpt lat="43.78051" lon="6.38212">
        <ele>874</ele>
        <time>2018-05-29T09:08:55Z</time>
      </trkpt>
      <trkpt lat="43.7805" lon="6.3821">
        <ele>875</ele>
        <time>2018-05-29T09:09:17Z</time>
      </trkpt>
      <trkpt lat="43.78049" lon="6.38211">
        <ele>875</ele>
        <time>2018-05-29T09:10:09Z</time>
      </trkpt>
      <trkpt lat="43.7805" lon="6.38212">
        <ele>875</ele>
        <time>2018-05-29T09:10:46Z</time>
      </trkpt>
      <trkpt lat="43.78052" lon="6.38214">
        <ele>874</ele>
        <time>2018-05-29T09:10:52Z</time>
      </trkpt>
      <trkpt lat="43.78053" lon="6.38216">
        <ele>874</ele>
        <time>2018-05-29T09:10:54Z</time>
      </trkpt>
      <trkpt lat="43.78053" lon="6.38218">
        <ele>874</ele>
        <time>2018-05-29T09:10:55Z</time>
      </trkpt>
      <trkpt lat="43.78053" lon="6.3822">
        <ele>874</ele>
        <time>2018-05-29T09:10:56Z</time>
      </trkpt>
      <trkpt lat="43.78053" lon="6.38222">
        <ele>874</ele>
        <time>2018-05-29T09:10:57Z</time>
      </trkpt>
      <trkpt lat="43.78053" lon="6.38224">
        <ele>874</ele>
        <time>2018-05-29T09:10:58Z</time>
      </trkpt>
      <trkpt lat="43.78055" lon="6.38264">
        <ele>876</ele>
        <time>2018-05-29T09:11:14Z</time>
      </trkpt>
      <trkpt lat="43.78057" lon="6.38306">
        <ele>878</ele>
        <time>2018-05-29T09:11:30Z</time>
      </trkpt>
      <trkpt lat="43.78055" lon="6.38342">
        <ele>881</ele>
        <time>2018-05-29T09:11:45Z</time>
      </trkpt>
      <trkpt lat="43.78054" lon="6.38382">
        <ele>883</ele>
        <time>2018-05-29T09:12:04Z</time>
      </trkpt>
      <trkpt lat="43.78053" lon="6.38426">
        <ele>886</ele>
        <time>2018-05-29T09:12:23Z</time>
      </trkpt>
      <trkpt lat="43.78056" lon="6.38462">
        <ele>888</ele>
        <time>2018-05-29T09:12:37Z</time>
      </trkpt>
      <trkpt lat="43.78059" lon="6.38507">
        <ele>890</ele>
        <time>2018-05-29T09:12:55Z</time>
      </trkpt>
      <trkpt lat="43.78055" lon="6.38545">
        <ele>892</ele>
        <time>2018-05-29T09:13:11Z</time>
      </trkpt>
      <trkpt lat="43.78044" lon="6.38578">
        <ele>895</ele>
        <time>2018-05-29T09:13:26Z</time>
      </trkpt>
      <trkpt lat="43.78035" lon="6.38612">
        <ele>897</ele>
        <time>2018-05-29T09:13:42Z</time>
      </trkpt>
      <trkpt lat="43.78032" lon="6.38647">
        <ele>900</ele>
        <time>2018-05-29T09:13:58Z</time>
      </trkpt>
      <trkpt lat="43.78033" lon="6.38677">
        <ele>901</ele>
        <time>2018-05-29T09:14:11Z</time>
      </trkpt>
      <trkpt lat="43.78034" lon="6.38711">
        <ele>903</ele>
        <time>2018-05-29T09:14:25Z</time>
      </trkpt>
      <trkpt lat="43.78036" lon="6.38723">
        <ele>904</ele>
        <time>2018-05-29T09:14:31Z</time>
      </trkpt>
      <trkpt lat="43.78035" lon="6.38725">
        <ele>904</ele>
        <time>2018-05-29T09:14:32Z</time>
      </trkpt>
      <trkpt lat="43.78035" lon="6.38727">
        <ele>904</ele>
        <time>2018-05-29T09:14:33Z</time>
      </trkpt>
      <trkpt lat="43.78035" lon="6.38729">
        <ele>904</ele>
        <time>2018-05-29T09:14:34Z</time>
      </trkpt>
      <trkpt lat="43.78036" lon="6.38731">
        <ele>904</ele>
        <time>2018-05-29T09:14:35Z</time>
      </trkpt>
      <trkpt lat="43.78036" lon="6.38734">
        <ele>904</ele>
        <time>2018-05-29T09:14:36Z</time>
      </trkpt>
      <trkpt lat="43.78036" lon="6.38736">
        <ele>905</ele>
        <time>2018-05-29T09:14:37Z</time>
      </trkpt>
      <trkpt lat="43.78036" lon="6.38738">
        <ele>905</ele>
        <time>2018-05-29T09:14:38Z</time>
      </trkpt>
      <trkpt lat="43.78036" lon="6.3874">
        <ele>905</ele>
        <time>2018-05-29T09:14:39Z</time>
      </trkpt>
      <trkpt lat="43.78037" lon="6.38742">
        <ele>905</ele>
        <time>2018-05-29T09:14:40Z</time>
      </trkpt>
      <trkpt lat="43.78037" lon="6.38744">
        <ele>905</ele>
        <time>2018-05-29T09:14:41Z</time>
      </trkpt>
      <trkpt lat="43.78037" lon="6.38746">
        <ele>905</ele>
        <time>2018-05-29T09:14:42Z</time>
      </trkpt>
      <trkpt lat="43.78037" lon="6.38749">
        <ele>905</ele>
        <time>2018-05-29T09:14:43Z</time>
      </trkpt>
      <trkpt lat="43.78037" lon="6.3875">
        <ele>906</ele>
        <time>2018-05-29T09:14:44Z</time>
      </trkpt>
      <trkpt lat="43.78037" lon="6.38753">
        <ele>906</ele>
        <time>2018-05-29T09:14:45Z</time>
      </trkpt>
      <trkpt lat="43.78037" lon="6.38755">
        <ele>906</ele>
        <time>2018-05-29T09:14:46Z</time>
      </trkpt>
      <trkpt lat="43.78037" lon="6.38757">
        <ele>906</ele>
        <time>2018-05-29T09:14:47Z</time>
      </trkpt>
      <trkpt lat="43.78038" lon="6.38759">
        <ele>906</ele>
        <time>2018-05-29T09:14:48Z</time>
      </trkpt>
      <trkpt lat="43.78041" lon="6.38786">
        <ele>908</ele>
        <time>2018-05-29T09:15:02Z</time>
      </trkpt>
      <trkpt lat="43.78047" lon="6.38815">
        <ele>909</ele>
        <time>2018-05-29T09:15:16Z</time>
      </trkpt>
      <trkpt lat="43.78047" lon="6.38817">
        <ele>909</ele>
        <time>2018-05-29T09:15:17Z</time>
      </trkpt>
      <trkpt lat="43.78047" lon="6.38819">
        <ele>909</ele>
        <time>2018-05-29T09:15:18Z</time>
      </trkpt>
      <trkpt lat="43.78048" lon="6.38821">
        <ele>909</ele>
        <time>2018-05-29T09:15:19Z</time>
      </trkpt>
      <trkpt lat="43.78048" lon="6.38823">
        <ele>910</ele>
        <time>2018-05-29T09:15:20Z</time>
      </trkpt>
      <trkpt lat="43.78049" lon="6.38825">
        <ele>910</ele>
        <time>2018-05-29T09:15:21Z</time>
      </trkpt>
      <trkpt lat="43.78049" lon="6.38827">
        <ele>910</ele>
        <time>2018-05-29T09:15:22Z</time>
      </trkpt>
      <trkpt lat="43.7805" lon="6.38829">
        <ele>910</ele>
        <time>2018-05-29T09:15:23Z</time>
      </trkpt>
      <trkpt lat="43.78051" lon="6.38831">
        <ele>910</ele>
        <time>2018-05-29T09:15:24Z</time>
      </trkpt>
      <trkpt lat="43.78051" lon="6.38833">
        <ele>910</ele>
        <time>2018-05-29T09:15:25Z</time>
      </trkpt>
      <trkpt lat="43.78051" lon="6.38835">
        <ele>910</ele>
        <time>2018-05-29T09:15:26Z</time>
      </trkpt>
      <trkpt lat="43.78052" lon="6.38838">
        <ele>910</ele>
        <time>2018-05-29T09:15:27Z</time>
      </trkpt>
      <trkpt lat="43.78052" lon="6.38839">
        <ele>910</ele>
        <time>2018-05-29T09:15:28Z</time>
      </trkpt>
      <trkpt lat="43.78053" lon="6.38841">
        <ele>910</ele>
        <time>2018-05-29T09:15:29Z</time>
      </trkpt>
      <trkpt lat="43.78053" lon="6.38843">
        <ele>910</ele>
        <time>2018-05-29T09:15:30Z</time>
      </trkpt>
      <trkpt lat="43.7806" lon="6.38873">
        <ele>912</ele>
        <time>2018-05-29T09:15:45Z</time>
      </trkpt>
      <trkpt lat="43.78068" lon="6.38904">
        <ele>914</ele>
        <time>2018-05-29T09:16:01Z</time>
      </trkpt>
      <trkpt lat="43.78076" lon="6.38937">
        <ele>916</ele>
        <time>2018-05-29T09:16:17Z</time>
      </trkpt>
      <trkpt lat="43.78084" lon="6.38968">
        <ele>918</ele>
        <time>2018-05-29T09:16:33Z</time>
      </trkpt>
      <trkpt lat="43.78095" lon="6.39001">
        <ele>915</ele>
        <time>2018-05-29T09:16:47Z</time>
      </trkpt>
      <trkpt lat="43.78102" lon="6.39041">
        <ele>913</ele>
        <time>2018-05-29T09:17:00Z</time>
      </trkpt>
      <trkpt lat="43.78097" lon="6.39059">
        <ele>864</ele>
        <time>2018-05-29T09:17:12Z</time>
      </trkpt>
      <trkpt lat="43.78095" lon="6.39061">
        <ele>856</ele>
        <time>2018-05-29T09:17:24Z</time>
      </trkpt>
      <trkpt lat="43.78092" lon="6.3906">
        <ele>860</ele>
        <time>2018-05-29T09:17:30Z</time>
      </trkpt>
      <trkpt lat="43.78091" lon="6.39059">
        <ele>862</ele>
        <time>2018-05-29T09:17:32Z</time>
      </trkpt>
      <trkpt lat="43.78087" lon="6.39061">
        <ele>853</ele>
        <time>2018-05-29T09:17:46Z</time>
      </trkpt>
      <trkpt lat="43.78086" lon="6.39058">
        <ele>862</ele>
        <time>2018-05-29T09:18:14Z</time>
      </trkpt>
      <trkpt lat="43.78085" lon="6.39058">
        <ele>860</ele>
        <time>2018-05-29T09:18:50Z</time>
      </trkpt>
      <trkpt lat="43.78086" lon="6.3906">
        <ele>856</ele>
        <time>2018-05-29T09:19:21Z</time>
      </trkpt>
      <trkpt lat="43.78086" lon="6.39059">
        <ele>859</ele>
        <time>2018-05-29T09:20:04Z</time>
      </trkpt>
      <trkpt lat="43.78087" lon="6.39059">
        <ele>858</ele>
        <time>2018-05-29T09:20:41Z</time>
      </trkpt>
      <trkpt lat="43.78089" lon="6.39057">
        <ele>867</ele>
        <time>2018-05-29T09:20:58Z</time>
      </trkpt>
      <trkpt lat="43.78089" lon="6.39055">
        <ele>872</ele>
        <time>2018-05-29T09:20:59Z</time>
      </trkpt>
      <trkpt lat="43.7809" lon="6.39053">
        <ele>879</ele>
        <time>2018-05-29T09:21:00Z</time>
      </trkpt>
      <trkpt lat="43.7809" lon="6.39049">
        <ele>890</ele>
        <time>2018-05-29T09:21:01Z</time>
      </trkpt>
      <trkpt lat="43.78089" lon="6.39045">
        <ele>902</ele>
        <time>2018-05-29T09:21:02Z</time>
      </trkpt>
      <trkpt lat="43.78087" lon="6.39043">
        <ele>908</ele>
        <time>2018-05-29T09:21:03Z</time>
      </trkpt>
      <trkpt lat="43.78086" lon="6.39041">
        <ele>910</ele>
        <time>2018-05-29T09:21:04Z</time>
      </trkpt>
      <trkpt lat="43.78085" lon="6.39038">
        <ele>910</ele>
        <time>2018-05-29T09:21:05Z</time>
      </trkpt>
      <trkpt lat="43.78085" lon="6.39036">
        <ele>910</ele>
        <time>2018-05-29T09:21:06Z</time>
      </trkpt>
      <trkpt lat="43.78084" lon="6.39034">
        <ele>910</ele>
        <time>2018-05-29T09:21:07Z</time>
      </trkpt>
      <trkpt lat="43.78082" lon="6.39032">
        <ele>910</ele>
        <time>2018-05-29T09:21:08Z</time>
      </trkpt>
      <trkpt lat="43.78082" lon="6.39029">
        <ele>911</ele>
        <time>2018-05-29T09:21:09Z</time>
      </trkpt>
      <trkpt lat="43.78081" lon="6.39026">
        <ele>911</ele>
        <time>2018-05-29T09:21:10Z</time>
      </trkpt>
      <trkpt lat="43.78078" lon="6.39011">
        <ele>914</ele>
        <time>2018-05-29T09:21:15Z</time>
      </trkpt>
      <trkpt lat="43.78076" lon="6.39008">
        <ele>915</ele>
        <time>2018-05-29T09:21:16Z</time>
      </trkpt>
      <trkpt lat="43.78051" lon="6.38966">
        <ele>925</ele>
        <time>2018-05-29T09:21:32Z</time>
      </trkpt>
      <trkpt lat="43.78027" lon="6.38928">
        <ele>926</ele>
        <time>2018-05-29T09:21:46Z</time>
      </trkpt>
      <trkpt lat="43.78016" lon="6.38899">
        <ele>927</ele>
        <time>2018-05-29T09:21:55Z</time>
      </trkpt>
      <trkpt lat="43.78014" lon="6.38898">
        <ele>927</ele>
        <time>2018-05-29T09:21:56Z</time>
      </trkpt>
      <trkpt lat="43.77992" lon="6.3891">
        <ele>934</ele>
        <time>2018-05-29T09:22:06Z</time>
      </trkpt>
      <trkpt lat="43.78009" lon="6.38946">
        <ele>933</ele>
        <time>2018-05-29T09:22:18Z</time>
      </trkpt>
      <trkpt lat="43.78033" lon="6.38993">
        <ele>919</ele>
        <time>2018-05-29T09:22:34Z</time>
      </trkpt>
      <trkpt lat="43.78042" lon="6.39007">
        <ele>912</ele>
        <time>2018-05-29T09:22:40Z</time>
      </trkpt>
      <trkpt lat="43.78045" lon="6.39008">
        <ele>911</ele>
        <time>2018-05-29T09:22:41Z</time>
      </trkpt>
      <trkpt lat="43.78047" lon="6.39009">
        <ele>911</ele>
        <time>2018-05-29T09:22:42Z</time>
      </trkpt>
      <trkpt lat="43.78049" lon="6.3901">
        <ele>911</ele>
        <time>2018-05-29T09:22:43Z</time>
      </trkpt>
      <trkpt lat="43.78051" lon="6.39012">
        <ele>910</ele>
        <time>2018-05-29T09:22:44Z</time>
      </trkpt>
      <trkpt lat="43.78051" lon="6.39015">
        <ele>910</ele>
        <time>2018-05-29T09:22:45Z</time>
      </trkpt>
      <trkpt lat="43.78052" lon="6.39017">
        <ele>909</ele>
        <time>2018-05-29T09:22:46Z</time>
      </trkpt>
      <trkpt lat="43.78052" lon="6.3902">
        <ele>907</ele>
        <time>2018-05-29T09:22:47Z</time>
      </trkpt>
      <trkpt lat="43.78052" lon="6.39022">
        <ele>906</ele>
        <time>2018-05-29T09:22:48Z</time>
      </trkpt>
      <trkpt lat="43.78052" lon="6.39025">
        <ele>905</ele>
        <time>2018-05-29T09:22:49Z</time>
      </trkpt>
      <trkpt lat="43.78052" lon="6.39028">
        <ele>904</ele>
        <time>2018-05-29T09:22:50Z</time>
      </trkpt>
      <trkpt lat="43.78053" lon="6.39031">
        <ele>903</ele>
        <time>2018-05-29T09:22:51Z</time>
      </trkpt>
      <trkpt lat="43.78053" lon="6.39033">
        <ele>902</ele>
        <time>2018-05-29T09:22:52Z</time>
      </trkpt>
      <trkpt lat="43.78052" lon="6.39036">
        <ele>901</ele>
        <time>2018-05-29T09:22:53Z</time>
      </trkpt>
      <trkpt lat="43.78051" lon="6.39038">
        <ele>899</ele>
        <time>2018-05-29T09:22:54Z</time>
      </trkpt>
      <trkpt lat="43.7805" lon="6.39041">
        <ele>896</ele>
        <time>2018-05-29T09:22:55Z</time>
      </trkpt>
      <trkpt lat="43.78042" lon="6.39053">
        <ele>847</ele>
        <time>2018-05-29T09:23:04Z</time>
      </trkpt>
      <trkpt lat="43.78035" lon="6.39053">
        <ele>842</ele>
        <time>2018-05-29T09:23:16Z</time>
      </trkpt>
      <trkpt lat="43.78036" lon="6.39052">
        <ele>846</ele>
        <time>2018-05-29T09:23:56Z</time>
      </trkpt>
      <trkpt lat="43.78034" lon="6.39051">
        <ele>848</ele>
        <time>2018-05-29T09:24:22Z</time>
      </trkpt>
      <trkpt lat="43.78035" lon="6.39051">
        <ele>850</ele>
        <time>2018-05-29T09:24:51Z</time>
      </trkpt>
      <trkpt lat="43.78035" lon="6.39051">
        <ele>849</ele>
        <time>2018-05-29T09:25:19Z</time>
      </trkpt>
      <trkpt lat="43.78037" lon="6.39054">
        <ele>841</ele>
        <time>2018-05-29T09:25:29Z</time>
      </trkpt>
      <trkpt lat="43.78037" lon="6.39043">
        <ele>879</ele>
        <time>2018-05-29T09:25:35Z</time>
      </trkpt>
      <trkpt lat="43.78035" lon="6.39041">
        <ele>883</ele>
        <time>2018-05-29T09:25:36Z</time>
      </trkpt>
      <trkpt lat="43.78033" lon="6.39039">
        <ele>888</ele>
        <time>2018-05-29T09:25:37Z</time>
      </trkpt>
      <trkpt lat="43.78031" lon="6.39037">
        <ele>890</ele>
        <time>2018-05-29T09:25:38Z</time>
      </trkpt>
      <trkpt lat="43.78029" lon="6.39035">
        <ele>890</ele>
        <time>2018-05-29T09:25:39Z</time>
      </trkpt>
      <trkpt lat="43.78027" lon="6.39032">
        <ele>891</ele>
        <time>2018-05-29T09:25:40Z</time>
      </trkpt>
      <trkpt lat="43.78025" lon="6.39029">
        <ele>893</ele>
        <time>2018-05-29T09:25:41Z</time>
      </trkpt>
      <trkpt lat="43.78024" lon="6.39025">
        <ele>894</ele>
        <time>2018-05-29T09:25:42Z</time>
      </trkpt>
      <trkpt lat="43.78023" lon="6.39022">
        <ele>896</ele>
        <time>2018-05-29T09:25:43Z</time>
      </trkpt>
      <trkpt lat="43.78022" lon="6.3902">
        <ele>898</ele>
        <time>2018-05-29T09:25:44Z</time>
      </trkpt>
      <trkpt lat="43.78006" lon="6.38981">
        <ele>927</ele>
        <time>2018-05-29T09:25:58Z</time>
      </trkpt>
      <trkpt lat="43.77989" lon="6.38956">
        <ele>940</ele>
        <time>2018-05-29T09:26:11Z</time>
      </trkpt>
      <trkpt lat="43.77967" lon="6.38931">
        <ele>943</ele>
        <time>2018-05-29T09:26:26Z</time>
      </trkpt>
      <trkpt lat="43.7795" lon="6.38906">
        <ele>946</ele>
        <time>2018-05-29T09:26:37Z</time>
      </trkpt>
      <trkpt lat="43.7793" lon="6.38872">
        <ele>949</ele>
        <time>2018-05-29T09:26:54Z</time>
      </trkpt>
      <trkpt lat="43.77915" lon="6.38845">
        <ele>951</ele>
        <time>2018-05-29T09:27:07Z</time>
      </trkpt>
      <trkpt lat="43.77897" lon="6.38809">
        <ele>953</ele>
        <time>2018-05-29T09:27:23Z</time>
      </trkpt>
      <trkpt lat="43.77883" lon="6.38783">
        <ele>955</ele>
        <time>2018-05-29T09:27:36Z</time>
      </trkpt>
      <trkpt lat="43.7787" lon="6.38757">
        <ele>956</ele>
        <time>2018-05-29T09:27:49Z</time>
      </trkpt>
      <trkpt lat="43.77855" lon="6.38721">
        <ele>957</ele>
        <time>2018-05-29T09:28:06Z</time>
      </trkpt>
      <trkpt lat="43.77842" lon="6.3869">
        <ele>960</ele>
        <time>2018-05-29T09:28:21Z</time>
      </trkpt>
      <trkpt lat="43.7784" lon="6.38684">
        <ele>960</ele>
        <time>2018-05-29T09:28:24Z</time>
      </trkpt>
      <trkpt lat="43.77839" lon="6.38682">
        <ele>961</ele>
        <time>2018-05-29T09:28:25Z</time>
      </trkpt>
      <trkpt lat="43.77839" lon="6.3868">
        <ele>961</ele>
        <time>2018-05-29T09:28:26Z</time>
      </trkpt>
      <trkpt lat="43.77838" lon="6.38678">
        <ele>961</ele>
        <time>2018-05-29T09:28:27Z</time>
      </trkpt>
      <trkpt lat="43.77837" lon="6.38676">
        <ele>961</ele>
        <time>2018-05-29T09:28:28Z</time>
      </trkpt>
      <trkpt lat="43.77836" lon="6.38674">
        <ele>962</ele>
        <time>2018-05-29T09:28:29Z</time>
      </trkpt>
      <trkpt lat="43.77835" lon="6.38673">
        <ele>962</ele>
        <time>2018-05-29T09:28:30Z</time>
      </trkpt>
      <trkpt lat="43.77835" lon="6.38671">
        <ele>962</ele>
        <time>2018-05-29T09:28:31Z</time>
      </trkpt>
      <trkpt lat="43.77825" lon="6.38646">
        <ele>964</ele>
        <time>2018-05-29T09:28:44Z</time>
      </trkpt>
      <trkpt lat="43.77825" lon="6.38644">
        <ele>964</ele>
        <time>2018-05-29T09:28:45Z</time>
      </trkpt>
      <trkpt lat="43.77824" lon="6.38643">
        <ele>965</ele>
        <time>2018-05-29T09:28:46Z</time>
      </trkpt>
      <trkpt lat="43.77823" lon="6.38641">
        <ele>965</ele>
        <time>2018-05-29T09:28:47Z</time>
      </trkpt>
      <trkpt lat="43.77822" lon="6.38639">
        <ele>965</ele>
        <time>2018-05-29T09:28:48Z</time>
      </trkpt>
      <trkpt lat="43.77822" lon="6.38637">
        <ele>965</ele>
        <time>2018-05-29T09:28:49Z</time>
      </trkpt>
      <trkpt lat="43.77822" lon="6.38635">
        <ele>965</ele>
        <time>2018-05-29T09:28:50Z</time>
      </trkpt>
      <trkpt lat="43.77821" lon="6.38633">
        <ele>965</ele>
        <time>2018-05-29T09:28:51Z</time>
      </trkpt>
      <trkpt lat="43.7782" lon="6.38631">
        <ele>966</ele>
        <time>2018-05-29T09:28:52Z</time>
      </trkpt>
      <trkpt lat="43.7782" lon="6.38629">
        <ele>966</ele>
        <time>2018-05-29T09:28:53Z</time>
      </trkpt>
      <trkpt lat="43.77819" lon="6.38627">
        <ele>966</ele>
        <time>2018-05-29T09:28:54Z</time>
      </trkpt>
      <trkpt lat="43.77809" lon="6.38599">
        <ele>968</ele>
        <time>2018-05-29T09:29:10Z</time>
      </trkpt>
      <trkpt lat="43.77808" lon="6.38597">
        <ele>968</ele>
        <time>2018-05-29T09:29:11Z</time>
      </trkpt>
      <trkpt lat="43.77808" lon="6.38596">
        <ele>969</ele>
        <time>2018-05-29T09:29:12Z</time>
      </trkpt>
      <trkpt lat="43.77807" lon="6.38594">
        <ele>969</ele>
        <time>2018-05-29T09:29:13Z</time>
      </trkpt>
      <trkpt lat="43.77806" lon="6.38592">
        <ele>969</ele>
        <time>2018-05-29T09:29:14Z</time>
      </trkpt>
      <trkpt lat="43.77806" lon="6.3859">
        <ele>969</ele>
        <time>2018-05-29T09:29:15Z</time>
      </trkpt>
      <trkpt lat="43.77805" lon="6.38588">
        <ele>969</ele>
        <time>2018-05-29T09:29:16Z</time>
      </trkpt>
      <trkpt lat="43.77801" lon="6.38574">
        <ele>970</ele>
        <time>2018-05-29T09:29:25Z</time>
      </trkpt>
      <trkpt lat="43.778" lon="6.38572">
        <ele>970</ele>
        <time>2018-05-29T09:29:26Z</time>
      </trkpt>
      <trkpt lat="43.778" lon="6.3857">
        <ele>970</ele>
        <time>2018-05-29T09:29:27Z</time>
      </trkpt>
      <trkpt lat="43.77799" lon="6.38568">
        <ele>971</ele>
        <time>2018-05-29T09:29:28Z</time>
      </trkpt>
      <trkpt lat="43.77799" lon="6.38567">
        <ele>971</ele>
        <time>2018-05-29T09:29:29Z</time>
      </trkpt>
      <trkpt lat="43.77798" lon="6.38565">
        <ele>971</ele>
        <time>2018-05-29T09:29:30Z</time>
      </trkpt>
      <trkpt lat="43.77797" lon="6.38563">
        <ele>971</ele>
        <time>2018-05-29T09:29:31Z</time>
      </trkpt>
      <trkpt lat="43.7779" lon="6.38538">
        <ele>973</ele>
        <time>2018-05-29T09:29:45Z</time>
      </trkpt>
      <trkpt lat="43.77781" lon="6.38516">
        <ele>975</ele>
        <time>2018-05-29T09:29:59Z</time>
      </trkpt>
      <trkpt lat="43.77777" lon="6.38504">
        <ele>976</ele>
        <time>2018-05-29T09:30:06Z</time>
      </trkpt>
      <trkpt lat="43.77776" lon="6.38503">
        <ele>976</ele>
        <time>2018-05-29T09:30:07Z</time>
      </trkpt>
      <trkpt lat="43.77768" lon="6.38479">
        <ele>978</ele>
        <time>2018-05-29T09:30:21Z</time>
      </trkpt>
      <trkpt lat="43.77767" lon="6.38477">
        <ele>978</ele>
        <time>2018-05-29T09:30:22Z</time>
      </trkpt>
      <trkpt lat="43.77767" lon="6.38476">
        <ele>978</ele>
        <time>2018-05-29T09:30:23Z</time>
      </trkpt>
      <trkpt lat="43.77766" lon="6.38474">
        <ele>978</ele>
        <time>2018-05-29T09:30:24Z</time>
      </trkpt>
      <trkpt lat="43.77765" lon="6.38472">
        <ele>978</ele>
        <time>2018-05-29T09:30:25Z</time>
      </trkpt>
      <trkpt lat="43.77765" lon="6.38471">
        <ele>979</ele>
        <time>2018-05-29T09:30:26Z</time>
      </trkpt>
      <trkpt lat="43.77764" lon="6.38469">
        <ele>979</ele>
        <time>2018-05-29T09:30:27Z</time>
      </trkpt>
      <trkpt lat="43.77763" lon="6.38467">
        <ele>979</ele>
        <time>2018-05-29T09:30:28Z</time>
      </trkpt>
      <trkpt lat="43.77763" lon="6.38466">
        <ele>979</ele>
        <time>2018-05-29T09:30:29Z</time>
      </trkpt>
      <trkpt lat="43.77751" lon="6.38436">
        <ele>982</ele>
        <time>2018-05-29T09:30:46Z</time>
      </trkpt>
      <trkpt lat="43.77741" lon="6.38408">
        <ele>983</ele>
        <time>2018-05-29T09:31:03Z</time>
      </trkpt>
      <trkpt lat="43.7774" lon="6.38407">
        <ele>984</ele>
        <time>2018-05-29T09:31:04Z</time>
      </trkpt>
      <trkpt lat="43.77739" lon="6.38405">
        <ele>984</ele>
        <time>2018-05-29T09:31:05Z</time>
      </trkpt>
      <trkpt lat="43.77739" lon="6.38404">
        <ele>984</ele>
        <time>2018-05-29T09:31:06Z</time>
      </trkpt>
      <trkpt lat="43.77738" lon="6.38402">
        <ele>984</ele>
        <time>2018-05-29T09:31:07Z</time>
      </trkpt>
      <trkpt lat="43.77729" lon="6.38377">
        <ele>986</ele>
        <time>2018-05-29T09:31:23Z</time>
      </trkpt>
      <trkpt lat="43.7772" lon="6.38355">
        <ele>989</ele>
        <time>2018-05-29T09:31:37Z</time>
      </trkpt>
      <trkpt lat="43.77711" lon="6.38329">
        <ele>991</ele>
        <time>2018-05-29T09:31:54Z</time>
      </trkpt>
      <trkpt lat="43.77701" lon="6.38304">
        <ele>992</ele>
        <time>2018-05-29T09:32:10Z</time>
      </trkpt>
      <trkpt lat="43.77692" lon="6.38286">
        <ele>994</ele>
        <time>2018-05-29T09:32:23Z</time>
      </trkpt>
      <trkpt lat="43.77681" lon="6.38268">
        <ele>996</ele>
        <time>2018-05-29T09:32:37Z</time>
      </trkpt>
      <trkpt lat="43.77678" lon="6.38261">
        <ele>997</ele>
        <time>2018-05-29T09:32:42Z</time>
      </trkpt>
      <trkpt lat="43.77663" lon="6.38242">
        <ele>1000</ele>
        <time>2018-05-29T09:32:59Z</time>
      </trkpt>
      <trkpt lat="43.77656" lon="6.38234">
        <ele>1001</ele>
        <time>2018-05-29T09:33:06Z</time>
      </trkpt>
      <trkpt lat="43.77655" lon="6.38233">
        <ele>1001</ele>
        <time>2018-05-29T09:33:07Z</time>
      </trkpt>
      <trkpt lat="43.77654" lon="6.38232">
        <ele>1002</ele>
        <time>2018-05-29T09:33:08Z</time>
      </trkpt>
      <trkpt lat="43.77653" lon="6.38231">
        <ele>1002</ele>
        <time>2018-05-29T09:33:09Z</time>
      </trkpt>
      <trkpt lat="43.77653" lon="6.38231">
        <ele>1002</ele>
        <time>2018-05-29T09:33:10Z</time>
      </trkpt>
      <trkpt lat="43.77652" lon="6.38229">
        <ele>1002</ele>
        <time>2018-05-29T09:33:11Z</time>
      </trkpt>
      <trkpt lat="43.77651" lon="6.38228">
        <ele>1002</ele>
        <time>2018-05-29T09:33:12Z</time>
      </trkpt>
      <trkpt lat="43.7765" lon="6.38227">
        <ele>1003</ele>
        <time>2018-05-29T09:33:13Z</time>
      </trkpt>
      <trkpt lat="43.77649" lon="6.38226">
        <ele>1003</ele>
        <time>2018-05-29T09:33:14Z</time>
      </trkpt>
      <trkpt lat="43.77648" lon="6.38225">
        <ele>1003</ele>
        <time>2018-05-29T09:33:15Z</time>
      </trkpt>
      <trkpt lat="43.77648" lon="6.38224">
        <ele>1003</ele>
        <time>2018-05-29T09:33:16Z</time>
      </trkpt>
      <trkpt lat="43.77647" lon="6.38223">
        <ele>1003</ele>
        <time>2018-05-29T09:33:17Z</time>
      </trkpt>
      <trkpt lat="43.77646" lon="6.38222">
        <ele>1004</ele>
        <time>2018-05-29T09:33:18Z</time>
      </trkpt>
      <trkpt lat="43.77645" lon="6.38221">
        <ele>1004</ele>
        <time>2018-05-29T09:33:19Z</time>
      </trkpt>
      <trkpt lat="43.77644" lon="6.3822">
        <ele>1004</ele>
        <time>2018-05-29T09:33:20Z</time>
      </trkpt>
      <trkpt lat="43.77643" lon="6.38219">
        <ele>1004</ele>
        <time>2018-05-29T09:33:21Z</time>
      </trkpt>
      <trkpt lat="43.77642" lon="6.38218">
        <ele>1004</ele>
        <time>2018-05-29T09:33:22Z</time>
      </trkpt>
      <trkpt lat="43.77641" lon="6.38217">
        <ele>1004</ele>
        <time>2018-05-29T09:33:23Z</time>
      </trkpt>
      <trkpt lat="43.7764" lon="6.38216">
        <ele>1005</ele>
        <time>2018-05-29T09:33:24Z</time>
      </trkpt>
      <trkpt lat="43.77639" lon="6.38215">
        <ele>1005</ele>
        <time>2018-05-29T09:33:25Z</time>
      </trkpt>
      <trkpt lat="43.77635" lon="6.3821">
        <ele>1006</ele>
        <time>2018-05-29T09:33:30Z</time>
      </trkpt>
      <trkpt lat="43.77633" lon="6.38208">
        <ele>1006</ele>
        <time>2018-05-29T09:33:32Z</time>
      </trkpt>
      <trkpt lat="43.77632" lon="6.38207">
        <ele>1006</ele>
        <time>2018-05-29T09:33:33Z</time>
      </trkpt>
      <trkpt lat="43.77629" lon="6.38203">
        <ele>1007</ele>
        <time>2018-05-29T09:33:37Z</time>
      </trkpt>
      <trkpt lat="43.77628" lon="6.38202">
        <ele>1007</ele>
        <time>2018-05-29T09:33:38Z</time>
      </trkpt>
      <trkpt lat="43.77627" lon="6.38201">
        <ele>1007</ele>
        <time>2018-05-29T09:33:39Z</time>
      </trkpt>
      <trkpt lat="43.77612" lon="6.38188">
        <ele>1010</ele>
        <time>2018-05-29T09:33:53Z</time>
      </trkpt>
      <trkpt lat="43.77605" lon="6.38182">
        <ele>1011</ele>
        <time>2018-05-29T09:34:00Z</time>
      </trkpt>
      <trkpt lat="43.77604" lon="6.38182">
        <ele>1011</ele>
        <time>2018-05-29T09:34:01Z</time>
      </trkpt>
      <trkpt lat="43.77603" lon="6.38181">
        <ele>1011</ele>
        <time>2018-05-29T09:34:02Z</time>
      </trkpt>
      <trkpt lat="43.7759" lon="6.38168">
        <ele>1013</ele>
        <time>2018-05-29T09:34:16Z</time>
      </trkpt>
      <trkpt lat="43.77589" lon="6.38166">
        <ele>1013</ele>
        <time>2018-05-29T09:34:17Z</time>
      </trkpt>
      <trkpt lat="43.77589" lon="6.38165">
        <ele>1013</ele>
        <time>2018-05-29T09:34:18Z</time>
      </trkpt>
      <trkpt lat="43.77588" lon="6.38164">
        <ele>1013</ele>
        <time>2018-05-29T09:34:19Z</time>
      </trkpt>
      <trkpt lat="43.77587" lon="6.38163">
        <ele>1014</ele>
        <time>2018-05-29T09:34:20Z</time>
      </trkpt>
      <trkpt lat="43.77586" lon="6.38162">
        <ele>1014</ele>
        <time>2018-05-29T09:34:21Z</time>
      </trkpt>
      <trkpt lat="43.77585" lon="6.3816">
        <ele>1014</ele>
        <time>2018-05-29T09:34:22Z</time>
      </trkpt>
      <trkpt lat="43.77584" lon="6.38158">
        <ele>1014</ele>
        <time>2018-05-29T09:34:24Z</time>
      </trkpt>
      <trkpt lat="43.77583" lon="6.38156">
        <ele>1014</ele>
        <time>2018-05-29T09:34:25Z</time>
      </trkpt>
      <trkpt lat="43.77582" lon="6.38155">
        <ele>1014</ele>
        <time>2018-05-29T09:34:26Z</time>
      </trkpt>
      <trkpt lat="43.77581" lon="6.38154">
        <ele>1014</ele>
        <time>2018-05-29T09:34:27Z</time>
      </trkpt>
      <trkpt lat="43.77581" lon="6.38152">
        <ele>1014</ele>
        <time>2018-05-29T09:34:28Z</time>
      </trkpt>
      <trkpt lat="43.77574" lon="6.38142">
        <ele>1015</ele>
        <time>2018-05-29T09:34:36Z</time>
      </trkpt>
      <trkpt lat="43.77574" lon="6.3814">
        <ele>1015</ele>
        <time>2018-05-29T09:34:37Z</time>
      </trkpt>
      <trkpt lat="43.77573" lon="6.38139">
        <ele>1015</ele>
        <time>2018-05-29T09:34:38Z</time>
      </trkpt>
      <trkpt lat="43.77572" lon="6.38138">
        <ele>1015</ele>
        <time>2018-05-29T09:34:39Z</time>
      </trkpt>
      <trkpt lat="43.77571" lon="6.38136">
        <ele>1015</ele>
        <time>2018-05-29T09:34:40Z</time>
      </trkpt>
      <trkpt lat="43.77571" lon="6.38135">
        <ele>1016</ele>
        <time>2018-05-29T09:34:41Z</time>
      </trkpt>
      <trkpt lat="43.7757" lon="6.38133">
        <ele>1016</ele>
        <time>2018-05-29T09:34:42Z</time>
      </trkpt>
      <trkpt lat="43.7757" lon="6.38132">
        <ele>1016</ele>
        <time>2018-05-29T09:34:43Z</time>
      </trkpt>
      <trkpt lat="43.77569" lon="6.3813">
        <ele>1016</ele>
        <time>2018-05-29T09:34:44Z</time>
      </trkpt>
      <trkpt lat="43.77568" lon="6.38129">
        <ele>1016</ele>
        <time>2018-05-29T09:34:45Z</time>
      </trkpt>
      <trkpt lat="43.77568" lon="6.38127">
        <ele>1017</ele>
        <time>2018-05-29T09:34:46Z</time>
      </trkpt>
      <trkpt lat="43.77567" lon="6.38126">
        <ele>1017</ele>
        <time>2018-05-29T09:34:47Z</time>
      </trkpt>
      <trkpt lat="43.77566" lon="6.38124">
        <ele>1017</ele>
        <time>2018-05-29T09:34:48Z</time>
      </trkpt>
      <trkpt lat="43.77566" lon="6.38123">
        <ele>1017</ele>
        <time>2018-05-29T09:34:49Z</time>
      </trkpt>
      <trkpt lat="43.77565" lon="6.38121">
        <ele>1017</ele>
        <time>2018-05-29T09:34:50Z</time>
      </trkpt>
      <trkpt lat="43.77565" lon="6.3812">
        <ele>1018</ele>
        <time>2018-05-29T09:34:51Z</time>
      </trkpt>
      <trkpt lat="43.77563" lon="6.38113">
        <ele>1018</ele>
        <time>2018-05-29T09:34:56Z</time>
      </trkpt>
      <trkpt lat="43.77562" lon="6.38111">
        <ele>1019</ele>
        <time>2018-05-29T09:34:57Z</time>
      </trkpt>
      <trkpt lat="43.77562" lon="6.3811">
        <ele>1019</ele>
        <time>2018-05-29T09:34:58Z</time>
      </trkpt>
      <trkpt lat="43.77561" lon="6.38109">
        <ele>1019</ele>
        <time>2018-05-29T09:34:59Z</time>
      </trkpt>
      <trkpt lat="43.7756" lon="6.38107">
        <ele>1019</ele>
        <time>2018-05-29T09:35:00Z</time>
      </trkpt>
      <trkpt lat="43.7756" lon="6.38105">
        <ele>1019</ele>
        <time>2018-05-29T09:35:01Z</time>
      </trkpt>
      <trkpt lat="43.77559" lon="6.38103">
        <ele>1020</ele>
        <time>2018-05-29T09:35:02Z</time>
      </trkpt>
      <trkpt lat="43.77559" lon="6.38102">
        <ele>1020</ele>
        <time>2018-05-29T09:35:03Z</time>
      </trkpt>
      <trkpt lat="43.77558" lon="6.381">
        <ele>1020</ele>
        <time>2018-05-29T09:35:04Z</time>
      </trkpt>
      <trkpt lat="43.77558" lon="6.38098">
        <ele>1020</ele>
        <time>2018-05-29T09:35:05Z</time>
      </trkpt>
      <trkpt lat="43.77558" lon="6.38096">
        <ele>1020</ele>
        <time>2018-05-29T09:35:06Z</time>
      </trkpt>
      <trkpt lat="43.77557" lon="6.38095">
        <ele>1020</ele>
        <time>2018-05-29T09:35:07Z</time>
      </trkpt>
      <trkpt lat="43.77557" lon="6.38093">
        <ele>1020</ele>
        <time>2018-05-29T09:35:08Z</time>
      </trkpt>
      <trkpt lat="43.77556" lon="6.38091">
        <ele>1021</ele>
        <time>2018-05-29T09:35:09Z</time>
      </trkpt>
      <trkpt lat="43.77556" lon="6.38089">
        <ele>1021</ele>
        <time>2018-05-29T09:35:10Z</time>
      </trkpt>
      <trkpt lat="43.77556" lon="6.38087">
        <ele>1021</ele>
        <time>2018-05-29T09:35:11Z</time>
      </trkpt>
      <trkpt lat="43.77553" lon="6.38056">
        <ele>1021</ele>
        <time>2018-05-29T09:35:28Z</time>
      </trkpt>
      <trkpt lat="43.7755" lon="6.38026">
        <ele>1022</ele>
        <time>2018-05-29T09:35:44Z</time>
      </trkpt>
      <trkpt lat="43.77539" lon="6.38013">
        <ele>1025</ele>
        <time>2018-05-29T09:35:54Z</time>
      </trkpt>
      <trkpt lat="43.77537" lon="6.38013">
        <ele>1025</ele>
        <time>2018-05-29T09:35:55Z</time>
      </trkpt>
      <trkpt lat="43.7752" lon="6.38035">
        <ele>1029</ele>
        <time>2018-05-29T09:36:10Z</time>
      </trkpt>
      <trkpt lat="43.7752" lon="6.38068">
        <ele>1028</ele>
        <time>2018-05-29T09:36:25Z</time>
      </trkpt>
      <trkpt lat="43.77519" lon="6.38099">
        <ele>1030</ele>
        <time>2018-05-29T09:36:39Z</time>
      </trkpt>
      <trkpt lat="43.77517" lon="6.38132">
        <ele>1033</ele>
        <time>2018-05-29T09:36:55Z</time>
      </trkpt>
      <trkpt lat="43.77514" lon="6.38156">
        <ele>1034</ele>
        <time>2018-05-29T09:37:06Z</time>
      </trkpt>
      <trkpt lat="43.77514" lon="6.38158">
        <ele>1034</ele>
        <time>2018-05-29T09:37:07Z</time>
      </trkpt>
      <trkpt lat="43.77513" lon="6.3816">
        <ele>1035</ele>
        <time>2018-05-29T09:37:08Z</time>
      </trkpt>
      <trkpt lat="43.77513" lon="6.38161">
        <ele>1035</ele>
        <time>2018-05-29T09:37:09Z</time>
      </trkpt>
      <trkpt lat="43.77513" lon="6.38163">
        <ele>1035</ele>
        <time>2018-05-29T09:37:10Z</time>
      </trkpt>
      <trkpt lat="43.77512" lon="6.38165">
        <ele>1035</ele>
        <time>2018-05-29T09:37:11Z</time>
      </trkpt>
      <trkpt lat="43.77512" lon="6.38167">
        <ele>1035</ele>
        <time>2018-05-29T09:37:12Z</time>
      </trkpt>
      <trkpt lat="43.77511" lon="6.38184">
        <ele>1036</ele>
        <time>2018-05-29T09:37:21Z</time>
      </trkpt>
      <trkpt lat="43.7751" lon="6.38186">
        <ele>1036</ele>
        <time>2018-05-29T09:37:22Z</time>
      </trkpt>
      <trkpt lat="43.7751" lon="6.38188">
        <ele>1036</ele>
        <time>2018-05-29T09:37:23Z</time>
      </trkpt>
      <trkpt lat="43.7751" lon="6.3819">
        <ele>1036</ele>
        <time>2018-05-29T09:37:24Z</time>
      </trkpt>
      <trkpt lat="43.77509" lon="6.38193">
        <ele>1036</ele>
        <time>2018-05-29T09:37:25Z</time>
      </trkpt>
      <trkpt lat="43.77509" lon="6.38195">
        <ele>1037</ele>
        <time>2018-05-29T09:37:26Z</time>
      </trkpt>
      <trkpt lat="43.77508" lon="6.3821">
        <ele>1038</ele>
        <time>2018-05-29T09:37:34Z</time>
      </trkpt>
      <trkpt lat="43.77508" lon="6.38212">
        <ele>1039</ele>
        <time>2018-05-29T09:37:35Z</time>
      </trkpt>
      <trkpt lat="43.77508" lon="6.38214">
        <ele>1039</ele>
        <time>2018-05-29T09:37:36Z</time>
      </trkpt>
      <trkpt lat="43.77508" lon="6.38216">
        <ele>1039</ele>
        <time>2018-05-29T09:37:37Z</time>
      </trkpt>
      <trkpt lat="43.77508" lon="6.38218">
        <ele>1039</ele>
        <time>2018-05-29T09:37:38Z</time>
      </trkpt>
      <trkpt lat="43.77507" lon="6.3822">
        <ele>1040</ele>
        <time>2018-05-29T09:37:39Z</time>
      </trkpt>
      <trkpt lat="43.77507" lon="6.38222">
        <ele>1040</ele>
        <time>2018-05-29T09:37:40Z</time>
      </trkpt>
      <trkpt lat="43.77507" lon="6.38225">
        <ele>1040</ele>
        <time>2018-05-29T09:37:41Z</time>
      </trkpt>
      <trkpt lat="43.77506" lon="6.38231">
        <ele>1041</ele>
        <time>2018-05-29T09:37:44Z</time>
      </trkpt>
      <trkpt lat="43.77506" lon="6.38233">
        <ele>1041</ele>
        <time>2018-05-29T09:37:45Z</time>
      </trkpt>
      <trkpt lat="43.77506" lon="6.38234">
        <ele>1041</ele>
        <time>2018-05-29T09:37:46Z</time>
      </trkpt>
      <trkpt lat="43.77506" lon="6.38236">
        <ele>1042</ele>
        <time>2018-05-29T09:37:47Z</time>
      </trkpt>
      <trkpt lat="43.77506" lon="6.38238">
        <ele>1042</ele>
        <time>2018-05-29T09:37:48Z</time>
      </trkpt>
      <trkpt lat="43.77507" lon="6.3824">
        <ele>1042</ele>
        <time>2018-05-29T09:37:49Z</time>
      </trkpt>
      <trkpt lat="43.77507" lon="6.38241">
        <ele>1042</ele>
        <time>2018-05-29T09:37:50Z</time>
      </trkpt>
      <trkpt lat="43.77507" lon="6.38243">
        <ele>1042</ele>
        <time>2018-05-29T09:37:51Z</time>
      </trkpt>
      <trkpt lat="43.77507" lon="6.38245">
        <ele>1042</ele>
        <time>2018-05-29T09:37:52Z</time>
      </trkpt>
      <trkpt lat="43.77507" lon="6.38247">
        <ele>1042</ele>
        <time>2018-05-29T09:37:53Z</time>
      </trkpt>
      <trkpt lat="43.77508" lon="6.38248">
        <ele>1042</ele>
        <time>2018-05-29T09:37:54Z</time>
      </trkpt>
      <trkpt lat="43.77508" lon="6.3825">
        <ele>1043</ele>
        <time>2018-05-29T09:37:55Z</time>
      </trkpt>
      <trkpt lat="43.77508" lon="6.38252">
        <ele>1043</ele>
        <time>2018-05-29T09:37:56Z</time>
      </trkpt>
      <trkpt lat="43.77508" lon="6.38254">
        <ele>1043</ele>
        <time>2018-05-29T09:37:57Z</time>
      </trkpt>
      <trkpt lat="43.77508" lon="6.38256">
        <ele>1043</ele>
        <time>2018-05-29T09:37:58Z</time>
      </trkpt>
      <trkpt lat="43.77508" lon="6.38258">
        <ele>1044</ele>
        <time>2018-05-29T09:37:59Z</time>
      </trkpt>
      <trkpt lat="43.77508" lon="6.3826">
        <ele>1044</ele>
        <time>2018-05-29T09:38:00Z</time>
      </trkpt>
      <trkpt lat="43.77508" lon="6.38262">
        <ele>1044</ele>
        <time>2018-05-29T09:38:01Z</time>
      </trkpt>
      <trkpt lat="43.77508" lon="6.38265">
        <ele>1044</ele>
        <time>2018-05-29T09:38:02Z</time>
      </trkpt>
      <trkpt lat="43.77513" lon="6.38291">
        <ele>1047</ele>
        <time>2018-05-29T09:38:16Z</time>
      </trkpt>
      <trkpt lat="43.77515" lon="6.383">
        <ele>1048</ele>
        <time>2018-05-29T09:38:21Z</time>
      </trkpt>
      <trkpt lat="43.77516" lon="6.38302">
        <ele>1048</ele>
        <time>2018-05-29T09:38:22Z</time>
      </trkpt>
      <trkpt lat="43.77525" lon="6.3833">
        <ele>1046</ele>
        <time>2018-05-29T09:38:37Z</time>
      </trkpt>
      <trkpt lat="43.77536" lon="6.3836">
        <ele>1043</ele>
        <time>2018-05-29T09:38:53Z</time>
      </trkpt>
      <trkpt lat="43.77542" lon="6.38384">
        <ele>1045</ele>
        <time>2018-05-29T09:39:05Z</time>
      </trkpt>
      <trkpt lat="43.77541" lon="6.38386">
        <ele>1044</ele>
        <time>2018-05-29T09:39:06Z</time>
      </trkpt>
      <trkpt lat="43.77541" lon="6.38388">
        <ele>1044</ele>
        <time>2018-05-29T09:39:07Z</time>
      </trkpt>
      <trkpt lat="43.7754" lon="6.3839">
        <ele>1043</ele>
        <time>2018-05-29T09:39:08Z</time>
      </trkpt>
      <trkpt lat="43.7754" lon="6.38392">
        <ele>1042</ele>
        <time>2018-05-29T09:39:09Z</time>
      </trkpt>
      <trkpt lat="43.77539" lon="6.38394">
        <ele>1040</ele>
        <time>2018-05-29T09:39:10Z</time>
      </trkpt>
      <trkpt lat="43.77537" lon="6.38396">
        <ele>1038</ele>
        <time>2018-05-29T09:39:11Z</time>
      </trkpt>
      <trkpt lat="43.77536" lon="6.38397">
        <ele>1036</ele>
        <time>2018-05-29T09:39:12Z</time>
      </trkpt>
      <trkpt lat="43.77534" lon="6.38397">
        <ele>1034</ele>
        <time>2018-05-29T09:39:13Z</time>
      </trkpt>
      <trkpt lat="43.77532" lon="6.38397">
        <ele>1032</ele>
        <time>2018-05-29T09:39:14Z</time>
      </trkpt>
      <trkpt lat="43.7753" lon="6.38396">
        <ele>1030</ele>
        <time>2018-05-29T09:39:15Z</time>
      </trkpt>
      <trkpt lat="43.77529" lon="6.38395">
        <ele>1029</ele>
        <time>2018-05-29T09:39:16Z</time>
      </trkpt>
      <trkpt lat="43.77525" lon="6.38392">
        <ele>1026</ele>
        <time>2018-05-29T09:39:19Z</time>
      </trkpt>
      <trkpt lat="43.77523" lon="6.3839">
        <ele>1026</ele>
        <time>2018-05-29T09:39:20Z</time>
      </trkpt>
      <trkpt lat="43.77521" lon="6.38388">
        <ele>1027</ele>
        <time>2018-05-29T09:39:22Z</time>
      </trkpt>
      <trkpt lat="43.7752" lon="6.38387">
        <ele>1027</ele>
        <time>2018-05-29T09:39:35Z</time>
      </trkpt>
      <trkpt lat="43.77519" lon="6.38386">
        <ele>1026</ele>
        <time>2018-05-29T09:40:11Z</time>
      </trkpt>
      <trkpt lat="43.7752" lon="6.38386">
        <ele>1027</ele>
        <time>2018-05-29T09:40:35Z</time>
      </trkpt>
      <trkpt lat="43.7752" lon="6.38387">
        <ele>1026</ele>
        <time>2018-05-29T09:41:03Z</time>
      </trkpt>
      <trkpt lat="43.77519" lon="6.38388">
        <ele>1025</ele>
        <time>2018-05-29T09:41:28Z</time>
      </trkpt>
      <trkpt lat="43.7752" lon="6.38387">
        <ele>1026</ele>
        <time>2018-05-29T09:41:54Z</time>
      </trkpt>
      <trkpt lat="43.7752" lon="6.38388">
        <ele>1025</ele>
        <time>2018-05-29T09:42:27Z</time>
      </trkpt>
      <trkpt lat="43.77519" lon="6.38387">
        <ele>1026</ele>
        <time>2018-05-29T09:42:52Z</time>
      </trkpt>
      <trkpt lat="43.77519" lon="6.38388">
        <ele>1025</ele>
        <time>2018-05-29T09:43:21Z</time>
      </trkpt>
      <trkpt lat="43.77519" lon="6.38387">
        <ele>1025</ele>
        <time>2018-05-29T09:43:57Z</time>
      </trkpt>
      <trkpt lat="43.77519" lon="6.38386">
        <ele>1026</ele>
        <time>2018-05-29T09:44:28Z</time>
      </trkpt>
      <trkpt lat="43.77519" lon="6.38388">
        <ele>1024</ele>
        <time>2018-05-29T09:44:56Z</time>
      </trkpt>
      <trkpt lat="43.7752" lon="6.38386">
        <ele>1027</ele>
        <time>2018-05-29T09:45:07Z</time>
      </trkpt>
      <trkpt lat="43.7752" lon="6.38384">
        <ele>1029</ele>
        <time>2018-05-29T09:45:08Z</time>
      </trkpt>
      <trkpt lat="43.77521" lon="6.38381">
        <ele>1033</ele>
        <time>2018-05-29T09:45:14Z</time>
      </trkpt>
      <trkpt lat="43.77521" lon="6.38376">
        <ele>1034</ele>
        <time>2018-05-29T09:45:17Z</time>
      </trkpt>
      <trkpt lat="43.7752" lon="6.38375">
        <ele>1034</ele>
        <time>2018-05-29T09:45:18Z</time>
      </trkpt>
      <trkpt lat="43.77504" lon="6.38348">
        <ele>1037</ele>
        <time>2018-05-29T09:45:32Z</time>
      </trkpt>
      <trkpt lat="43.77482" lon="6.38326">
        <ele>1034</ele>
        <time>2018-05-29T09:45:45Z</time>
      </trkpt>
      <trkpt lat="43.77458" lon="6.38288">
        <ele>1039</ele>
        <time>2018-05-29T09:46:00Z</time>
      </trkpt>
      <trkpt lat="43.77444" lon="6.38235">
        <ele>1059</ele>
        <time>2018-05-29T09:46:16Z</time>
      </trkpt>
      <trkpt lat="43.77435" lon="6.38189">
        <ele>1059</ele>
        <time>2018-05-29T09:46:31Z</time>
      </trkpt>
      <trkpt lat="43.77426" lon="6.38144">
        <ele>1061</ele>
        <time>2018-05-29T09:46:46Z</time>
      </trkpt>
      <trkpt lat="43.7742" lon="6.38112">
        <ele>1063</ele>
        <time>2018-05-29T09:47:00Z</time>
      </trkpt>
      <trkpt lat="43.77412" lon="6.38075">
        <ele>1065</ele>
        <time>2018-05-29T09:47:17Z</time>
      </trkpt>
      <trkpt lat="43.77407" lon="6.38059">
        <ele>1066</ele>
        <time>2018-05-29T09:47:25Z</time>
      </trkpt>
      <trkpt lat="43.77407" lon="6.38057">
        <ele>1066</ele>
        <time>2018-05-29T09:47:26Z</time>
      </trkpt>
      <trkpt lat="43.77406" lon="6.38055">
        <ele>1066</ele>
        <time>2018-05-29T09:47:27Z</time>
      </trkpt>
      <trkpt lat="43.77394" lon="6.38025">
        <ele>1069</ele>
        <time>2018-05-29T09:47:44Z</time>
      </trkpt>
      <trkpt lat="43.77393" lon="6.38024">
        <ele>1070</ele>
        <time>2018-05-29T09:47:45Z</time>
      </trkpt>
      <trkpt lat="43.77392" lon="6.38023">
        <ele>1070</ele>
        <time>2018-05-29T09:47:46Z</time>
      </trkpt>
      <trkpt lat="43.77392" lon="6.38022">
        <ele>1070</ele>
        <time>2018-05-29T09:47:47Z</time>
      </trkpt>
      <trkpt lat="43.7739" lon="6.38019">
        <ele>1070</ele>
        <time>2018-05-29T09:47:49Z</time>
      </trkpt>
      <trkpt lat="43.77382" lon="6.38004">
        <ele>1073</ele>
        <time>2018-05-29T09:47:59Z</time>
      </trkpt>
      <trkpt lat="43.77375" lon="6.37991">
        <ele>1074</ele>
        <time>2018-05-29T09:48:08Z</time>
      </trkpt>
      <trkpt lat="43.77374" lon="6.3799">
        <ele>1074</ele>
        <time>2018-05-29T09:48:09Z</time>
      </trkpt>
      <trkpt lat="43.77373" lon="6.37988">
        <ele>1074</ele>
        <time>2018-05-29T09:48:10Z</time>
      </trkpt>
      <trkpt lat="43.77373" lon="6.37986">
        <ele>1075</ele>
        <time>2018-05-29T09:48:11Z</time>
      </trkpt>
      <trkpt lat="43.77372" lon="6.37985">
        <ele>1075</ele>
        <time>2018-05-29T09:48:12Z</time>
      </trkpt>
      <trkpt lat="43.77371" lon="6.37983">
        <ele>1075</ele>
        <time>2018-05-29T09:48:13Z</time>
      </trkpt>
      <trkpt lat="43.77371" lon="6.37982">
        <ele>1075</ele>
        <time>2018-05-29T09:48:14Z</time>
      </trkpt>
      <trkpt lat="43.7737" lon="6.37981">
        <ele>1075</ele>
        <time>2018-05-29T09:48:15Z</time>
      </trkpt>
      <trkpt lat="43.77359" lon="6.37961">
        <ele>1077</ele>
        <time>2018-05-29T09:48:29Z</time>
      </trkpt>
      <trkpt lat="43.77347" lon="6.37939">
        <ele>1079</ele>
        <time>2018-05-29T09:48:45Z</time>
      </trkpt>
      <trkpt lat="43.77332" lon="6.37912">
        <ele>1081</ele>
        <time>2018-05-29T09:49:03Z</time>
      </trkpt>
      <trkpt lat="43.77325" lon="6.37899">
        <ele>1082</ele>
        <time>2018-05-29T09:49:12Z</time>
      </trkpt>
      <trkpt lat="43.77325" lon="6.37897">
        <ele>1083</ele>
        <time>2018-05-29T09:49:13Z</time>
      </trkpt>
      <trkpt lat="43.77324" lon="6.37896">
        <ele>1083</ele>
        <time>2018-05-29T09:49:14Z</time>
      </trkpt>
      <trkpt lat="43.77309" lon="6.37869">
        <ele>1085</ele>
        <time>2018-05-29T09:49:30Z</time>
      </trkpt>
      <trkpt lat="43.77294" lon="6.37846">
        <ele>1088</ele>
        <time>2018-05-29T09:49:45Z</time>
      </trkpt>
      <trkpt lat="43.77293" lon="6.37844">
        <ele>1088</ele>
        <time>2018-05-29T09:49:46Z</time>
      </trkpt>
      <trkpt lat="43.77293" lon="6.37842">
        <ele>1088</ele>
        <time>2018-05-29T09:49:47Z</time>
      </trkpt>
      <trkpt lat="43.77278" lon="6.37812">
        <ele>1090</ele>
        <time>2018-05-29T09:50:05Z</time>
      </trkpt>
      <trkpt lat="43.77265" lon="6.37787">
        <ele>1091</ele>
        <time>2018-05-29T09:50:19Z</time>
      </trkpt>
      <trkpt lat="43.77261" lon="6.37784">
        <ele>1092</ele>
        <time>2018-05-29T09:50:22Z</time>
      </trkpt>
      <trkpt lat="43.7726" lon="6.37782">
        <ele>1092</ele>
        <time>2018-05-29T09:50:23Z</time>
      </trkpt>
      <trkpt lat="43.77259" lon="6.37781">
        <ele>1092</ele>
        <time>2018-05-29T09:50:24Z</time>
      </trkpt>
      <trkpt lat="43.77259" lon="6.37779">
        <ele>1093</ele>
        <time>2018-05-29T09:50:25Z</time>
      </trkpt>
      <trkpt lat="43.77258" lon="6.37777">
        <ele>1093</ele>
        <time>2018-05-29T09:50:26Z</time>
      </trkpt>
      <trkpt lat="43.77243" lon="6.37752">
        <ele>1094</ele>
        <time>2018-05-29T09:50:41Z</time>
      </trkpt>
      <trkpt lat="43.77223" lon="6.37724">
        <ele>1096</ele>
        <time>2018-05-29T09:50:59Z</time>
      </trkpt>
      <trkpt lat="43.7721" lon="6.37707">
        <ele>1096</ele>
        <time>2018-05-29T09:51:10Z</time>
      </trkpt>
      <trkpt lat="43.77209" lon="6.37705">
        <ele>1096</ele>
        <time>2018-05-29T09:51:11Z</time>
      </trkpt>
      <trkpt lat="43.77208" lon="6.37704">
        <ele>1096</ele>
        <time>2018-05-29T09:51:12Z</time>
      </trkpt>
      <trkpt lat="43.77189" lon="6.3768">
        <ele>1098</ele>
        <time>2018-05-29T09:51:27Z</time>
      </trkpt>
      <trkpt lat="43.77172" lon="6.37657">
        <ele>1102</ele>
        <time>2018-05-29T09:51:40Z</time>
      </trkpt>
      <trkpt lat="43.7715" lon="6.37629">
        <ele>1102</ele>
        <time>2018-05-29T09:51:57Z</time>
      </trkpt>
      <trkpt lat="43.77129" lon="6.376">
        <ele>1104</ele>
        <time>2018-05-29T09:52:14Z</time>
      </trkpt>
      <trkpt lat="43.77111" lon="6.37569">
        <ele>1106</ele>
        <time>2018-05-29T09:52:31Z</time>
      </trkpt>
      <trkpt lat="43.77098" lon="6.37543">
        <ele>1106</ele>
        <time>2018-05-29T09:52:45Z</time>
      </trkpt>
      <trkpt lat="43.77089" lon="6.37526">
        <ele>1107</ele>
        <time>2018-05-29T09:52:56Z</time>
      </trkpt>
      <trkpt lat="43.77088" lon="6.37524">
        <ele>1108</ele>
        <time>2018-05-29T09:52:57Z</time>
      </trkpt>
      <trkpt lat="43.77088" lon="6.37523">
        <ele>1108</ele>
        <time>2018-05-29T09:52:58Z</time>
      </trkpt>
      <trkpt lat="43.77087" lon="6.37521">
        <ele>1108</ele>
        <time>2018-05-29T09:52:59Z</time>
      </trkpt>
      <trkpt lat="43.77086" lon="6.37519">
        <ele>1108</ele>
        <time>2018-05-29T09:53:00Z</time>
      </trkpt>
      <trkpt lat="43.77086" lon="6.37518">
        <ele>1108</ele>
        <time>2018-05-29T09:53:01Z</time>
      </trkpt>
      <trkpt lat="43.77085" lon="6.37516">
        <ele>1108</ele>
        <time>2018-05-29T09:53:02Z</time>
      </trkpt>
      <trkpt lat="43.7707" lon="6.3749">
        <ele>1111</ele>
        <time>2018-05-29T09:53:19Z</time>
      </trkpt>
      <trkpt lat="43.77057" lon="6.37468">
        <ele>1113</ele>
        <time>2018-05-29T09:53:34Z</time>
      </trkpt>
      <trkpt lat="43.77044" lon="6.37446">
        <ele>1116</ele>
        <time>2018-05-29T09:53:50Z</time>
      </trkpt>
      <trkpt lat="43.77038" lon="6.37438">
        <ele>1116</ele>
        <time>2018-05-29T09:53:55Z</time>
      </trkpt>
      <trkpt lat="43.77038" lon="6.37437">
        <ele>1117</ele>
        <time>2018-05-29T09:53:56Z</time>
      </trkpt>
      <trkpt lat="43.77037" lon="6.37435">
        <ele>1117</ele>
        <time>2018-05-29T09:53:57Z</time>
      </trkpt>
      <trkpt lat="43.77036" lon="6.37433">
        <ele>1117</ele>
        <time>2018-05-29T09:53:58Z</time>
      </trkpt>
      <trkpt lat="43.77035" lon="6.37432">
        <ele>1117</ele>
        <time>2018-05-29T09:53:59Z</time>
      </trkpt>
      <trkpt lat="43.77034" lon="6.3743">
        <ele>1117</ele>
        <time>2018-05-29T09:54:00Z</time>
      </trkpt>
      <trkpt lat="43.77034" lon="6.37429">
        <ele>1117</ele>
        <time>2018-05-29T09:54:01Z</time>
      </trkpt>
      <trkpt lat="43.77033" lon="6.37427">
        <ele>1117</ele>
        <time>2018-05-29T09:54:02Z</time>
      </trkpt>
      <trkpt lat="43.77032" lon="6.37426">
        <ele>1118</ele>
        <time>2018-05-29T09:54:03Z</time>
      </trkpt>
      <trkpt lat="43.7703" lon="6.37425">
        <ele>1118</ele>
        <time>2018-05-29T09:54:04Z</time>
      </trkpt>
      <trkpt lat="43.77029" lon="6.37424">
        <ele>1118</ele>
        <time>2018-05-29T09:54:05Z</time>
      </trkpt>
      <trkpt lat="43.77028" lon="6.37423">
        <ele>1119</ele>
        <time>2018-05-29T09:54:06Z</time>
      </trkpt>
      <trkpt lat="43.77026" lon="6.37423">
        <ele>1119</ele>
        <time>2018-05-29T09:54:07Z</time>
      </trkpt>
      <trkpt lat="43.77025" lon="6.37421">
        <ele>1119</ele>
        <time>2018-05-29T09:54:08Z</time>
      </trkpt>
      <trkpt lat="43.77025" lon="6.3742">
        <ele>1120</ele>
        <time>2018-05-29T09:54:09Z</time>
      </trkpt>
      <trkpt lat="43.77024" lon="6.37418">
        <ele>1120</ele>
        <time>2018-05-29T09:54:10Z</time>
      </trkpt>
      <trkpt lat="43.77023" lon="6.37416">
        <ele>1120</ele>
        <time>2018-05-29T09:54:11Z</time>
      </trkpt>
      <trkpt lat="43.77022" lon="6.37415">
        <ele>1120</ele>
        <time>2018-05-29T09:54:12Z</time>
      </trkpt>
      <trkpt lat="43.77022" lon="6.37414">
        <ele>1120</ele>
        <time>2018-05-29T09:54:13Z</time>
      </trkpt>
      <trkpt lat="43.77021" lon="6.37412">
        <ele>1120</ele>
        <time>2018-05-29T09:54:14Z</time>
      </trkpt>
      <trkpt lat="43.7702" lon="6.37411">
        <ele>1120</ele>
        <time>2018-05-29T09:54:15Z</time>
      </trkpt>
      <trkpt lat="43.77019" lon="6.3741">
        <ele>1121</ele>
        <time>2018-05-29T09:54:16Z</time>
      </trkpt>
      <trkpt lat="43.77018" lon="6.37409">
        <ele>1121</ele>
        <time>2018-05-29T09:54:17Z</time>
      </trkpt>
      <trkpt lat="43.77017" lon="6.37407">
        <ele>1121</ele>
        <time>2018-05-29T09:54:18Z</time>
      </trkpt>
      <trkpt lat="43.77016" lon="6.37406">
        <ele>1122</ele>
        <time>2018-05-29T09:54:19Z</time>
      </trkpt>
      <trkpt lat="43.77016" lon="6.37405">
        <ele>1122</ele>
        <time>2018-05-29T09:54:20Z</time>
      </trkpt>
      <trkpt lat="43.77015" lon="6.37403">
        <ele>1122</ele>
        <time>2018-05-29T09:54:21Z</time>
      </trkpt>
      <trkpt lat="43.77014" lon="6.37402">
        <ele>1122</ele>
        <time>2018-05-29T09:54:22Z</time>
      </trkpt>
      <trkpt lat="43.77012" lon="6.37401">
        <ele>1122</ele>
        <time>2018-05-29T09:54:23Z</time>
      </trkpt>
      <trkpt lat="43.77011" lon="6.37399">
        <ele>1123</ele>
        <time>2018-05-29T09:54:24Z</time>
      </trkpt>
      <trkpt lat="43.7701" lon="6.37397">
        <ele>1123</ele>
        <time>2018-05-29T09:54:25Z</time>
      </trkpt>
      <trkpt lat="43.7701" lon="6.37394">
        <ele>1123</ele>
        <time>2018-05-29T09:54:26Z</time>
      </trkpt>
      <trkpt lat="43.7701" lon="6.37393">
        <ele>1123</ele>
        <time>2018-05-29T09:54:27Z</time>
      </trkpt>
      <trkpt lat="43.7701" lon="6.37391">
        <ele>1123</ele>
        <time>2018-05-29T09:54:28Z</time>
      </trkpt>
      <trkpt lat="43.77009" lon="6.3739">
        <ele>1123</ele>
        <time>2018-05-29T09:54:29Z</time>
      </trkpt>
      <trkpt lat="43.77008" lon="6.37389">
        <ele>1123</ele>
        <time>2018-05-29T09:54:30Z</time>
      </trkpt>
      <trkpt lat="43.77007" lon="6.37388">
        <ele>1123</ele>
        <time>2018-05-29T09:54:31Z</time>
      </trkpt>
      <trkpt lat="43.77006" lon="6.37389">
        <ele>1124</ele>
        <time>2018-05-29T09:54:32Z</time>
      </trkpt>
      <trkpt lat="43.77005" lon="6.37389">
        <ele>1124</ele>
        <time>2018-05-29T09:54:33Z</time>
      </trkpt>
      <trkpt lat="43.77004" lon="6.37388">
        <ele>1124</ele>
        <time>2018-05-29T09:54:34Z</time>
      </trkpt>
      <trkpt lat="43.77003" lon="6.37386">
        <ele>1125</ele>
        <time>2018-05-29T09:54:35Z</time>
      </trkpt>
      <trkpt lat="43.77003" lon="6.37384">
        <ele>1125</ele>
        <time>2018-05-29T09:54:36Z</time>
      </trkpt>
      <trkpt lat="43.77003" lon="6.37383">
        <ele>1125</ele>
        <time>2018-05-29T09:54:37Z</time>
      </trkpt>
      <trkpt lat="43.77002" lon="6.37381">
        <ele>1125</ele>
        <time>2018-05-29T09:54:38Z</time>
      </trkpt>
      <trkpt lat="43.77002" lon="6.3738">
        <ele>1125</ele>
        <time>2018-05-29T09:54:39Z</time>
      </trkpt>
      <trkpt lat="43.77001" lon="6.37378">
        <ele>1124</ele>
        <time>2018-05-29T09:54:40Z</time>
      </trkpt>
      <trkpt lat="43.77" lon="6.37377">
        <ele>1124</ele>
        <time>2018-05-29T09:54:41Z</time>
      </trkpt>
      <trkpt lat="43.76987" lon="6.37357">
        <ele>1119</ele>
        <time>2018-05-29T09:54:56Z</time>
      </trkpt>
      <trkpt lat="43.76986" lon="6.37356">
        <ele>1119</ele>
        <time>2018-05-29T09:54:57Z</time>
      </trkpt>
      <trkpt lat="43.76985" lon="6.37355">
        <ele>1119</ele>
        <time>2018-05-29T09:54:58Z</time>
      </trkpt>
      <trkpt lat="43.76984" lon="6.37354">
        <ele>1119</ele>
        <time>2018-05-29T09:54:59Z</time>
      </trkpt>
      <trkpt lat="43.76983" lon="6.37352">
        <ele>1119</ele>
        <time>2018-05-29T09:55:00Z</time>
      </trkpt>
      <trkpt lat="43.76983" lon="6.37351">
        <ele>1120</ele>
        <time>2018-05-29T09:55:01Z</time>
      </trkpt>
      <trkpt lat="43.76981" lon="6.37349">
        <ele>1120</ele>
        <time>2018-05-29T09:55:03Z</time>
      </trkpt>
      <trkpt lat="43.7698" lon="6.37348">
        <ele>1120</ele>
        <time>2018-05-29T09:55:04Z</time>
      </trkpt>
      <trkpt lat="43.76979" lon="6.37347">
        <ele>1120</ele>
        <time>2018-05-29T09:55:05Z</time>
      </trkpt>
      <trkpt lat="43.76979" lon="6.37346">
        <ele>1120</ele>
        <time>2018-05-29T09:55:06Z</time>
      </trkpt>
      <trkpt lat="43.76979" lon="6.37344">
        <ele>1120</ele>
        <time>2018-05-29T09:55:07Z</time>
      </trkpt>
      <trkpt lat="43.76978" lon="6.37343">
        <ele>1120</ele>
        <time>2018-05-29T09:55:08Z</time>
      </trkpt>
      <trkpt lat="43.76978" lon="6.37341">
        <ele>1120</ele>
        <time>2018-05-29T09:55:09Z</time>
      </trkpt>
      <trkpt lat="43.76977" lon="6.3734">
        <ele>1120</ele>
        <time>2018-05-29T09:55:10Z</time>
      </trkpt>
      <trkpt lat="43.76976" lon="6.3734">
        <ele>1120</ele>
        <time>2018-05-29T09:55:11Z</time>
      </trkpt>
      <trkpt lat="43.76975" lon="6.37339">
        <ele>1120</ele>
        <time>2018-05-29T09:55:12Z</time>
      </trkpt>
      <trkpt lat="43.76974" lon="6.37337">
        <ele>1120</ele>
        <time>2018-05-29T09:55:13Z</time>
      </trkpt>
      <trkpt lat="43.76968" lon="6.37328">
        <ele>1120</ele>
        <time>2018-05-29T09:55:21Z</time>
      </trkpt>
      <trkpt lat="43.76967" lon="6.37327">
        <ele>1121</ele>
        <time>2018-05-29T09:55:22Z</time>
      </trkpt>
      <trkpt lat="43.76967" lon="6.37326">
        <ele>1121</ele>
        <time>2018-05-29T09:55:23Z</time>
      </trkpt>
      <trkpt lat="43.7696" lon="6.37316">
        <ele>1123</ele>
        <time>2018-05-29T09:55:32Z</time>
      </trkpt>
      <trkpt lat="43.7696" lon="6.37314">
        <ele>1123</ele>
        <time>2018-05-29T09:55:33Z</time>
      </trkpt>
      <trkpt lat="43.76952" lon="6.37302">
        <ele>1121</ele>
        <time>2018-05-29T09:55:44Z</time>
      </trkpt>
      <trkpt lat="43.76951" lon="6.37301">
        <ele>1120</ele>
        <time>2018-05-29T09:55:45Z</time>
      </trkpt>
      <trkpt lat="43.7695" lon="6.373">
        <ele>1120</ele>
        <time>2018-05-29T09:55:46Z</time>
      </trkpt>
      <trkpt lat="43.76949" lon="6.37298">
        <ele>1120</ele>
        <time>2018-05-29T09:55:47Z</time>
      </trkpt>
      <trkpt lat="43.76948" lon="6.37297">
        <ele>1120</ele>
        <time>2018-05-29T09:55:48Z</time>
      </trkpt>
      <trkpt lat="43.76948" lon="6.37296">
        <ele>1120</ele>
        <time>2018-05-29T09:55:49Z</time>
      </trkpt>
      <trkpt lat="43.76947" lon="6.37295">
        <ele>1120</ele>
        <time>2018-05-29T09:55:50Z</time>
      </trkpt>
      <trkpt lat="43.76946" lon="6.37294">
        <ele>1121</ele>
        <time>2018-05-29T09:55:51Z</time>
      </trkpt>
      <trkpt lat="43.76944" lon="6.3729">
        <ele>1122</ele>
        <time>2018-05-29T09:55:54Z</time>
      </trkpt>
      <trkpt lat="43.76943" lon="6.37288">
        <ele>1122</ele>
        <time>2018-05-29T09:55:55Z</time>
      </trkpt>
      <trkpt lat="43.76943" lon="6.37287">
        <ele>1123</ele>
        <time>2018-05-29T09:55:56Z</time>
      </trkpt>
      <trkpt lat="43.76942" lon="6.37285">
        <ele>1123</ele>
        <time>2018-05-29T09:55:57Z</time>
      </trkpt>
      <trkpt lat="43.76941" lon="6.37284">
        <ele>1124</ele>
        <time>2018-05-29T09:55:58Z</time>
      </trkpt>
      <trkpt lat="43.7694" lon="6.37283">
        <ele>1124</ele>
        <time>2018-05-29T09:55:59Z</time>
      </trkpt>
      <trkpt lat="43.76935" lon="6.37277">
        <ele>1123</ele>
        <time>2018-05-29T09:56:06Z</time>
      </trkpt>
      <trkpt lat="43.76926" lon="6.37264">
        <ele>1123</ele>
        <time>2018-05-29T09:56:19Z</time>
      </trkpt>
      <trkpt lat="43.76924" lon="6.37261">
        <ele>1124</ele>
        <time>2018-05-29T09:56:21Z</time>
      </trkpt>
      <trkpt lat="43.76921" lon="6.37259">
        <ele>1124</ele>
        <time>2018-05-29T09:56:24Z</time>
      </trkpt>
      <trkpt lat="43.7692" lon="6.37259">
        <ele>1124</ele>
        <time>2018-05-29T09:56:25Z</time>
      </trkpt>
      <trkpt lat="43.7692" lon="6.37258">
        <ele>1124</ele>
        <time>2018-05-29T09:56:26Z</time>
      </trkpt>
      <trkpt lat="43.76919" lon="6.37256">
        <ele>1124</ele>
        <time>2018-05-29T09:56:27Z</time>
      </trkpt>
      <trkpt lat="43.76918" lon="6.37255">
        <ele>1125</ele>
        <time>2018-05-29T09:56:28Z</time>
      </trkpt>
      <trkpt lat="43.76917" lon="6.37253">
        <ele>1125</ele>
        <time>2018-05-29T09:56:29Z</time>
      </trkpt>
      <trkpt lat="43.76916" lon="6.37252">
        <ele>1125</ele>
        <time>2018-05-29T09:56:30Z</time>
      </trkpt>
      <trkpt lat="43.76915" lon="6.3725">
        <ele>1125</ele>
        <time>2018-05-29T09:56:31Z</time>
      </trkpt>
      <trkpt lat="43.76914" lon="6.37249">
        <ele>1125</ele>
        <time>2018-05-29T09:56:32Z</time>
      </trkpt>
      <trkpt lat="43.76913" lon="6.37248">
        <ele>1126</ele>
        <time>2018-05-29T09:56:33Z</time>
      </trkpt>
      <trkpt lat="43.76912" lon="6.37246">
        <ele>1126</ele>
        <time>2018-05-29T09:56:34Z</time>
      </trkpt>
      <trkpt lat="43.76911" lon="6.37245">
        <ele>1126</ele>
        <time>2018-05-29T09:56:35Z</time>
      </trkpt>
      <trkpt lat="43.76909" lon="6.37244">
        <ele>1126</ele>
        <time>2018-05-29T09:56:36Z</time>
      </trkpt>
      <trkpt lat="43.76885" lon="6.37221">
        <ele>1137</ele>
        <time>2018-05-29T09:56:55Z</time>
      </trkpt>
      <trkpt lat="43.76861" lon="6.37199">
        <ele>1143</ele>
        <time>2018-05-29T09:57:13Z</time>
      </trkpt>
      <trkpt lat="43.76841" lon="6.3718">
        <ele>1146</ele>
        <time>2018-05-29T09:57:28Z</time>
      </trkpt>
      <trkpt lat="43.76816" lon="6.37158">
        <ele>1153</ele>
        <time>2018-05-29T09:57:47Z</time>
      </trkpt>
      <trkpt lat="43.7679" lon="6.37133">
        <ele>1157</ele>
        <time>2018-05-29T09:58:06Z</time>
      </trkpt>
      <trkpt lat="43.76768" lon="6.37114">
        <ele>1160</ele>
        <time>2018-05-29T09:58:22Z</time>
      </trkpt>
      <trkpt lat="43.76767" lon="6.37114">
        <ele>1161</ele>
        <time>2018-05-29T09:58:23Z</time>
      </trkpt>
      <trkpt lat="43.76766" lon="6.37113">
        <ele>1161</ele>
        <time>2018-05-29T09:58:24Z</time>
      </trkpt>
      <trkpt lat="43.76765" lon="6.37112">
        <ele>1161</ele>
        <time>2018-05-29T09:58:25Z</time>
      </trkpt>
      <trkpt lat="43.76764" lon="6.3711">
        <ele>1161</ele>
        <time>2018-05-29T09:58:26Z</time>
      </trkpt>
      <trkpt lat="43.76762" lon="6.37108">
        <ele>1161</ele>
        <time>2018-05-29T09:58:27Z</time>
      </trkpt>
      <trkpt lat="43.76761" lon="6.37107">
        <ele>1161</ele>
        <time>2018-05-29T09:58:28Z</time>
      </trkpt>
      <trkpt lat="43.76738" lon="6.3708">
        <ele>1165</ele>
        <time>2018-05-29T09:58:47Z</time>
      </trkpt>
      <trkpt lat="43.76721" lon="6.37054">
        <ele>1167</ele>
        <time>2018-05-29T09:59:01Z</time>
      </trkpt>
      <trkpt lat="43.76702" lon="6.37024">
        <ele>1170</ele>
        <time>2018-05-29T09:59:17Z</time>
      </trkpt>
      <trkpt lat="43.76687" lon="6.37004">
        <ele>1172</ele>
        <time>2018-05-29T09:59:31Z</time>
      </trkpt>
      <trkpt lat="43.76683" lon="6.36999">
        <ele>1173</ele>
        <time>2018-05-29T09:59:35Z</time>
      </trkpt>
      <trkpt lat="43.76676" lon="6.36988">
        <ele>1174</ele>
        <time>2018-05-29T09:59:43Z</time>
      </trkpt>
      <trkpt lat="43.76674" lon="6.36988">
        <ele>1175</ele>
        <time>2018-05-29T09:59:44Z</time>
      </trkpt>
      <trkpt lat="43.76673" lon="6.36988">
        <ele>1175</ele>
        <time>2018-05-29T09:59:45Z</time>
      </trkpt>
      <trkpt lat="43.76672" lon="6.36986">
        <ele>1175</ele>
        <time>2018-05-29T09:59:46Z</time>
      </trkpt>
      <trkpt lat="43.76672" lon="6.36985">
        <ele>1175</ele>
        <time>2018-05-29T09:59:47Z</time>
      </trkpt>
      <trkpt lat="43.76671" lon="6.36984">
        <ele>1175</ele>
        <time>2018-05-29T09:59:48Z</time>
      </trkpt>
      <trkpt lat="43.7667" lon="6.36983">
        <ele>1176</ele>
        <time>2018-05-29T09:59:49Z</time>
      </trkpt>
      <trkpt lat="43.76669" lon="6.36982">
        <ele>1176</ele>
        <time>2018-05-29T09:59:50Z</time>
      </trkpt>
      <trkpt lat="43.76668" lon="6.3698">
        <ele>1176</ele>
        <time>2018-05-29T09:59:51Z</time>
      </trkpt>
      <trkpt lat="43.76668" lon="6.36979">
        <ele>1176</ele>
        <time>2018-05-29T09:59:52Z</time>
      </trkpt>
      <trkpt lat="43.76667" lon="6.36978">
        <ele>1176</ele>
        <time>2018-05-29T09:59:53Z</time>
      </trkpt>
      <trkpt lat="43.76666" lon="6.36977">
        <ele>1176</ele>
        <time>2018-05-29T09:59:54Z</time>
      </trkpt>
      <trkpt lat="43.76665" lon="6.36976">
        <ele>1176</ele>
        <time>2018-05-29T09:59:55Z</time>
      </trkpt>
      <trkpt lat="43.76655" lon="6.36956">
        <ele>1178</ele>
        <time>2018-05-29T10:00:07Z</time>
      </trkpt>
      <trkpt lat="43.76654" lon="6.36955">
        <ele>1178</ele>
        <time>2018-05-29T10:00:08Z</time>
      </trkpt>
      <trkpt lat="43.76653" lon="6.36953">
        <ele>1178</ele>
        <time>2018-05-29T10:00:09Z</time>
      </trkpt>
      <trkpt lat="43.76641" lon="6.36945">
        <ele>1180</ele>
        <time>2018-05-29T10:00:17Z</time>
      </trkpt>
      <trkpt lat="43.76641" lon="6.36944">
        <ele>1180</ele>
        <time>2018-05-29T10:00:18Z</time>
      </trkpt>
      <trkpt lat="43.76641" lon="6.36942">
        <ele>1180</ele>
        <time>2018-05-29T10:00:19Z</time>
      </trkpt>
      <trkpt lat="43.7664" lon="6.3694">
        <ele>1180</ele>
        <time>2018-05-29T10:00:20Z</time>
      </trkpt>
      <trkpt lat="43.76639" lon="6.36939">
        <ele>1180</ele>
        <time>2018-05-29T10:00:21Z</time>
      </trkpt>
      <trkpt lat="43.76638" lon="6.36939">
        <ele>1180</ele>
        <time>2018-05-29T10:00:22Z</time>
      </trkpt>
      <trkpt lat="43.76637" lon="6.36939">
        <ele>1181</ele>
        <time>2018-05-29T10:00:23Z</time>
      </trkpt>
      <trkpt lat="43.76636" lon="6.3694">
        <ele>1181</ele>
        <time>2018-05-29T10:00:24Z</time>
      </trkpt>
      <trkpt lat="43.76634" lon="6.36939">
        <ele>1181</ele>
        <time>2018-05-29T10:00:26Z</time>
      </trkpt>
      <trkpt lat="43.76631" lon="6.36935">
        <ele>1182</ele>
        <time>2018-05-29T10:00:31Z</time>
      </trkpt>
      <trkpt lat="43.7663" lon="6.36934">
        <ele>1182</ele>
        <time>2018-05-29T10:00:32Z</time>
      </trkpt>
      <trkpt lat="43.76629" lon="6.36933">
        <ele>1182</ele>
        <time>2018-05-29T10:00:33Z</time>
      </trkpt>
      <trkpt lat="43.76629" lon="6.36933">
        <ele>1182</ele>
        <time>2018-05-29T10:00:34Z</time>
      </trkpt>
      <trkpt lat="43.76628" lon="6.36932">
        <ele>1182</ele>
        <time>2018-05-29T10:00:35Z</time>
      </trkpt>
      <trkpt lat="43.76627" lon="6.36931">
        <ele>1182</ele>
        <time>2018-05-29T10:00:36Z</time>
      </trkpt>
      <trkpt lat="43.76626" lon="6.36929">
        <ele>1182</ele>
        <time>2018-05-29T10:00:38Z</time>
      </trkpt>
      <trkpt lat="43.76625" lon="6.36928">
        <ele>1183</ele>
        <time>2018-05-29T10:00:39Z</time>
      </trkpt>
      <trkpt lat="43.76618" lon="6.36921">
        <ele>1183</ele>
        <time>2018-05-29T10:00:46Z</time>
      </trkpt>
      <trkpt lat="43.76605" lon="6.36906">
        <ele>1185</ele>
        <time>2018-05-29T10:01:01Z</time>
      </trkpt>
      <trkpt lat="43.76605" lon="6.36905">
        <ele>1185</ele>
        <time>2018-05-29T10:01:02Z</time>
      </trkpt>
      <trkpt lat="43.76603" lon="6.36905">
        <ele>1185</ele>
        <time>2018-05-29T10:01:03Z</time>
      </trkpt>
      <trkpt lat="43.76602" lon="6.36904">
        <ele>1186</ele>
        <time>2018-05-29T10:01:04Z</time>
      </trkpt>
      <trkpt lat="43.76601" lon="6.36903">
        <ele>1186</ele>
        <time>2018-05-29T10:01:05Z</time>
      </trkpt>
      <trkpt lat="43.76601" lon="6.36901">
        <ele>1186</ele>
        <time>2018-05-29T10:01:06Z</time>
      </trkpt>
      <trkpt lat="43.766" lon="6.369">
        <ele>1186</ele>
        <time>2018-05-29T10:01:07Z</time>
      </trkpt>
      <trkpt lat="43.76599" lon="6.36899">
        <ele>1186</ele>
        <time>2018-05-29T10:01:08Z</time>
      </trkpt>
      <trkpt lat="43.76598" lon="6.36898">
        <ele>1186</ele>
        <time>2018-05-29T10:01:09Z</time>
      </trkpt>
      <trkpt lat="43.76596" lon="6.36898">
        <ele>1187</ele>
        <time>2018-05-29T10:01:10Z</time>
      </trkpt>
      <trkpt lat="43.76595" lon="6.36897">
        <ele>1187</ele>
        <time>2018-05-29T10:01:11Z</time>
      </trkpt>
      <trkpt lat="43.76594" lon="6.36896">
        <ele>1187</ele>
        <time>2018-05-29T10:01:12Z</time>
      </trkpt>
      <trkpt lat="43.76594" lon="6.36895">
        <ele>1187</ele>
        <time>2018-05-29T10:01:13Z</time>
      </trkpt>
      <trkpt lat="43.76593" lon="6.36893">
        <ele>1187</ele>
        <time>2018-05-29T10:01:14Z</time>
      </trkpt>
      <trkpt lat="43.76582" lon="6.36882">
        <ele>1188</ele>
        <time>2018-05-29T10:01:27Z</time>
      </trkpt>
      <trkpt lat="43.76568" lon="6.36864">
        <ele>1190</ele>
        <time>2018-05-29T10:01:41Z</time>
      </trkpt>
      <trkpt lat="43.76566" lon="6.36865">
        <ele>1191</ele>
        <time>2018-05-29T10:01:43Z</time>
      </trkpt>
      <trkpt lat="43.76565" lon="6.36864">
        <ele>1191</ele>
        <time>2018-05-29T10:01:44Z</time>
      </trkpt>
      <trkpt lat="43.76558" lon="6.36854">
        <ele>1191</ele>
        <time>2018-05-29T10:01:54Z</time>
      </trkpt>
      <trkpt lat="43.76557" lon="6.36853">
        <ele>1192</ele>
        <time>2018-05-29T10:01:55Z</time>
      </trkpt>
      <trkpt lat="43.76556" lon="6.36853">
        <ele>1192</ele>
        <time>2018-05-29T10:01:56Z</time>
      </trkpt>
      <trkpt lat="43.76555" lon="6.36852">
        <ele>1192</ele>
        <time>2018-05-29T10:01:57Z</time>
      </trkpt>
      <trkpt lat="43.76554" lon="6.36851">
        <ele>1192</ele>
        <time>2018-05-29T10:01:58Z</time>
      </trkpt>
      <trkpt lat="43.76553" lon="6.3685">
        <ele>1192</ele>
        <time>2018-05-29T10:01:59Z</time>
      </trkpt>
      <trkpt lat="43.76553" lon="6.36848">
        <ele>1192</ele>
        <time>2018-05-29T10:02:00Z</time>
      </trkpt>
      <trkpt lat="43.76552" lon="6.36847">
        <ele>1192</ele>
        <time>2018-05-29T10:02:01Z</time>
      </trkpt>
      <trkpt lat="43.76551" lon="6.36845">
        <ele>1192</ele>
        <time>2018-05-29T10:02:02Z</time>
      </trkpt>
      <trkpt lat="43.7655" lon="6.36844">
        <ele>1192</ele>
        <time>2018-05-29T10:02:03Z</time>
      </trkpt>
      <trkpt lat="43.76549" lon="6.36843">
        <ele>1192</ele>
        <time>2018-05-29T10:02:04Z</time>
      </trkpt>
      <trkpt lat="43.76548" lon="6.36842">
        <ele>1193</ele>
        <time>2018-05-29T10:02:05Z</time>
      </trkpt>
      <trkpt lat="43.76548" lon="6.3684">
        <ele>1193</ele>
        <time>2018-05-29T10:02:06Z</time>
      </trkpt>
      <trkpt lat="43.76544" lon="6.36832">
        <ele>1193</ele>
        <time>2018-05-29T10:02:11Z</time>
      </trkpt>
      <trkpt lat="43.76544" lon="6.36831">
        <ele>1193</ele>
        <time>2018-05-29T10:02:12Z</time>
      </trkpt>
      <trkpt lat="43.76543" lon="6.3683">
        <ele>1193</ele>
        <time>2018-05-29T10:02:13Z</time>
      </trkpt>
      <trkpt lat="43.76543" lon="6.36829">
        <ele>1193</ele>
        <time>2018-05-29T10:02:14Z</time>
      </trkpt>
      <trkpt lat="43.76541" lon="6.36828">
        <ele>1193</ele>
        <time>2018-05-29T10:02:15Z</time>
      </trkpt>
      <trkpt lat="43.7654" lon="6.36829">
        <ele>1193</ele>
        <time>2018-05-29T10:02:16Z</time>
      </trkpt>
      <trkpt lat="43.76538" lon="6.36829">
        <ele>1194</ele>
        <time>2018-05-29T10:02:17Z</time>
      </trkpt>
      <trkpt lat="43.76537" lon="6.36828">
        <ele>1194</ele>
        <time>2018-05-29T10:02:18Z</time>
      </trkpt>
      <trkpt lat="43.76535" lon="6.36827">
        <ele>1195</ele>
        <time>2018-05-29T10:02:19Z</time>
      </trkpt>
      <trkpt lat="43.76533" lon="6.36826">
        <ele>1195</ele>
        <time>2018-05-29T10:02:20Z</time>
      </trkpt>
      <trkpt lat="43.76532" lon="6.36825">
        <ele>1195</ele>
        <time>2018-05-29T10:02:21Z</time>
      </trkpt>
      <trkpt lat="43.7653" lon="6.36825">
        <ele>1196</ele>
        <time>2018-05-29T10:02:22Z</time>
      </trkpt>
      <trkpt lat="43.76529" lon="6.36825">
        <ele>1196</ele>
        <time>2018-05-29T10:02:23Z</time>
      </trkpt>
      <trkpt lat="43.76527" lon="6.36826">
        <ele>1196</ele>
        <time>2018-05-29T10:02:24Z</time>
      </trkpt>
      <trkpt lat="43.76526" lon="6.36827">
        <ele>1197</ele>
        <time>2018-05-29T10:02:25Z</time>
      </trkpt>
      <trkpt lat="43.76521" lon="6.36858">
        <ele>1200</ele>
        <time>2018-05-29T10:02:39Z</time>
      </trkpt>
      <trkpt lat="43.76524" lon="6.36864">
        <ele>1200</ele>
        <time>2018-05-29T10:02:44Z</time>
      </trkpt>
      <trkpt lat="43.76524" lon="6.36866">
        <ele>1200</ele>
        <time>2018-05-29T10:02:45Z</time>
      </trkpt>
      <trkpt lat="43.76525" lon="6.36867">
        <ele>1200</ele>
        <time>2018-05-29T10:02:46Z</time>
      </trkpt>
      <trkpt lat="43.76526" lon="6.36869">
        <ele>1200</ele>
        <time>2018-05-29T10:02:47Z</time>
      </trkpt>
      <trkpt lat="43.76526" lon="6.3687">
        <ele>1200</ele>
        <time>2018-05-29T10:02:48Z</time>
      </trkpt>
      <trkpt lat="43.76527" lon="6.36872">
        <ele>1200</ele>
        <time>2018-05-29T10:02:49Z</time>
      </trkpt>
      <trkpt lat="43.76532" lon="6.36882">
        <ele>1199</ele>
        <time>2018-05-29T10:02:55Z</time>
      </trkpt>
      <trkpt lat="43.76533" lon="6.36885">
        <ele>1200</ele>
        <time>2018-05-29T10:02:57Z</time>
      </trkpt>
      <trkpt lat="43.76534" lon="6.36886">
        <ele>1200</ele>
        <time>2018-05-29T10:02:58Z</time>
      </trkpt>
      <trkpt lat="43.76535" lon="6.36888">
        <ele>1200</ele>
        <time>2018-05-29T10:02:59Z</time>
      </trkpt>
      <trkpt lat="43.76538" lon="6.36922">
        <ele>1202</ele>
        <time>2018-05-29T10:03:14Z</time>
      </trkpt>
      <trkpt lat="43.76539" lon="6.36929">
        <ele>1203</ele>
        <time>2018-05-29T10:03:17Z</time>
      </trkpt>
      <trkpt lat="43.76538" lon="6.36931">
        <ele>1203</ele>
        <time>2018-05-29T10:03:18Z</time>
      </trkpt>
      <trkpt lat="43.76539" lon="6.36973">
        <ele>1207</ele>
        <time>2018-05-29T10:03:37Z</time>
      </trkpt>
      <trkpt lat="43.76539" lon="6.3701">
        <ele>1211</ele>
        <time>2018-05-29T10:03:53Z</time>
      </trkpt>
      <trkpt lat="43.76538" lon="6.3705">
        <ele>1216</ele>
        <time>2018-05-29T10:04:11Z</time>
      </trkpt>
      <trkpt lat="43.76538" lon="6.37083">
        <ele>1219</ele>
        <time>2018-05-29T10:04:26Z</time>
      </trkpt>
      <trkpt lat="43.76538" lon="6.37124">
        <ele>1223</ele>
        <time>2018-05-29T10:04:43Z</time>
      </trkpt>
      <trkpt lat="43.76539" lon="6.37156">
        <ele>1226</ele>
        <time>2018-05-29T10:04:58Z</time>
      </trkpt>
      <trkpt lat="43.76539" lon="6.37158">
        <ele>1226</ele>
        <time>2018-05-29T10:04:59Z</time>
      </trkpt>
      <trkpt lat="43.76538" lon="6.3717">
        <ele>1227</ele>
        <time>2018-05-29T10:05:14Z</time>
      </trkpt>
      <trkpt lat="43.7654" lon="6.37188">
        <ele>1228</ele>
        <time>2018-05-29T10:05:24Z</time>
      </trkpt>
      <trkpt lat="43.76541" lon="6.37229">
        <ele>1231</ele>
        <time>2018-05-29T10:05:41Z</time>
      </trkpt>
      <trkpt lat="43.76541" lon="6.37264">
        <ele>1232</ele>
        <time>2018-05-29T10:05:55Z</time>
      </trkpt>
      <trkpt lat="43.76547" lon="6.37306">
        <ele>1227</ele>
        <time>2018-05-29T10:06:12Z</time>
      </trkpt>
      <trkpt lat="43.76535" lon="6.37329">
        <ele>1211</ele>
        <time>2018-05-29T10:06:27Z</time>
      </trkpt>
      <trkpt lat="43.76529" lon="6.37323">
        <ele>1215</ele>
        <time>2018-05-29T10:06:32Z</time>
      </trkpt>
      <trkpt lat="43.76529" lon="6.37321">
        <ele>1217</ele>
        <time>2018-05-29T10:06:33Z</time>
      </trkpt>
      <trkpt lat="43.76529" lon="6.37318">
        <ele>1219</ele>
        <time>2018-05-29T10:06:34Z</time>
      </trkpt>
      <trkpt lat="43.76529" lon="6.37316">
        <ele>1221</ele>
        <time>2018-05-29T10:06:35Z</time>
      </trkpt>
      <trkpt lat="43.76529" lon="6.37314">
        <ele>1221</ele>
        <time>2018-05-29T10:06:36Z</time>
      </trkpt>
      <trkpt lat="43.76527" lon="6.37316">
        <ele>1220</ele>
        <time>2018-05-29T10:06:39Z</time>
      </trkpt>
      <trkpt lat="43.76527" lon="6.37318">
        <ele>1219</ele>
        <time>2018-05-29T10:06:40Z</time>
      </trkpt>
      <trkpt lat="43.76532" lon="6.3733">
        <ele>1209</ele>
        <time>2018-05-29T10:06:45Z</time>
      </trkpt>
      <trkpt lat="43.76533" lon="6.37332">
        <ele>1207</ele>
        <time>2018-05-29T10:06:47Z</time>
      </trkpt>
      <trkpt lat="43.76542" lon="6.37337">
        <ele>1208</ele>
        <time>2018-05-29T10:07:01Z</time>
      </trkpt>
      <trkpt lat="43.76542" lon="6.37338">
        <ele>1207</ele>
        <time>2018-05-29T10:07:45Z</time>
      </trkpt>
      <trkpt lat="43.76542" lon="6.37337">
        <ele>1207</ele>
        <time>2018-05-29T10:08:26Z</time>
      </trkpt>
      <trkpt lat="43.76542" lon="6.37336">
        <ele>1208</ele>
        <time>2018-05-29T10:09:04Z</time>
      </trkpt>
      <trkpt lat="43.76542" lon="6.37337">
        <ele>1207</ele>
        <time>2018-05-29T10:09:46Z</time>
      </trkpt>
      <trkpt lat="43.76541" lon="6.37338">
        <ele>1205</ele>
        <time>2018-05-29T10:10:31Z</time>
      </trkpt>
      <trkpt lat="43.76544" lon="6.37337">
        <ele>1208</ele>
        <time>2018-05-29T10:11:22Z</time>
      </trkpt>
      <trkpt lat="43.76542" lon="6.37334">
        <ele>1210</ele>
        <time>2018-05-29T10:11:39Z</time>
      </trkpt>
      <trkpt lat="43.76543" lon="6.37333">
        <ele>1211</ele>
        <time>2018-05-29T10:11:58Z</time>
      </trkpt>
      <trkpt lat="43.76542" lon="6.37333">
        <ele>1210</ele>
        <time>2018-05-29T10:12:35Z</time>
      </trkpt>
      <trkpt lat="43.76541" lon="6.37334">
        <ele>1210</ele>
        <time>2018-05-29T10:13:07Z</time>
      </trkpt>
      <trkpt lat="43.76541" lon="6.37334">
        <ele>1210</ele>
        <time>2018-05-29T10:13:17Z</time>
      </trkpt>
      <trkpt lat="43.76536" lon="6.37329">
        <ele>1212</ele>
        <time>2018-05-29T10:13:21Z</time>
      </trkpt>
      <trkpt lat="43.76533" lon="6.37328">
        <ele>1212</ele>
        <time>2018-05-29T10:13:22Z</time>
      </trkpt>
      <trkpt lat="43.76532" lon="6.37325">
        <ele>1213</ele>
        <time>2018-05-29T10:13:23Z</time>
      </trkpt>
      <trkpt lat="43.76531" lon="6.37322">
        <ele>1216</ele>
        <time>2018-05-29T10:13:24Z</time>
      </trkpt>
      <trkpt lat="43.76531" lon="6.37318">
        <ele>1220</ele>
        <time>2018-05-29T10:13:25Z</time>
      </trkpt>
      <trkpt lat="43.7653" lon="6.37314">
        <ele>1221</ele>
        <time>2018-05-29T10:13:26Z</time>
      </trkpt>
      <trkpt lat="43.7653" lon="6.37311">
        <ele>1222</ele>
        <time>2018-05-29T10:13:27Z</time>
      </trkpt>
      <trkpt lat="43.76523" lon="6.37258">
        <ele>1235</ele>
        <time>2018-05-29T10:13:40Z</time>
      </trkpt>
      <trkpt lat="43.76518" lon="6.37238">
        <ele>1237</ele>
        <time>2018-05-29T10:13:46Z</time>
      </trkpt>
      <trkpt lat="43.76517" lon="6.37237">
        <ele>1237</ele>
        <time>2018-05-29T10:14:02Z</time>
      </trkpt>
      <trkpt lat="43.76516" lon="6.37236">
        <ele>1237</ele>
        <time>2018-05-29T10:14:46Z</time>
      </trkpt>
      <trkpt lat="43.76515" lon="6.37236">
        <ele>1237</ele>
        <time>2018-05-29T10:15:27Z</time>
      </trkpt>
      <trkpt lat="43.76515" lon="6.37236">
        <ele>1237</ele>
        <time>2018-05-29T10:16:03Z</time>
      </trkpt>
      <trkpt lat="43.76515" lon="6.37236">
        <ele>1237</ele>
        <time>2018-05-29T10:16:42Z</time>
      </trkpt>
      <trkpt lat="43.76516" lon="6.37236">
        <ele>1237</ele>
        <time>2018-05-29T10:17:32Z</time>
      </trkpt>
      <trkpt lat="43.76516" lon="6.37237">
        <ele>1237</ele>
        <time>2018-05-29T10:18:13Z</time>
      </trkpt>
      <trkpt lat="43.76516" lon="6.37237">
        <ele>1237</ele>
        <time>2018-05-29T10:18:49Z</time>
      </trkpt>
      <trkpt lat="43.76516" lon="6.37237">
        <ele>1237</ele>
        <time>2018-05-29T10:19:24Z</time>
      </trkpt>
      <trkpt lat="43.76516" lon="6.37237">
        <ele>1237</ele>
        <time>2018-05-29T10:20:07Z</time>
      </trkpt>
      <trkpt lat="43.76516" lon="6.37237">
        <ele>1237</ele>
        <time>2018-05-29T10:20:51Z</time>
      </trkpt>
      <trkpt lat="43.76516" lon="6.37237">
        <ele>1237</ele>
        <time>2018-05-29T10:21:29Z</time>
      </trkpt>
      <trkpt lat="43.76517" lon="6.37238">
        <ele>1237</ele>
        <time>2018-05-29T10:22:12Z</time>
      </trkpt>
      <trkpt lat="43.76515" lon="6.37235">
        <ele>1237</ele>
        <time>2018-05-29T10:23:01Z</time>
      </trkpt>
      <trkpt lat="43.76515" lon="6.37236">
        <ele>1237</ele>
        <time>2018-05-29T10:23:54Z</time>
      </trkpt>
      <trkpt lat="43.76516" lon="6.37236">
        <ele>1237</ele>
        <time>2018-05-29T10:24:49Z</time>
      </trkpt>
      <trkpt lat="43.76516" lon="6.37235">
        <ele>1237</ele>
        <time>2018-05-29T10:25:34Z</time>
      </trkpt>
      <trkpt lat="43.76519" lon="6.37236">
        <ele>1236</ele>
        <time>2018-05-29T10:25:58Z</time>
      </trkpt>
      <trkpt lat="43.7652" lon="6.37234">
        <ele>1236</ele>
        <time>2018-05-29T10:25:59Z</time>
      </trkpt>
      <trkpt lat="43.7652" lon="6.37233">
        <ele>1236</ele>
        <time>2018-05-29T10:26:00Z</time>
      </trkpt>
      <trkpt lat="43.76507" lon="6.37193">
        <ele>1237</ele>
        <time>2018-05-29T10:26:13Z</time>
      </trkpt>
      <trkpt lat="43.76484" lon="6.37145">
        <ele>1239</ele>
        <time>2018-05-29T10:26:27Z</time>
      </trkpt>
      <trkpt lat="43.76454" lon="6.371">
        <ele>1238</ele>
        <time>2018-05-29T10:26:40Z</time>
      </trkpt>
      <trkpt lat="43.76421" lon="6.3705">
        <ele>1240</ele>
        <time>2018-05-29T10:26:57Z</time>
      </trkpt>
      <trkpt lat="43.76394" lon="6.37025">
        <ele>1240</ele>
        <time>2018-05-29T10:27:12Z</time>
      </trkpt>
      <trkpt lat="43.76367" lon="6.37007">
        <ele>1244</ele>
        <time>2018-05-29T10:27:30Z</time>
      </trkpt>
      <trkpt lat="43.76344" lon="6.36991">
        <ele>1253</ele>
        <time>2018-05-29T10:27:47Z</time>
      </trkpt>
      <trkpt lat="43.76322" lon="6.36977">
        <ele>1256</ele>
        <time>2018-05-29T10:28:04Z</time>
      </trkpt>
      <trkpt lat="43.76303" lon="6.36964">
        <ele>1258</ele>
        <time>2018-05-29T10:28:19Z</time>
      </trkpt>
      <trkpt lat="43.76282" lon="6.3695">
        <ele>1259</ele>
        <time>2018-05-29T10:28:35Z</time>
      </trkpt>
      <trkpt lat="43.76257" lon="6.36931">
        <ele>1261</ele>
        <time>2018-05-29T10:28:53Z</time>
      </trkpt>
      <trkpt lat="43.76231" lon="6.36896">
        <ele>1262</ele>
        <time>2018-05-29T10:29:12Z</time>
      </trkpt>
      <trkpt lat="43.7621" lon="6.36864">
        <ele>1263</ele>
        <time>2018-05-29T10:29:28Z</time>
      </trkpt>
      <trkpt lat="43.76194" lon="6.36839">
        <ele>1263</ele>
        <time>2018-05-29T10:29:41Z</time>
      </trkpt>
      <trkpt lat="43.7619" lon="6.36833">
        <ele>1264</ele>
        <time>2018-05-29T10:29:44Z</time>
      </trkpt>
      <trkpt lat="43.7619" lon="6.36832">
        <ele>1264</ele>
        <time>2018-05-29T10:29:45Z</time>
      </trkpt>
      <trkpt lat="43.76189" lon="6.3683">
        <ele>1264</ele>
        <time>2018-05-29T10:29:46Z</time>
      </trkpt>
      <trkpt lat="43.76188" lon="6.36829">
        <ele>1264</ele>
        <time>2018-05-29T10:29:47Z</time>
      </trkpt>
      <trkpt lat="43.76186" lon="6.36828">
        <ele>1264</ele>
        <time>2018-05-29T10:29:48Z</time>
      </trkpt>
      <trkpt lat="43.76185" lon="6.36825">
        <ele>1264</ele>
        <time>2018-05-29T10:29:49Z</time>
      </trkpt>
      <trkpt lat="43.76185" lon="6.36823">
        <ele>1264</ele>
        <time>2018-05-29T10:29:50Z</time>
      </trkpt>
      <trkpt lat="43.76184" lon="6.3682">
        <ele>1264</ele>
        <time>2018-05-29T10:29:51Z</time>
      </trkpt>
      <trkpt lat="43.76183" lon="6.36818">
        <ele>1264</ele>
        <time>2018-05-29T10:29:52Z</time>
      </trkpt>
      <trkpt lat="43.76182" lon="6.36816">
        <ele>1264</ele>
        <time>2018-05-29T10:29:53Z</time>
      </trkpt>
      <trkpt lat="43.76163" lon="6.36785">
        <ele>1266</ele>
        <time>2018-05-29T10:30:08Z</time>
      </trkpt>
      <trkpt lat="43.7614" lon="6.36746">
        <ele>1268</ele>
        <time>2018-05-29T10:30:25Z</time>
      </trkpt>
      <trkpt lat="43.7611" lon="6.36728">
        <ele>1271</ele>
        <time>2018-05-29T10:30:40Z</time>
      </trkpt>
      <trkpt lat="43.76082" lon="6.36755">
        <ele>1271</ele>
        <time>2018-05-29T10:30:52Z</time>
      </trkpt>
      <trkpt lat="43.76072" lon="6.36822">
        <ele>1268</ele>
        <time>2018-05-29T10:31:07Z</time>
      </trkpt>
      <trkpt lat="43.76067" lon="6.36889">
        <ele>1271</ele>
        <time>2018-05-29T10:31:24Z</time>
      </trkpt>
      <trkpt lat="43.76063" lon="6.36925">
        <ele>1273</ele>
        <time>2018-05-29T10:31:38Z</time>
      </trkpt>
      <trkpt lat="43.76051" lon="6.3697">
        <ele>1276</ele>
        <time>2018-05-29T10:31:55Z</time>
      </trkpt>
      <trkpt lat="43.76026" lon="6.36991">
        <ele>1264</ele>
        <time>2018-05-29T10:32:10Z</time>
      </trkpt>
      <trkpt lat="43.76" lon="6.36988">
        <ele>1266</ele>
        <time>2018-05-29T10:32:27Z</time>
      </trkpt>
      <trkpt lat="43.75995" lon="6.36986">
        <ele>1267</ele>
        <time>2018-05-29T10:32:37Z</time>
      </trkpt>
      <trkpt lat="43.75994" lon="6.36988">
        <ele>1265</ele>
        <time>2018-05-29T10:33:15Z</time>
      </trkpt>
      <trkpt lat="43.75994" lon="6.36986">
        <ele>1267</ele>
        <time>2018-05-29T10:33:49Z</time>
      </trkpt>
      <trkpt lat="43.75995" lon="6.36985">
        <ele>1267</ele>
        <time>2018-05-29T10:34:33Z</time>
      </trkpt>
      <trkpt lat="43.75993" lon="6.36987">
        <ele>1266</ele>
        <time>2018-05-29T10:35:15Z</time>
      </trkpt>
      <trkpt lat="43.75995" lon="6.36988">
        <ele>1265</ele>
        <time>2018-05-29T10:36:02Z</time>
      </trkpt>
      <trkpt lat="43.75997" lon="6.36988">
        <ele>1265</ele>
        <time>2018-05-29T10:36:37Z</time>
      </trkpt>
      <trkpt lat="43.75997" lon="6.36987">
        <ele>1266</ele>
        <time>2018-05-29T10:36:53Z</time>
      </trkpt>
      <trkpt lat="43.75998" lon="6.3698">
        <ele>1272</ele>
        <time>2018-05-29T10:37:05Z</time>
      </trkpt>
      <trkpt lat="43.75998" lon="6.36979">
        <ele>1273</ele>
        <time>2018-05-29T10:37:06Z</time>
      </trkpt>
      <trkpt lat="43.75997" lon="6.36977">
        <ele>1274</ele>
        <time>2018-05-29T10:37:07Z</time>
      </trkpt>
      <trkpt lat="43.75995" lon="6.36976">
        <ele>1275</ele>
        <time>2018-05-29T10:37:08Z</time>
      </trkpt>
      <trkpt lat="43.75993" lon="6.36975">
        <ele>1276</ele>
        <time>2018-05-29T10:37:09Z</time>
      </trkpt>
      <trkpt lat="43.75992" lon="6.36973">
        <ele>1277</ele>
        <time>2018-05-29T10:37:10Z</time>
      </trkpt>
      <trkpt lat="43.75991" lon="6.36971">
        <ele>1279</ele>
        <time>2018-05-29T10:37:11Z</time>
      </trkpt>
      <trkpt lat="43.7599" lon="6.3697">
        <ele>1280</ele>
        <time>2018-05-29T10:37:12Z</time>
      </trkpt>
      <trkpt lat="43.75988" lon="6.36968">
        <ele>1281</ele>
        <time>2018-05-29T10:37:13Z</time>
      </trkpt>
      <trkpt lat="43.7597" lon="6.36943">
        <ele>1281</ele>
        <time>2018-05-29T10:37:25Z</time>
      </trkpt>
      <trkpt lat="43.75946" lon="6.3691">
        <ele>1287</ele>
        <time>2018-05-29T10:37:42Z</time>
      </trkpt>
      <trkpt lat="43.75922" lon="6.36874">
        <ele>1291</ele>
        <time>2018-05-29T10:37:59Z</time>
      </trkpt>
      <trkpt lat="43.75901" lon="6.36839">
        <ele>1296</ele>
        <time>2018-05-29T10:38:15Z</time>
      </trkpt>
      <trkpt lat="43.75882" lon="6.36803">
        <ele>1296</ele>
        <time>2018-05-29T10:38:30Z</time>
      </trkpt>
      <trkpt lat="43.75863" lon="6.36762">
        <ele>1298</ele>
        <time>2018-05-29T10:38:48Z</time>
      </trkpt>
      <trkpt lat="43.75843" lon="6.36721">
        <ele>1302</ele>
        <time>2018-05-29T10:39:07Z</time>
      </trkpt>
      <trkpt lat="43.75829" lon="6.3669">
        <ele>1305</ele>
        <time>2018-05-29T10:39:22Z</time>
      </trkpt>
      <trkpt lat="43.75813" lon="6.36659">
        <ele>1309</ele>
        <time>2018-05-29T10:39:38Z</time>
      </trkpt>
      <trkpt lat="43.75792" lon="6.36637">
        <ele>1313</ele>
        <time>2018-05-29T10:39:53Z</time>
      </trkpt>
      <trkpt lat="43.75789" lon="6.36636">
        <ele>1313</ele>
        <time>2018-05-29T10:39:55Z</time>
      </trkpt>
      <trkpt lat="43.75788" lon="6.36636">
        <ele>1314</ele>
        <time>2018-05-29T10:39:56Z</time>
      </trkpt>
      <trkpt lat="43.75786" lon="6.36636">
        <ele>1314</ele>
        <time>2018-05-29T10:39:57Z</time>
      </trkpt>
      <trkpt lat="43.75785" lon="6.36636">
        <ele>1314</ele>
        <time>2018-05-29T10:39:58Z</time>
      </trkpt>
      <trkpt lat="43.75783" lon="6.36635">
        <ele>1314</ele>
        <time>2018-05-29T10:39:59Z</time>
      </trkpt>
      <trkpt lat="43.75782" lon="6.36635">
        <ele>1315</ele>
        <time>2018-05-29T10:40:00Z</time>
      </trkpt>
      <trkpt lat="43.7578" lon="6.36634">
        <ele>1315</ele>
        <time>2018-05-29T10:40:01Z</time>
      </trkpt>
      <trkpt lat="43.75756" lon="6.36636">
        <ele>1317</ele>
        <time>2018-05-29T10:40:15Z</time>
      </trkpt>
      <trkpt lat="43.75724" lon="6.36635">
        <ele>1319</ele>
        <time>2018-05-29T10:40:34Z</time>
      </trkpt>
      <trkpt lat="43.75693" lon="6.36616">
        <ele>1319</ele>
        <time>2018-05-29T10:40:50Z</time>
      </trkpt>
      <trkpt lat="43.75655" lon="6.36597">
        <ele>1322</ele>
        <time>2018-05-29T10:41:06Z</time>
      </trkpt>
      <trkpt lat="43.7562" lon="6.36619">
        <ele>1317</ele>
        <time>2018-05-29T10:41:18Z</time>
      </trkpt>
      <trkpt lat="43.75613" lon="6.36666">
        <ele>1316</ele>
        <time>2018-05-29T10:41:30Z</time>
      </trkpt>
      <trkpt lat="43.75616" lon="6.36698">
        <ele>1314</ele>
        <time>2018-05-29T10:41:42Z</time>
      </trkpt>
      <trkpt lat="43.75618" lon="6.36718">
        <ele>1313</ele>
        <time>2018-05-29T10:41:46Z</time>
      </trkpt>
      <trkpt lat="43.75618" lon="6.36723">
        <ele>1313</ele>
        <time>2018-05-29T10:41:47Z</time>
      </trkpt>
      <trkpt lat="43.75618" lon="6.36746">
        <ele>1313</ele>
        <time>2018-05-29T10:41:50Z</time>
      </trkpt>
      <trkpt lat="43.75617" lon="6.36753">
        <ele>1313</ele>
        <time>2018-05-29T10:41:51Z</time>
      </trkpt>
      <trkpt lat="43.75612" lon="6.36773">
        <ele>1312</ele>
        <time>2018-05-29T10:41:54Z</time>
      </trkpt>
      <trkpt lat="43.7561" lon="6.36779">
        <ele>1311</ele>
        <time>2018-05-29T10:41:55Z</time>
      </trkpt>
      <trkpt lat="43.75598" lon="6.36801">
        <ele>1309</ele>
        <time>2018-05-29T10:41:59Z</time>
      </trkpt>
      <trkpt lat="43.75594" lon="6.36807">
        <ele>1309</ele>
        <time>2018-05-29T10:42:00Z</time>
      </trkpt>
      <trkpt lat="43.75589" lon="6.36812">
        <ele>1308</ele>
        <time>2018-05-29T10:42:01Z</time>
      </trkpt>
      <trkpt lat="43.75569" lon="6.36828">
        <ele>1304</ele>
        <time>2018-05-29T10:42:05Z</time>
      </trkpt>
      <trkpt lat="43.75563" lon="6.36831">
        <ele>1303</ele>
        <time>2018-05-29T10:42:06Z</time>
      </trkpt>
      <trkpt lat="43.75557" lon="6.36832">
        <ele>1302</ele>
        <time>2018-05-29T10:42:07Z</time>
      </trkpt>
      <trkpt lat="43.75551" lon="6.36833">
        <ele>1301</ele>
        <time>2018-05-29T10:42:08Z</time>
      </trkpt>
      <trkpt lat="43.75547" lon="6.36833">
        <ele>1301</ele>
        <time>2018-05-29T10:42:09Z</time>
      </trkpt>
      <trkpt lat="43.75543" lon="6.36834">
        <ele>1300</ele>
        <time>2018-05-29T10:42:10Z</time>
      </trkpt>
      <trkpt lat="43.75539" lon="6.36836">
        <ele>1299</ele>
        <time>2018-05-29T10:42:11Z</time>
      </trkpt>
      <trkpt lat="43.75536" lon="6.36836">
        <ele>1299</ele>
        <time>2018-05-29T10:42:12Z</time>
      </trkpt>
      <trkpt lat="43.75534" lon="6.36835">
        <ele>1298</ele>
        <time>2018-05-29T10:42:13Z</time>
      </trkpt>
      <trkpt lat="43.75532" lon="6.36834">
        <ele>1298</ele>
        <time>2018-05-29T10:42:14Z</time>
      </trkpt>
      <trkpt lat="43.7553" lon="6.36833">
        <ele>1298</ele>
        <time>2018-05-29T10:42:15Z</time>
      </trkpt>
      <trkpt lat="43.7553" lon="6.36832">
        <ele>1298</ele>
        <time>2018-05-29T10:42:16Z</time>
      </trkpt>
      <trkpt lat="43.75529" lon="6.3683">
        <ele>1298</ele>
        <time>2018-05-29T10:42:17Z</time>
      </trkpt>
      <trkpt lat="43.75535" lon="6.36836">
        <ele>1298</ele>
        <time>2018-05-29T10:42:24Z</time>
      </trkpt>
      <trkpt lat="43.75536" lon="6.36837">
        <ele>1299</ele>
        <time>2018-05-29T10:42:25Z</time>
      </trkpt>
      <trkpt lat="43.7554" lon="6.36837">
        <ele>1299</ele>
        <time>2018-05-29T10:42:28Z</time>
      </trkpt>
      <trkpt lat="43.75539" lon="6.36833">
        <ele>1300</ele>
        <time>2018-05-29T10:42:31Z</time>
      </trkpt>
      <trkpt lat="43.75536" lon="6.36834">
        <ele>1299</ele>
        <time>2018-05-29T10:42:32Z</time>
      </trkpt>
      <trkpt lat="43.75535" lon="6.36835">
        <ele>1299</ele>
        <time>2018-05-29T10:42:33Z</time>
      </trkpt>
      <trkpt lat="43.75537" lon="6.36839">
        <ele>1298</ele>
        <time>2018-05-29T10:42:39Z</time>
      </trkpt>
      <trkpt lat="43.75541" lon="6.36841">
        <ele>1298</ele>
        <time>2018-05-29T10:42:55Z</time>
      </trkpt>
      <trkpt lat="43.75542" lon="6.3684">
        <ele>1298</ele>
        <time>2018-05-29T10:43:33Z</time>
      </trkpt>
      <trkpt lat="43.7554" lon="6.36838">
        <ele>1299</ele>
        <time>2018-05-29T10:44:23Z</time>
      </trkpt>
      <trkpt lat="43.75542" lon="6.36838">
        <ele>1299</ele>
        <time>2018-05-29T10:45:18Z</time>
      </trkpt>
      <trkpt lat="43.7554" lon="6.36839">
        <ele>1299</ele>
        <time>2018-05-29T10:46:04Z</time>
      </trkpt>
      <trkpt lat="43.75541" lon="6.36838">
        <ele>1299</ele>
        <time>2018-05-29T10:46:52Z</time>
      </trkpt>
      <trkpt lat="43.75538" lon="6.36838">
        <ele>1299</ele>
        <time>2018-05-29T10:47:38Z</time>
      </trkpt>
      <trkpt lat="43.75538" lon="6.36838">
        <ele>1299</ele>
        <time>2018-05-29T10:48:16Z</time>
      </trkpt>
      <trkpt lat="43.75537" lon="6.36839">
        <ele>1298</ele>
        <time>2018-05-29T10:48:54Z</time>
      </trkpt>
      <trkpt lat="43.75537" lon="6.36839">
        <ele>1298</ele>
        <time>2018-05-29T10:49:35Z</time>
      </trkpt>
      <trkpt lat="43.75538" lon="6.3684">
        <ele>1298</ele>
        <time>2018-05-29T10:50:18Z</time>
      </trkpt>
      <trkpt lat="43.75538" lon="6.36839">
        <ele>1298</ele>
        <time>2018-05-29T10:50:55Z</time>
      </trkpt>
      <trkpt lat="43.75539" lon="6.3684">
        <ele>1298</ele>
        <time>2018-05-29T10:51:32Z</time>
      </trkpt>
      <trkpt lat="43.75539" lon="6.3684">
        <ele>1298</ele>
        <time>2018-05-29T10:52:16Z</time>
      </trkpt>
      <trkpt lat="43.7554" lon="6.36838">
        <ele>1299</ele>
        <time>2018-05-29T10:52:33Z</time>
      </trkpt>
      <trkpt lat="43.75537" lon="6.36837">
        <ele>1299</ele>
        <time>2018-05-29T10:53:04Z</time>
      </trkpt>
      <trkpt lat="43.75534" lon="6.36835">
        <ele>1298</ele>
        <time>2018-05-29T10:53:05Z</time>
      </trkpt>
      <trkpt lat="43.75496" lon="6.36791">
        <ele>1295</ele>
        <time>2018-05-29T10:53:14Z</time>
      </trkpt>
      <trkpt lat="43.75447" lon="6.36723">
        <ele>1287</ele>
        <time>2018-05-29T10:53:21Z</time>
      </trkpt>
      <trkpt lat="43.7544" lon="6.36708">
        <ele>1286</ele>
        <time>2018-05-29T10:53:22Z</time>
      </trkpt>
      <trkpt lat="43.75403" lon="6.36631">
        <ele>1291</ele>
        <time>2018-05-29T10:53:28Z</time>
      </trkpt>
      <trkpt lat="43.75397" lon="6.36626">
        <ele>1291</ele>
        <time>2018-05-29T10:53:29Z</time>
      </trkpt>
      <trkpt lat="43.7539" lon="6.36627">
        <ele>1289</ele>
        <time>2018-05-29T10:53:30Z</time>
      </trkpt>
      <trkpt lat="43.75385" lon="6.36632">
        <ele>1287</ele>
        <time>2018-05-29T10:53:31Z</time>
      </trkpt>
      <trkpt lat="43.75384" lon="6.3664">
        <ele>1284</ele>
        <time>2018-05-29T10:53:32Z</time>
      </trkpt>
      <trkpt lat="43.75385" lon="6.36649">
        <ele>1282</ele>
        <time>2018-05-29T10:53:33Z</time>
      </trkpt>
      <trkpt lat="43.75389" lon="6.36658">
        <ele>1280</ele>
        <time>2018-05-29T10:53:34Z</time>
      </trkpt>
      <trkpt lat="43.75393" lon="6.36666">
        <ele>1279</ele>
        <time>2018-05-29T10:53:35Z</time>
      </trkpt>
      <trkpt lat="43.75397" lon="6.36673">
        <ele>1278</ele>
        <time>2018-05-29T10:53:36Z</time>
      </trkpt>
      <trkpt lat="43.75401" lon="6.36682">
        <ele>1276</ele>
        <time>2018-05-29T10:53:37Z</time>
      </trkpt>
      <trkpt lat="43.75408" lon="6.36701">
        <ele>1274</ele>
        <time>2018-05-29T10:53:39Z</time>
      </trkpt>
      <trkpt lat="43.75411" lon="6.36712">
        <ele>1273</ele>
        <time>2018-05-29T10:53:40Z</time>
      </trkpt>
      <trkpt lat="43.75413" lon="6.36724">
        <ele>1272</ele>
        <time>2018-05-29T10:53:41Z</time>
      </trkpt>
      <trkpt lat="43.75448" lon="6.36872">
        <ele>1264</ele>
        <time>2018-05-29T10:53:52Z</time>
      </trkpt>
      <trkpt lat="43.75454" lon="6.36885">
        <ele>1262</ele>
        <time>2018-05-29T10:53:53Z</time>
      </trkpt>
      <trkpt lat="43.75503" lon="6.36958">
        <ele>1260</ele>
        <time>2018-05-29T10:54:00Z</time>
      </trkpt>
      <trkpt lat="43.75512" lon="6.36964">
        <ele>1260</ele>
        <time>2018-05-29T10:54:01Z</time>
      </trkpt>
      <trkpt lat="43.75522" lon="6.36969">
        <ele>1261</ele>
        <time>2018-05-29T10:54:02Z</time>
      </trkpt>
      <trkpt lat="43.75532" lon="6.36972">
        <ele>1262</ele>
        <time>2018-05-29T10:54:03Z</time>
      </trkpt>
      <trkpt lat="43.75541" lon="6.36975">
        <ele>1263</ele>
        <time>2018-05-29T10:54:04Z</time>
      </trkpt>
      <trkpt lat="43.75549" lon="6.36978">
        <ele>1262</ele>
        <time>2018-05-29T10:54:05Z</time>
      </trkpt>
      <trkpt lat="43.75554" lon="6.36984">
        <ele>1261</ele>
        <time>2018-05-29T10:54:06Z</time>
      </trkpt>
      <trkpt lat="43.75557" lon="6.36991">
        <ele>1259</ele>
        <time>2018-05-29T10:54:07Z</time>
      </trkpt>
      <trkpt lat="43.75555" lon="6.36999">
        <ele>1256</ele>
        <time>2018-05-29T10:54:08Z</time>
      </trkpt>
      <trkpt lat="43.75551" lon="6.37003">
        <ele>1254</ele>
        <time>2018-05-29T10:54:09Z</time>
      </trkpt>
      <trkpt lat="43.75546" lon="6.37004">
        <ele>1253</ele>
        <time>2018-05-29T10:54:10Z</time>
      </trkpt>
      <trkpt lat="43.75541" lon="6.37003">
        <ele>1253</ele>
        <time>2018-05-29T10:54:11Z</time>
      </trkpt>
      <trkpt lat="43.75537" lon="6.37002">
        <ele>1254</ele>
        <time>2018-05-29T10:54:12Z</time>
      </trkpt>
      <trkpt lat="43.75534" lon="6.37002">
        <ele>1254</ele>
        <time>2018-05-29T10:54:13Z</time>
      </trkpt>
      <trkpt lat="43.75531" lon="6.37002">
        <ele>1254</ele>
        <time>2018-05-29T10:54:14Z</time>
      </trkpt>
      <trkpt lat="43.75529" lon="6.37001">
        <ele>1254</ele>
        <time>2018-05-29T10:54:25Z</time>
      </trkpt>
      <trkpt lat="43.75527" lon="6.36999">
        <ele>1255</ele>
        <time>2018-05-29T10:54:44Z</time>
      </trkpt>
      <trkpt lat="43.75526" lon="6.36998">
        <ele>1255</ele>
        <time>2018-05-29T10:54:45Z</time>
      </trkpt>
      <trkpt lat="43.75524" lon="6.36997">
        <ele>1255</ele>
        <time>2018-05-29T10:54:46Z</time>
      </trkpt>
      <trkpt lat="43.75478" lon="6.36968">
        <ele>1252</ele>
        <time>2018-05-29T10:54:56Z</time>
      </trkpt>
      <trkpt lat="43.75473" lon="6.36962">
        <ele>1251</ele>
        <time>2018-05-29T10:54:57Z</time>
      </trkpt>
      <trkpt lat="43.75467" lon="6.36956">
        <ele>1250</ele>
        <time>2018-05-29T10:54:58Z</time>
      </trkpt>
      <trkpt lat="43.75397" lon="6.36857">
        <ele>1244</ele>
        <time>2018-05-29T10:55:10Z</time>
      </trkpt>
      <trkpt lat="43.75392" lon="6.36846">
        <ele>1244</ele>
        <time>2018-05-29T10:55:11Z</time>
      </trkpt>
      <trkpt lat="43.75367" lon="6.36768">
        <ele>1242</ele>
        <time>2018-05-29T10:55:17Z</time>
      </trkpt>
      <trkpt lat="43.7536" lon="6.36756">
        <ele>1241</ele>
        <time>2018-05-29T10:55:18Z</time>
      </trkpt>
      <trkpt lat="43.75352" lon="6.36749">
        <ele>1240</ele>
        <time>2018-05-29T10:55:19Z</time>
      </trkpt>
      <trkpt lat="43.75342" lon="6.36745">
        <ele>1238</ele>
        <time>2018-05-29T10:55:20Z</time>
      </trkpt>
      <trkpt lat="43.75332" lon="6.36742">
        <ele>1235</ele>
        <time>2018-05-29T10:55:21Z</time>
      </trkpt>
      <trkpt lat="43.75323" lon="6.36739">
        <ele>1233</ele>
        <time>2018-05-29T10:55:22Z</time>
      </trkpt>
      <trkpt lat="43.75315" lon="6.36732">
        <ele>1233</ele>
        <time>2018-05-29T10:55:23Z</time>
      </trkpt>
      <trkpt lat="43.75308" lon="6.36723">
        <ele>1230</ele>
        <time>2018-05-29T10:55:24Z</time>
      </trkpt>
      <trkpt lat="43.75302" lon="6.36711">
        <ele>1229</ele>
        <time>2018-05-29T10:55:25Z</time>
      </trkpt>
      <trkpt lat="43.75298" lon="6.36699">
        <ele>1229</ele>
        <time>2018-05-29T10:55:26Z</time>
      </trkpt>
      <trkpt lat="43.75294" lon="6.36686">
        <ele>1229</ele>
        <time>2018-05-29T10:55:27Z</time>
      </trkpt>
      <trkpt lat="43.75267" lon="6.36622">
        <ele>1228</ele>
        <time>2018-05-29T10:55:32Z</time>
      </trkpt>
      <trkpt lat="43.7526" lon="6.36609">
        <ele>1226</ele>
        <time>2018-05-29T10:55:33Z</time>
      </trkpt>
      <trkpt lat="43.75252" lon="6.36598">
        <ele>1226</ele>
        <time>2018-05-29T10:55:34Z</time>
      </trkpt>
      <trkpt lat="43.7518" lon="6.36512">
        <ele>1227</ele>
        <time>2018-05-29T10:55:43Z</time>
      </trkpt>
      <trkpt lat="43.75176" lon="6.36508">
        <ele>1228</ele>
        <time>2018-05-29T10:55:44Z</time>
      </trkpt>
      <trkpt lat="43.75172" lon="6.36505">
        <ele>1227</ele>
        <time>2018-05-29T10:55:45Z</time>
      </trkpt>
      <trkpt lat="43.75168" lon="6.36504">
        <ele>1225</ele>
        <time>2018-05-29T10:55:46Z</time>
      </trkpt>
      <trkpt lat="43.75166" lon="6.36512">
        <ele>1216</ele>
        <time>2018-05-29T10:55:52Z</time>
      </trkpt>
      <trkpt lat="43.75165" lon="6.36513">
        <ele>1214</ele>
        <time>2018-05-29T10:56:19Z</time>
      </trkpt>
      <trkpt lat="43.75164" lon="6.36514">
        <ele>1213</ele>
        <time>2018-05-29T10:56:43Z</time>
      </trkpt>
      <trkpt lat="43.75164" lon="6.36516">
        <ele>1210</ele>
        <time>2018-05-29T10:57:09Z</time>
      </trkpt>
      <trkpt lat="43.75163" lon="6.36518">
        <ele>1208</ele>
        <time>2018-05-29T10:57:37Z</time>
      </trkpt>
      <trkpt lat="43.75162" lon="6.36516">
        <ele>1209</ele>
        <time>2018-05-29T10:58:11Z</time>
      </trkpt>
      <trkpt lat="43.75163" lon="6.36513">
        <ele>1213</ele>
        <time>2018-05-29T10:58:31Z</time>
      </trkpt>
      <trkpt lat="43.75164" lon="6.36516">
        <ele>1211</ele>
        <time>2018-05-29T10:58:55Z</time>
      </trkpt>
      <trkpt lat="43.75165" lon="6.36518">
        <ele>1209</ele>
        <time>2018-05-29T10:59:16Z</time>
      </trkpt>
      <trkpt lat="43.75165" lon="6.36517">
        <ele>1210</ele>
        <time>2018-05-29T10:59:42Z</time>
      </trkpt>
      <trkpt lat="43.75165" lon="6.36514">
        <ele>1213</ele>
        <time>2018-05-29T10:59:57Z</time>
      </trkpt>
      <trkpt lat="43.75167" lon="6.36508">
        <ele>1221</ele>
        <time>2018-05-29T11:00:18Z</time>
      </trkpt>
      <trkpt lat="43.75171" lon="6.36502">
        <ele>1229</ele>
        <time>2018-05-29T11:00:22Z</time>
      </trkpt>
      <trkpt lat="43.75172" lon="6.365">
        <ele>1232</ele>
        <time>2018-05-29T11:00:24Z</time>
      </trkpt>
      <trkpt lat="43.7517" lon="6.36494">
        <ele>1237</ele>
        <time>2018-05-29T11:00:27Z</time>
      </trkpt>
      <trkpt lat="43.75169" lon="6.36492">
        <ele>1238</ele>
        <time>2018-05-29T11:00:28Z</time>
      </trkpt>
      <trkpt lat="43.75168" lon="6.36489">
        <ele>1239</ele>
        <time>2018-05-29T11:00:29Z</time>
      </trkpt>
      <trkpt lat="43.75076" lon="6.36377">
        <ele>1206</ele>
        <time>2018-05-29T11:00:47Z</time>
      </trkpt>
      <trkpt lat="43.75063" lon="6.3637">
        <ele>1202</ele>
        <time>2018-05-29T11:00:49Z</time>
      </trkpt>
      <trkpt lat="43.7506" lon="6.36367">
        <ele>1202</ele>
        <time>2018-05-29T11:00:50Z</time>
      </trkpt>
      <trkpt lat="43.75057" lon="6.36367">
        <ele>1200</ele>
        <time>2018-05-29T11:00:51Z</time>
      </trkpt>
      <trkpt lat="43.75041" lon="6.3638">
        <ele>1183</ele>
        <time>2018-05-29T11:00:58Z</time>
      </trkpt>
      <trkpt lat="43.75041" lon="6.36382">
        <ele>1182</ele>
        <time>2018-05-29T11:01:24Z</time>
      </trkpt>
      <trkpt lat="43.75041" lon="6.36378">
        <ele>1185</ele>
        <time>2018-05-29T11:01:44Z</time>
      </trkpt>
      <trkpt lat="43.75039" lon="6.36376">
        <ele>1185</ele>
        <time>2018-05-29T11:01:47Z</time>
      </trkpt>
      <trkpt lat="43.75037" lon="6.36371">
        <ele>1187</ele>
        <time>2018-05-29T11:01:53Z</time>
      </trkpt>
      <trkpt lat="43.75037" lon="6.3637">
        <ele>1188</ele>
        <time>2018-05-29T11:01:54Z</time>
      </trkpt>
      <trkpt lat="43.75034" lon="6.36359">
        <ele>1194</ele>
        <time>2018-05-29T11:02:08Z</time>
      </trkpt>
      <trkpt lat="43.75033" lon="6.36362">
        <ele>1192</ele>
        <time>2018-05-29T11:02:29Z</time>
      </trkpt>
      <trkpt lat="43.75033" lon="6.36361">
        <ele>1193</ele>
        <time>2018-05-29T11:02:55Z</time>
      </trkpt>
      <trkpt lat="43.75034" lon="6.36361">
        <ele>1193</ele>
        <time>2018-05-29T11:03:25Z</time>
      </trkpt>
      <trkpt lat="43.75035" lon="6.3636">
        <ele>1195</ele>
        <time>2018-05-29T11:03:26Z</time>
      </trkpt>
      <trkpt lat="43.75035" lon="6.36357">
        <ele>1196</ele>
        <time>2018-05-29T11:03:27Z</time>
      </trkpt>
      <trkpt lat="43.75034" lon="6.36355">
        <ele>1198</ele>
        <time>2018-05-29T11:03:28Z</time>
      </trkpt>
      <trkpt lat="43.75033" lon="6.36352">
        <ele>1199</ele>
        <time>2018-05-29T11:03:29Z</time>
      </trkpt>
      <trkpt lat="43.75032" lon="6.36349">
        <ele>1200</ele>
        <time>2018-05-29T11:03:30Z</time>
      </trkpt>
      <trkpt lat="43.75027" lon="6.36342">
        <ele>1203</ele>
        <time>2018-05-29T11:03:32Z</time>
      </trkpt>
      <trkpt lat="43.75024" lon="6.3634">
        <ele>1202</ele>
        <time>2018-05-29T11:03:33Z</time>
      </trkpt>
      <trkpt lat="43.75021" lon="6.36339">
        <ele>1201</ele>
        <time>2018-05-29T11:03:34Z</time>
      </trkpt>
      <trkpt lat="43.75019" lon="6.36337">
        <ele>1200</ele>
        <time>2018-05-29T11:03:35Z</time>
      </trkpt>
      <trkpt lat="43.75017" lon="6.36335">
        <ele>1200</ele>
        <time>2018-05-29T11:03:36Z</time>
      </trkpt>
      <trkpt lat="43.75017" lon="6.36332">
        <ele>1200</ele>
        <time>2018-05-29T11:03:37Z</time>
      </trkpt>
      <trkpt lat="43.75016" lon="6.3633">
        <ele>1201</ele>
        <time>2018-05-29T11:03:38Z</time>
      </trkpt>
      <trkpt lat="43.75008" lon="6.36284">
        <ele>1202</ele>
        <time>2018-05-29T11:03:48Z</time>
      </trkpt>
      <trkpt lat="43.75003" lon="6.36229">
        <ele>1206</ele>
        <time>2018-05-29T11:03:59Z</time>
      </trkpt>
      <trkpt lat="43.74997" lon="6.36206">
        <ele>1210</ele>
        <time>2018-05-29T11:04:09Z</time>
      </trkpt>
      <trkpt lat="43.74997" lon="6.36204">
        <ele>1210</ele>
        <time>2018-05-29T11:04:10Z</time>
      </trkpt>
      <trkpt lat="43.74996" lon="6.36202">
        <ele>1210</ele>
        <time>2018-05-29T11:04:11Z</time>
      </trkpt>
      <trkpt lat="43.74964" lon="6.36117">
        <ele>1209</ele>
        <time>2018-05-29T11:04:27Z</time>
      </trkpt>
      <trkpt lat="43.74959" lon="6.36105">
        <ele>1205</ele>
        <time>2018-05-29T11:04:28Z</time>
      </trkpt>
      <trkpt lat="43.74954" lon="6.36092">
        <ele>1200</ele>
        <time>2018-05-29T11:04:29Z</time>
      </trkpt>
      <trkpt lat="43.7495" lon="6.36081">
        <ele>1196</ele>
        <time>2018-05-29T11:04:30Z</time>
      </trkpt>
      <trkpt lat="43.74943" lon="6.36059">
        <ele>1188</ele>
        <time>2018-05-29T11:04:32Z</time>
      </trkpt>
      <trkpt lat="43.74942" lon="6.36049">
        <ele>1187</ele>
        <time>2018-05-29T11:04:33Z</time>
      </trkpt>
      <trkpt lat="43.74941" lon="6.35993">
        <ele>1184</ele>
        <time>2018-05-29T11:04:38Z</time>
      </trkpt>
      <trkpt lat="43.74939" lon="6.3598">
        <ele>1182</ele>
        <time>2018-05-29T11:04:39Z</time>
      </trkpt>
      <trkpt lat="43.74935" lon="6.35967">
        <ele>1179</ele>
        <time>2018-05-29T11:04:40Z</time>
      </trkpt>
      <trkpt lat="43.74929" lon="6.35956">
        <ele>1178</ele>
        <time>2018-05-29T11:04:41Z</time>
      </trkpt>
      <trkpt lat="43.74922" lon="6.35946">
        <ele>1178</ele>
        <time>2018-05-29T11:04:42Z</time>
      </trkpt>
      <trkpt lat="43.74913" lon="6.35937">
        <ele>1177</ele>
        <time>2018-05-29T11:04:43Z</time>
      </trkpt>
      <trkpt lat="43.74902" lon="6.35932">
        <ele>1175</ele>
        <time>2018-05-29T11:04:44Z</time>
      </trkpt>
      <trkpt lat="43.74891" lon="6.35928">
        <ele>1172</ele>
        <time>2018-05-29T11:04:45Z</time>
      </trkpt>
      <trkpt lat="43.74881" lon="6.35923">
        <ele>1170</ele>
        <time>2018-05-29T11:04:46Z</time>
      </trkpt>
      <trkpt lat="43.74873" lon="6.35918">
        <ele>1169</ele>
        <time>2018-05-29T11:04:47Z</time>
      </trkpt>
      <trkpt lat="43.74865" lon="6.35911">
        <ele>1169</ele>
        <time>2018-05-29T11:04:48Z</time>
      </trkpt>
      <trkpt lat="43.74858" lon="6.35903">
        <ele>1171</ele>
        <time>2018-05-29T11:04:49Z</time>
      </trkpt>
      <trkpt lat="43.74852" lon="6.35894">
        <ele>1173</ele>
        <time>2018-05-29T11:04:50Z</time>
      </trkpt>
      <trkpt lat="43.74847" lon="6.35884">
        <ele>1173</ele>
        <time>2018-05-29T11:04:51Z</time>
      </trkpt>
      <trkpt lat="43.74842" lon="6.35875">
        <ele>1173</ele>
        <time>2018-05-29T11:04:52Z</time>
      </trkpt>
      <trkpt lat="43.74835" lon="6.35868">
        <ele>1172</ele>
        <time>2018-05-29T11:04:53Z</time>
      </trkpt>
      <trkpt lat="43.74806" lon="6.35838">
        <ele>1164</ele>
        <time>2018-05-29T11:04:58Z</time>
      </trkpt>
      <trkpt lat="43.74787" lon="6.35811">
        <ele>1157</ele>
        <time>2018-05-29T11:05:07Z</time>
      </trkpt>
      <trkpt lat="43.74786" lon="6.3581">
        <ele>1157</ele>
        <time>2018-05-29T11:05:08Z</time>
      </trkpt>
      <trkpt lat="43.74787" lon="6.35808">
        <ele>1158</ele>
        <time>2018-05-29T11:05:23Z</time>
      </trkpt>
      <trkpt lat="43.74786" lon="6.35807">
        <ele>1157</ele>
        <time>2018-05-29T11:05:40Z</time>
      </trkpt>
      <trkpt lat="43.74784" lon="6.35808">
        <ele>1156</ele>
        <time>2018-05-29T11:06:01Z</time>
      </trkpt>
      <trkpt lat="43.74783" lon="6.35809">
        <ele>1155</ele>
        <time>2018-05-29T11:06:26Z</time>
      </trkpt>
      <trkpt lat="43.74782" lon="6.35809">
        <ele>1154</ele>
        <time>2018-05-29T11:06:53Z</time>
      </trkpt>
      <trkpt lat="43.74781" lon="6.35808">
        <ele>1154</ele>
        <time>2018-05-29T11:07:35Z</time>
      </trkpt>
      <trkpt lat="43.74782" lon="6.35809">
        <ele>1154</ele>
        <time>2018-05-29T11:08:11Z</time>
      </trkpt>
      <trkpt lat="43.74782" lon="6.35807">
        <ele>1155</ele>
        <time>2018-05-29T11:08:49Z</time>
      </trkpt>
      <trkpt lat="43.74783" lon="6.35806">
        <ele>1155</ele>
        <time>2018-05-29T11:09:15Z</time>
      </trkpt>
      <trkpt lat="43.74786" lon="6.358">
        <ele>1158</ele>
        <time>2018-05-29T11:09:23Z</time>
      </trkpt>
      <trkpt lat="43.74786" lon="6.35799">
        <ele>1159</ele>
        <time>2018-05-29T11:09:24Z</time>
      </trkpt>
      <trkpt lat="43.74786" lon="6.35796">
        <ele>1159</ele>
        <time>2018-05-29T11:09:25Z</time>
      </trkpt>
      <trkpt lat="43.74786" lon="6.35794">
        <ele>1160</ele>
        <time>2018-05-29T11:09:26Z</time>
      </trkpt>
      <trkpt lat="43.74786" lon="6.3579">
        <ele>1160</ele>
        <time>2018-05-29T11:09:27Z</time>
      </trkpt>
      <trkpt lat="43.74778" lon="6.35732">
        <ele>1160</ele>
        <time>2018-05-29T11:09:36Z</time>
      </trkpt>
      <trkpt lat="43.74775" lon="6.35721">
        <ele>1159</ele>
        <time>2018-05-29T11:09:37Z</time>
      </trkpt>
      <trkpt lat="43.74757" lon="6.35661">
        <ele>1149</ele>
        <time>2018-05-29T11:09:42Z</time>
      </trkpt>
      <trkpt lat="43.74755" lon="6.35647">
        <ele>1148</ele>
        <time>2018-05-29T11:09:43Z</time>
      </trkpt>
      <trkpt lat="43.74755" lon="6.35631">
        <ele>1146</ele>
        <time>2018-05-29T11:09:44Z</time>
      </trkpt>
      <trkpt lat="43.74756" lon="6.35617">
        <ele>1144</ele>
        <time>2018-05-29T11:09:45Z</time>
      </trkpt>
      <trkpt lat="43.74759" lon="6.35601">
        <ele>1143</ele>
        <time>2018-05-29T11:09:46Z</time>
      </trkpt>
      <trkpt lat="43.74762" lon="6.35587">
        <ele>1142</ele>
        <time>2018-05-29T11:09:47Z</time>
      </trkpt>
      <trkpt lat="43.7477" lon="6.35559">
        <ele>1138</ele>
        <time>2018-05-29T11:09:49Z</time>
      </trkpt>
      <trkpt lat="43.74776" lon="6.35546">
        <ele>1136</ele>
        <time>2018-05-29T11:09:50Z</time>
      </trkpt>
      <trkpt lat="43.74783" lon="6.35535">
        <ele>1135</ele>
        <time>2018-05-29T11:09:51Z</time>
      </trkpt>
      <trkpt lat="43.74791" lon="6.35524">
        <ele>1133</ele>
        <time>2018-05-29T11:09:52Z</time>
      </trkpt>
      <trkpt lat="43.74799" lon="6.35513">
        <ele>1132</ele>
        <time>2018-05-29T11:09:53Z</time>
      </trkpt>
      <trkpt lat="43.74816" lon="6.35497">
        <ele>1129</ele>
        <time>2018-05-29T11:09:55Z</time>
      </trkpt>
      <trkpt lat="43.74825" lon="6.35492">
        <ele>1129</ele>
        <time>2018-05-29T11:09:56Z</time>
      </trkpt>
      <trkpt lat="43.74835" lon="6.35488">
        <ele>1128</ele>
        <time>2018-05-29T11:09:57Z</time>
      </trkpt>
      <trkpt lat="43.74891" lon="6.3547">
        <ele>1130</ele>
        <time>2018-05-29T11:10:02Z</time>
      </trkpt>
      <trkpt lat="43.74898" lon="6.35464">
        <ele>1128</ele>
        <time>2018-05-29T11:10:03Z</time>
      </trkpt>
      <trkpt lat="43.74902" lon="6.35455">
        <ele>1126</ele>
        <time>2018-05-29T11:10:04Z</time>
      </trkpt>
      <trkpt lat="43.74904" lon="6.35447">
        <ele>1124</ele>
        <time>2018-05-29T11:10:05Z</time>
      </trkpt>
      <trkpt lat="43.74903" lon="6.35439">
        <ele>1120</ele>
        <time>2018-05-29T11:10:06Z</time>
      </trkpt>
      <trkpt lat="43.74899" lon="6.35434">
        <ele>1117</ele>
        <time>2018-05-29T11:10:07Z</time>
      </trkpt>
      <trkpt lat="43.74894" lon="6.35434">
        <ele>1116</ele>
        <time>2018-05-29T11:10:08Z</time>
      </trkpt>
      <trkpt lat="43.74889" lon="6.35438">
        <ele>1115</ele>
        <time>2018-05-29T11:10:09Z</time>
      </trkpt>
      <trkpt lat="43.74884" lon="6.35443">
        <ele>1116</ele>
        <time>2018-05-29T11:10:10Z</time>
      </trkpt>
      <trkpt lat="43.74878" lon="6.35449">
        <ele>1116</ele>
        <time>2018-05-29T11:10:11Z</time>
      </trkpt>
      <trkpt lat="43.74872" lon="6.35452">
        <ele>1116</ele>
        <time>2018-05-29T11:10:12Z</time>
      </trkpt>
      <trkpt lat="43.74865" lon="6.35455">
        <ele>1115</ele>
        <time>2018-05-29T11:10:13Z</time>
      </trkpt>
      <trkpt lat="43.74857" lon="6.35456">
        <ele>1114</ele>
        <time>2018-05-29T11:10:14Z</time>
      </trkpt>
      <trkpt lat="43.74849" lon="6.35456">
        <ele>1113</ele>
        <time>2018-05-29T11:10:15Z</time>
      </trkpt>
      <trkpt lat="43.74794" lon="6.35459">
        <ele>1105</ele>
        <time>2018-05-29T11:10:21Z</time>
      </trkpt>
      <trkpt lat="43.74785" lon="6.35464">
        <ele>1105</ele>
        <time>2018-05-29T11:10:22Z</time>
      </trkpt>
      <trkpt lat="43.74776" lon="6.35471">
        <ele>1106</ele>
        <time>2018-05-29T11:10:23Z</time>
      </trkpt>
      <trkpt lat="43.74714" lon="6.35535">
        <ele>1100</ele>
        <time>2018-05-29T11:10:30Z</time>
      </trkpt>
      <trkpt lat="43.74709" lon="6.35546">
        <ele>1100</ele>
        <time>2018-05-29T11:10:31Z</time>
      </trkpt>
      <trkpt lat="43.74704" lon="6.3556">
        <ele>1101</ele>
        <time>2018-05-29T11:10:32Z</time>
      </trkpt>
      <trkpt lat="43.74703" lon="6.35575">
        <ele>1102</ele>
        <time>2018-05-29T11:10:33Z</time>
      </trkpt>
      <trkpt lat="43.74703" lon="6.35592">
        <ele>1104</ele>
        <time>2018-05-29T11:10:34Z</time>
      </trkpt>
      <trkpt lat="43.74704" lon="6.35605">
        <ele>1106</ele>
        <time>2018-05-29T11:10:35Z</time>
      </trkpt>
      <trkpt lat="43.74704" lon="6.35615">
        <ele>1107</ele>
        <time>2018-05-29T11:10:36Z</time>
      </trkpt>
      <trkpt lat="43.747" lon="6.35625">
        <ele>1105</ele>
        <time>2018-05-29T11:10:37Z</time>
      </trkpt>
      <trkpt lat="43.74695" lon="6.35629">
        <ele>1101</ele>
        <time>2018-05-29T11:10:38Z</time>
      </trkpt>
      <trkpt lat="43.7469" lon="6.35627">
        <ele>1097</ele>
        <time>2018-05-29T11:10:39Z</time>
      </trkpt>
      <trkpt lat="43.74686" lon="6.35621">
        <ele>1093</ele>
        <time>2018-05-29T11:10:40Z</time>
      </trkpt>
      <trkpt lat="43.74684" lon="6.35612">
        <ele>1092</ele>
        <time>2018-05-29T11:10:41Z</time>
      </trkpt>
      <trkpt lat="43.74685" lon="6.356">
        <ele>1092</ele>
        <time>2018-05-29T11:10:42Z</time>
      </trkpt>
      <trkpt lat="43.74686" lon="6.35591">
        <ele>1092</ele>
        <time>2018-05-29T11:10:43Z</time>
      </trkpt>
      <trkpt lat="43.74686" lon="6.35579">
        <ele>1092</ele>
        <time>2018-05-29T11:10:44Z</time>
      </trkpt>
      <trkpt lat="43.74686" lon="6.35566">
        <ele>1091</ele>
        <time>2018-05-29T11:10:45Z</time>
      </trkpt>
      <trkpt lat="43.74683" lon="6.35552">
        <ele>1088</ele>
        <time>2018-05-29T11:10:46Z</time>
      </trkpt>
      <trkpt lat="43.74679" lon="6.35541">
        <ele>1086</ele>
        <time>2018-05-29T11:10:47Z</time>
      </trkpt>
      <trkpt lat="43.74674" lon="6.35528">
        <ele>1084</ele>
        <time>2018-05-29T11:10:48Z</time>
      </trkpt>
      <trkpt lat="43.74668" lon="6.35516">
        <ele>1083</ele>
        <time>2018-05-29T11:10:49Z</time>
      </trkpt>
      <trkpt lat="43.7466" lon="6.35503">
        <ele>1080</ele>
        <time>2018-05-29T11:10:50Z</time>
      </trkpt>
      <trkpt lat="43.74625" lon="6.35451">
        <ele>1074</ele>
        <time>2018-05-29T11:10:55Z</time>
      </trkpt>
      <trkpt lat="43.74622" lon="6.35444">
        <ele>1074</ele>
        <time>2018-05-29T11:10:56Z</time>
      </trkpt>
      <trkpt lat="43.7462" lon="6.35439">
        <ele>1073</ele>
        <time>2018-05-29T11:10:57Z</time>
      </trkpt>
      <trkpt lat="43.74617" lon="6.35434">
        <ele>1073</ele>
        <time>2018-05-29T11:10:58Z</time>
      </trkpt>
      <trkpt lat="43.74616" lon="6.35431">
        <ele>1073</ele>
        <time>2018-05-29T11:10:59Z</time>
      </trkpt>
      <trkpt lat="43.74613" lon="6.3543">
        <ele>1073</ele>
        <time>2018-05-29T11:11:00Z</time>
      </trkpt>
      <trkpt lat="43.74611" lon="6.3543">
        <ele>1073</ele>
        <time>2018-05-29T11:11:01Z</time>
      </trkpt>
      <trkpt lat="43.74607" lon="6.35431">
        <ele>1074</ele>
        <time>2018-05-29T11:11:02Z</time>
      </trkpt>
      <trkpt lat="43.74578" lon="6.35446">
        <ele>1073</ele>
        <time>2018-05-29T11:11:12Z</time>
      </trkpt>
      <trkpt lat="43.74558" lon="6.35458">
        <ele>1070</ele>
        <time>2018-05-29T11:11:16Z</time>
      </trkpt>
      <trkpt lat="43.74492" lon="6.35533">
        <ele>1061</ele>
        <time>2018-05-29T11:11:26Z</time>
      </trkpt>
      <trkpt lat="43.74468" lon="6.35564">
        <ele>1057</ele>
        <time>2018-05-29T11:11:29Z</time>
      </trkpt>
      <trkpt lat="43.74402" lon="6.3571">
        <ele>1045</ele>
        <time>2018-05-29T11:11:39Z</time>
      </trkpt>
      <trkpt lat="43.74395" lon="6.3574">
        <ele>1044</ele>
        <time>2018-05-29T11:11:41Z</time>
      </trkpt>
      <trkpt lat="43.74391" lon="6.35768">
        <ele>1038</ele>
        <time>2018-05-29T11:11:43Z</time>
      </trkpt>
      <trkpt lat="43.74388" lon="6.35776">
        <ele>1036</ele>
        <time>2018-05-29T11:11:44Z</time>
      </trkpt>
      <trkpt lat="43.74384" lon="6.35781">
        <ele>1035</ele>
        <time>2018-05-29T11:11:45Z</time>
      </trkpt>
      <trkpt lat="43.7438" lon="6.35782">
        <ele>1034</ele>
        <time>2018-05-29T11:11:46Z</time>
      </trkpt>
      <trkpt lat="43.74376" lon="6.35781">
        <ele>1033</ele>
        <time>2018-05-29T11:11:47Z</time>
      </trkpt>
      <trkpt lat="43.74374" lon="6.35779">
        <ele>1033</ele>
        <time>2018-05-29T11:11:48Z</time>
      </trkpt>
      <trkpt lat="43.74372" lon="6.35777">
        <ele>1033</ele>
        <time>2018-05-29T11:11:49Z</time>
      </trkpt>
      <trkpt lat="43.74371" lon="6.35774">
        <ele>1033</ele>
        <time>2018-05-29T11:11:50Z</time>
      </trkpt>
      <trkpt lat="43.7437" lon="6.3577">
        <ele>1033</ele>
        <time>2018-05-29T11:11:51Z</time>
      </trkpt>
      <trkpt lat="43.7437" lon="6.35767">
        <ele>1033</ele>
        <time>2018-05-29T11:11:52Z</time>
      </trkpt>
      <trkpt lat="43.7437" lon="6.3576">
        <ele>1033</ele>
        <time>2018-05-29T11:12:03Z</time>
      </trkpt>
      <trkpt lat="43.7437" lon="6.3576">
        <ele>1033</ele>
        <time>2018-05-29T11:12:35Z</time>
      </trkpt>
      <trkpt lat="43.74369" lon="6.35762">
        <ele>1033</ele>
        <time>2018-05-29T11:12:59Z</time>
      </trkpt>
      <trkpt lat="43.74369" lon="6.35763">
        <ele>1033</ele>
        <time>2018-05-29T11:13:25Z</time>
      </trkpt>
      <trkpt lat="43.74368" lon="6.35762">
        <ele>1033</ele>
        <time>2018-05-29T11:13:53Z</time>
      </trkpt>
      <trkpt lat="43.74369" lon="6.35762">
        <ele>1033</ele>
        <time>2018-05-29T11:14:26Z</time>
      </trkpt>
      <trkpt lat="43.7437" lon="6.35764">
        <ele>1033</ele>
        <time>2018-05-29T11:14:58Z</time>
      </trkpt>
      <trkpt lat="43.74369" lon="6.35763">
        <ele>1033</ele>
        <time>2018-05-29T11:15:16Z</time>
      </trkpt>
      <trkpt lat="43.74372" lon="6.35756">
        <ele>1034</ele>
        <time>2018-05-29T11:15:19Z</time>
      </trkpt>
      <trkpt lat="43.74373" lon="6.35753">
        <ele>1035</ele>
        <time>2018-05-29T11:15:20Z</time>
      </trkpt>
      <trkpt lat="43.74374" lon="6.3575">
        <ele>1035</ele>
        <time>2018-05-29T11:15:21Z</time>
      </trkpt>
      <trkpt lat="43.74375" lon="6.35745">
        <ele>1036</ele>
        <time>2018-05-29T11:15:22Z</time>
      </trkpt>
      <trkpt lat="43.7438" lon="6.35715">
        <ele>1036</ele>
        <time>2018-05-29T11:15:27Z</time>
      </trkpt>
      <trkpt lat="43.74385" lon="6.35605">
        <ele>1028</ele>
        <time>2018-05-29T11:15:37Z</time>
      </trkpt>
      <trkpt lat="43.74389" lon="6.35578">
        <ele>1025</ele>
        <time>2018-05-29T11:15:39Z</time>
      </trkpt>
      <trkpt lat="43.74392" lon="6.35565">
        <ele>1024</ele>
        <time>2018-05-29T11:15:40Z</time>
      </trkpt>
      <trkpt lat="43.74424" lon="6.35461">
        <ele>1016</ele>
        <time>2018-05-29T11:15:47Z</time>
      </trkpt>
      <trkpt lat="43.7443" lon="6.35451">
        <ele>1016</ele>
        <time>2018-05-29T11:15:48Z</time>
      </trkpt>
      <trkpt lat="43.74443" lon="6.35434">
        <ele>1018</ele>
        <time>2018-05-29T11:15:50Z</time>
      </trkpt>
      <trkpt lat="43.74446" lon="6.35425">
        <ele>1017</ele>
        <time>2018-05-29T11:15:51Z</time>
      </trkpt>
      <trkpt lat="43.74447" lon="6.35417">
        <ele>1016</ele>
        <time>2018-05-29T11:15:52Z</time>
      </trkpt>
      <trkpt lat="43.74445" lon="6.35411">
        <ele>1013</ele>
        <time>2018-05-29T11:15:53Z</time>
      </trkpt>
      <trkpt lat="43.74442" lon="6.35408">
        <ele>1011</ele>
        <time>2018-05-29T11:15:54Z</time>
      </trkpt>
      <trkpt lat="43.74439" lon="6.35406">
        <ele>1009</ele>
        <time>2018-05-29T11:15:55Z</time>
      </trkpt>
      <trkpt lat="43.74436" lon="6.35405">
        <ele>1008</ele>
        <time>2018-05-29T11:15:56Z</time>
      </trkpt>
      <trkpt lat="43.74433" lon="6.35406">
        <ele>1007</ele>
        <time>2018-05-29T11:15:57Z</time>
      </trkpt>
      <trkpt lat="43.74431" lon="6.35408">
        <ele>1007</ele>
        <time>2018-05-29T11:15:58Z</time>
      </trkpt>
      <trkpt lat="43.74428" lon="6.35411">
        <ele>1006</ele>
        <time>2018-05-29T11:15:59Z</time>
      </trkpt>
      <trkpt lat="43.74426" lon="6.35416">
        <ele>1007</ele>
        <time>2018-05-29T11:16:00Z</time>
      </trkpt>
      <trkpt lat="43.74424" lon="6.35421">
        <ele>1007</ele>
        <time>2018-05-29T11:16:01Z</time>
      </trkpt>
      <trkpt lat="43.74423" lon="6.35427">
        <ele>1008</ele>
        <time>2018-05-29T11:16:02Z</time>
      </trkpt>
      <trkpt lat="43.7442" lon="6.35434">
        <ele>1009</ele>
        <time>2018-05-29T11:16:03Z</time>
      </trkpt>
      <trkpt lat="43.74417" lon="6.3544">
        <ele>1009</ele>
        <time>2018-05-29T11:16:04Z</time>
      </trkpt>
      <trkpt lat="43.74414" lon="6.35447">
        <ele>1009</ele>
        <time>2018-05-29T11:16:05Z</time>
      </trkpt>
      <trkpt lat="43.7441" lon="6.35454">
        <ele>1009</ele>
        <time>2018-05-29T11:16:06Z</time>
      </trkpt>
      <trkpt lat="43.74406" lon="6.35461">
        <ele>1009</ele>
        <time>2018-05-29T11:16:07Z</time>
      </trkpt>
      <trkpt lat="43.74327" lon="6.35573">
        <ele>998</ele>
        <time>2018-05-29T11:16:21Z</time>
      </trkpt>
      <trkpt lat="43.74311" lon="6.35602">
        <ele>998</ele>
        <time>2018-05-29T11:16:24Z</time>
      </trkpt>
      <trkpt lat="43.74308" lon="6.35612">
        <ele>998</ele>
        <time>2018-05-29T11:16:25Z</time>
      </trkpt>
      <trkpt lat="43.74303" lon="6.35631">
        <ele>998</ele>
        <time>2018-05-29T11:16:27Z</time>
      </trkpt>
      <trkpt lat="43.74297" lon="6.35636">
        <ele>997</ele>
        <time>2018-05-29T11:16:28Z</time>
      </trkpt>
      <trkpt lat="43.74291" lon="6.35637">
        <ele>995</ele>
        <time>2018-05-29T11:16:29Z</time>
      </trkpt>
      <trkpt lat="43.74286" lon="6.35633">
        <ele>993</ele>
        <time>2018-05-29T11:16:30Z</time>
      </trkpt>
      <trkpt lat="43.74284" lon="6.35626">
        <ele>992</ele>
        <time>2018-05-29T11:16:31Z</time>
      </trkpt>
      <trkpt lat="43.74285" lon="6.35617">
        <ele>991</ele>
        <time>2018-05-29T11:16:32Z</time>
      </trkpt>
      <trkpt lat="43.74288" lon="6.3561">
        <ele>992</ele>
        <time>2018-05-29T11:16:33Z</time>
      </trkpt>
      <trkpt lat="43.74293" lon="6.35603">
        <ele>992</ele>
        <time>2018-05-29T11:16:34Z</time>
      </trkpt>
      <trkpt lat="43.74329" lon="6.3551">
        <ele>988</ele>
        <time>2018-05-29T11:16:43Z</time>
      </trkpt>
      <trkpt lat="43.74378" lon="6.35353">
        <ele>972</ele>
        <time>2018-05-29T11:16:53Z</time>
      </trkpt>
      <trkpt lat="43.74454" lon="6.35113">
        <ele>949</ele>
        <time>2018-05-29T11:17:06Z</time>
      </trkpt>
      <trkpt lat="43.74462" lon="6.351">
        <ele>947</ele>
        <time>2018-05-29T11:17:07Z</time>
      </trkpt>
      <trkpt lat="43.7447" lon="6.35088">
        <ele>946</ele>
        <time>2018-05-29T11:17:08Z</time>
      </trkpt>
      <trkpt lat="43.74479" lon="6.35077">
        <ele>945</ele>
        <time>2018-05-29T11:17:09Z</time>
      </trkpt>
      <trkpt lat="43.74489" lon="6.35069">
        <ele>943</ele>
        <time>2018-05-29T11:17:10Z</time>
      </trkpt>
      <trkpt lat="43.74499" lon="6.35063">
        <ele>941</ele>
        <time>2018-05-29T11:17:11Z</time>
      </trkpt>
      <trkpt lat="43.7451" lon="6.35058">
        <ele>940</ele>
        <time>2018-05-29T11:17:12Z</time>
      </trkpt>
      <trkpt lat="43.74521" lon="6.35056">
        <ele>939</ele>
        <time>2018-05-29T11:17:13Z</time>
      </trkpt>
      <trkpt lat="43.74532" lon="6.35056">
        <ele>938</ele>
        <time>2018-05-29T11:17:14Z</time>
      </trkpt>
      <trkpt lat="43.74544" lon="6.35057">
        <ele>937</ele>
        <time>2018-05-29T11:17:15Z</time>
      </trkpt>
      <trkpt lat="43.7467" lon="6.35081">
        <ele>930</ele>
        <time>2018-05-29T11:17:25Z</time>
      </trkpt>
      <trkpt lat="43.74748" lon="6.35072">
        <ele>923</ele>
        <time>2018-05-29T11:17:31Z</time>
      </trkpt>
      <trkpt lat="43.74762" lon="6.35068">
        <ele>924</ele>
        <time>2018-05-29T11:17:32Z</time>
      </trkpt>
      <trkpt lat="43.74773" lon="6.35061">
        <ele>924</ele>
        <time>2018-05-29T11:17:33Z</time>
      </trkpt>
      <trkpt lat="43.74784" lon="6.35051">
        <ele>923</ele>
        <time>2018-05-29T11:17:34Z</time>
      </trkpt>
      <trkpt lat="43.74791" lon="6.3504">
        <ele>921</ele>
        <time>2018-05-29T11:17:35Z</time>
      </trkpt>
      <trkpt lat="43.74796" lon="6.35027">
        <ele>919</ele>
        <time>2018-05-29T11:17:36Z</time>
      </trkpt>
      <trkpt lat="43.74798" lon="6.35012">
        <ele>920</ele>
        <time>2018-05-29T11:17:37Z</time>
      </trkpt>
      <trkpt lat="43.74796" lon="6.34997">
        <ele>922</ele>
        <time>2018-05-29T11:17:38Z</time>
      </trkpt>
      <trkpt lat="43.74793" lon="6.34985">
        <ele>922</ele>
        <time>2018-05-29T11:17:39Z</time>
      </trkpt>
      <trkpt lat="43.74788" lon="6.34973">
        <ele>921</ele>
        <time>2018-05-29T11:17:40Z</time>
      </trkpt>
      <trkpt lat="43.74783" lon="6.3496">
        <ele>918</ele>
        <time>2018-05-29T11:17:41Z</time>
      </trkpt>
      <trkpt lat="43.74779" lon="6.34947">
        <ele>915</ele>
        <time>2018-05-29T11:17:42Z</time>
      </trkpt>
      <trkpt lat="43.74775" lon="6.34935">
        <ele>913</ele>
        <time>2018-05-29T11:17:43Z</time>
      </trkpt>
      <trkpt lat="43.74774" lon="6.34922">
        <ele>912</ele>
        <time>2018-05-29T11:17:44Z</time>
      </trkpt>
      <trkpt lat="43.74774" lon="6.34909">
        <ele>913</ele>
        <time>2018-05-29T11:17:45Z</time>
      </trkpt>
      <trkpt lat="43.74776" lon="6.34897">
        <ele>914</ele>
        <time>2018-05-29T11:17:46Z</time>
      </trkpt>
      <trkpt lat="43.74779" lon="6.34885">
        <ele>913</ele>
        <time>2018-05-29T11:17:47Z</time>
      </trkpt>
      <trkpt lat="43.74783" lon="6.34874">
        <ele>912</ele>
        <time>2018-05-29T11:17:48Z</time>
      </trkpt>
      <trkpt lat="43.74789" lon="6.34864">
        <ele>912</ele>
        <time>2018-05-29T11:17:49Z</time>
      </trkpt>
      <trkpt lat="43.74796" lon="6.34855">
        <ele>912</ele>
        <time>2018-05-29T11:17:50Z</time>
      </trkpt>
      <trkpt lat="43.74841" lon="6.3479">
        <ele>911</ele>
        <time>2018-05-29T11:17:57Z</time>
      </trkpt>
      <trkpt lat="43.74845" lon="6.34777">
        <ele>909</ele>
        <time>2018-05-29T11:17:58Z</time>
      </trkpt>
      <trkpt lat="43.74846" lon="6.34767">
        <ele>910</ele>
        <time>2018-05-29T11:17:59Z</time>
      </trkpt>
      <trkpt lat="43.74845" lon="6.34755">
        <ele>911</ele>
        <time>2018-05-29T11:18:00Z</time>
      </trkpt>
      <trkpt lat="43.74844" lon="6.34741">
        <ele>911</ele>
        <time>2018-05-29T11:18:01Z</time>
      </trkpt>
      <trkpt lat="43.74838" lon="6.34661">
        <ele>906</ele>
        <time>2018-05-29T11:18:09Z</time>
      </trkpt>
      <trkpt lat="43.74835" lon="6.34652">
        <ele>905</ele>
        <time>2018-05-29T11:18:10Z</time>
      </trkpt>
      <trkpt lat="43.74831" lon="6.34643">
        <ele>907</ele>
        <time>2018-05-29T11:18:11Z</time>
      </trkpt>
      <trkpt lat="43.74827" lon="6.34636">
        <ele>907</ele>
        <time>2018-05-29T11:18:12Z</time>
      </trkpt>
      <trkpt lat="43.74821" lon="6.3463">
        <ele>907</ele>
        <time>2018-05-29T11:18:13Z</time>
      </trkpt>
      <trkpt lat="43.74814" lon="6.34626">
        <ele>906</ele>
        <time>2018-05-29T11:18:14Z</time>
      </trkpt>
      <trkpt lat="43.74808" lon="6.34623">
        <ele>906</ele>
        <time>2018-05-29T11:18:15Z</time>
      </trkpt>
      <trkpt lat="43.74801" lon="6.3462">
        <ele>905</ele>
        <time>2018-05-29T11:18:16Z</time>
      </trkpt>
      <trkpt lat="43.74727" lon="6.34595">
        <ele>901</ele>
        <time>2018-05-29T11:18:28Z</time>
      </trkpt>
      <trkpt lat="43.74717" lon="6.34593">
        <ele>900</ele>
        <time>2018-05-29T11:18:30Z</time>
      </trkpt>
      <trkpt lat="43.74712" lon="6.34592">
        <ele>899</ele>
        <time>2018-05-29T11:18:31Z</time>
      </trkpt>
      <trkpt lat="43.74708" lon="6.3459">
        <ele>899</ele>
        <time>2018-05-29T11:18:32Z</time>
      </trkpt>
      <trkpt lat="43.74704" lon="6.34589">
        <ele>898</ele>
        <time>2018-05-29T11:18:33Z</time>
      </trkpt>
      <trkpt lat="43.74701" lon="6.34588">
        <ele>898</ele>
        <time>2018-05-29T11:18:34Z</time>
      </trkpt>
      <trkpt lat="43.74697" lon="6.34586">
        <ele>898</ele>
        <time>2018-05-29T11:18:35Z</time>
      </trkpt>
      <trkpt lat="43.74695" lon="6.34584">
        <ele>898</ele>
        <time>2018-05-29T11:18:36Z</time>
      </trkpt>
      <trkpt lat="43.74691" lon="6.34582">
        <ele>897</ele>
        <time>2018-05-29T11:18:37Z</time>
      </trkpt>
      <trkpt lat="43.74688" lon="6.34581">
        <ele>897</ele>
        <time>2018-05-29T11:18:38Z</time>
      </trkpt>
      <trkpt lat="43.74686" lon="6.3458">
        <ele>897</ele>
        <time>2018-05-29T11:18:39Z</time>
      </trkpt>
      <trkpt lat="43.74687" lon="6.3458">
        <ele>897</ele>
        <time>2018-05-29T11:18:48Z</time>
      </trkpt>
      <trkpt lat="43.74687" lon="6.34579">
        <ele>898</ele>
        <time>2018-05-29T11:19:09Z</time>
      </trkpt>
      <trkpt lat="43.74687" lon="6.34581">
        <ele>897</ele>
        <time>2018-05-29T11:19:40Z</time>
      </trkpt>
      <trkpt lat="43.74687" lon="6.3458">
        <ele>897</ele>
        <time>2018-05-29T11:20:02Z</time>
      </trkpt>
      <trkpt lat="43.74688" lon="6.3458">
        <ele>897</ele>
        <time>2018-05-29T11:20:34Z</time>
      </trkpt>
      <trkpt lat="43.74689" lon="6.34582">
        <ele>897</ele>
        <time>2018-05-29T11:21:03Z</time>
      </trkpt>
      <trkpt lat="43.74691" lon="6.34582">
        <ele>897</ele>
        <time>2018-05-29T11:21:35Z</time>
      </trkpt>
      <trkpt lat="43.74691" lon="6.34579">
        <ele>899</ele>
        <time>2018-05-29T11:22:01Z</time>
      </trkpt>
      <trkpt lat="43.74691" lon="6.34578">
        <ele>899</ele>
        <time>2018-05-29T11:22:35Z</time>
      </trkpt>
      <trkpt lat="43.7469" lon="6.34575">
        <ele>899</ele>
        <time>2018-05-29T11:22:53Z</time>
      </trkpt>
      <trkpt lat="43.74689" lon="6.34573">
        <ele>899</ele>
        <time>2018-05-29T11:22:57Z</time>
      </trkpt>
      <trkpt lat="43.74688" lon="6.34572">
        <ele>899</ele>
        <time>2018-05-29T11:22:58Z</time>
      </trkpt>
      <trkpt lat="43.74667" lon="6.34545">
        <ele>898</ele>
        <time>2018-05-29T11:23:11Z</time>
      </trkpt>
      <trkpt lat="43.74642" lon="6.34504">
        <ele>896</ele>
        <time>2018-05-29T11:23:22Z</time>
      </trkpt>
      <trkpt lat="43.7464" lon="6.34498">
        <ele>895</ele>
        <time>2018-05-29T11:23:23Z</time>
      </trkpt>
      <trkpt lat="43.7464" lon="6.34492">
        <ele>895</ele>
        <time>2018-05-29T11:23:24Z</time>
      </trkpt>
      <trkpt lat="43.7464" lon="6.34474">
        <ele>895</ele>
        <time>2018-05-29T11:23:27Z</time>
      </trkpt>
      <trkpt lat="43.74641" lon="6.34455">
        <ele>896</ele>
        <time>2018-05-29T11:23:30Z</time>
      </trkpt>
      <trkpt lat="43.74647" lon="6.34409">
        <ele>893</ele>
        <time>2018-05-29T11:23:35Z</time>
      </trkpt>
      <trkpt lat="43.7465" lon="6.3434">
        <ele>889</ele>
        <time>2018-05-29T11:23:41Z</time>
      </trkpt>
      <trkpt lat="43.74649" lon="6.34328">
        <ele>888</ele>
        <time>2018-05-29T11:23:42Z</time>
      </trkpt>
      <trkpt lat="43.74647" lon="6.34316">
        <ele>887</ele>
        <time>2018-05-29T11:23:43Z</time>
      </trkpt>
      <trkpt lat="43.74617" lon="6.34195">
        <ele>879</ele>
        <time>2018-05-29T11:23:52Z</time>
      </trkpt>
      <trkpt lat="43.7461" lon="6.34181">
        <ele>877</ele>
        <time>2018-05-29T11:23:53Z</time>
      </trkpt>
      <trkpt lat="43.74602" lon="6.34168">
        <ele>875</ele>
        <time>2018-05-29T11:23:54Z</time>
      </trkpt>
      <trkpt lat="43.74594" lon="6.34156">
        <ele>874</ele>
        <time>2018-05-29T11:23:55Z</time>
      </trkpt>
      <trkpt lat="43.74586" lon="6.34145">
        <ele>873</ele>
        <time>2018-05-29T11:23:56Z</time>
      </trkpt>
      <trkpt lat="43.74567" lon="6.34114">
        <ele>866</ele>
        <time>2018-05-29T11:23:59Z</time>
      </trkpt>
      <trkpt lat="43.74564" lon="6.34103">
        <ele>865</ele>
        <time>2018-05-29T11:24:00Z</time>
      </trkpt>
      <trkpt lat="43.74564" lon="6.34092">
        <ele>865</ele>
        <time>2018-05-29T11:24:01Z</time>
      </trkpt>
      <trkpt lat="43.74567" lon="6.34081">
        <ele>867</ele>
        <time>2018-05-29T11:24:02Z</time>
      </trkpt>
      <trkpt lat="43.74571" lon="6.3407">
        <ele>870</ele>
        <time>2018-05-29T11:24:03Z</time>
      </trkpt>
      <trkpt lat="43.74582" lon="6.34033">
        <ele>873</ele>
        <time>2018-05-29T11:24:06Z</time>
      </trkpt>
      <trkpt lat="43.7458" lon="6.34018">
        <ele>870</ele>
        <time>2018-05-29T11:24:07Z</time>
      </trkpt>
      <trkpt lat="43.74576" lon="6.34007">
        <ele>866</ele>
        <time>2018-05-29T11:24:08Z</time>
      </trkpt>
      <trkpt lat="43.74571" lon="6.33995">
        <ele>864</ele>
        <time>2018-05-29T11:24:09Z</time>
      </trkpt>
      <trkpt lat="43.74567" lon="6.33983">
        <ele>862</ele>
        <time>2018-05-29T11:24:10Z</time>
      </trkpt>
      <trkpt lat="43.74563" lon="6.3397">
        <ele>861</ele>
        <time>2018-05-29T11:24:11Z</time>
      </trkpt>
      <trkpt lat="43.74557" lon="6.33944">
        <ele>860</ele>
        <time>2018-05-29T11:24:13Z</time>
      </trkpt>
      <trkpt lat="43.74557" lon="6.33929">
        <ele>858</ele>
        <time>2018-05-29T11:24:14Z</time>
      </trkpt>
      <trkpt lat="43.7456" lon="6.33917">
        <ele>859</ele>
        <time>2018-05-29T11:24:15Z</time>
      </trkpt>
      <trkpt lat="43.74565" lon="6.33893">
        <ele>860</ele>
        <time>2018-05-29T11:24:17Z</time>
      </trkpt>
      <trkpt lat="43.74563" lon="6.3388">
        <ele>860</ele>
        <time>2018-05-29T11:24:18Z</time>
      </trkpt>
      <trkpt lat="43.7456" lon="6.33868">
        <ele>860</ele>
        <time>2018-05-29T11:24:19Z</time>
      </trkpt>
      <trkpt lat="43.74545" lon="6.33833">
        <ele>856</ele>
        <time>2018-05-29T11:24:22Z</time>
      </trkpt>
      <trkpt lat="43.74527" lon="6.33801">
        <ele>844</ele>
        <time>2018-05-29T11:24:28Z</time>
      </trkpt>
      <trkpt lat="43.74525" lon="6.33802">
        <ele>843</ele>
        <time>2018-05-29T11:24:39Z</time>
      </trkpt>
      <trkpt lat="43.74526" lon="6.33802">
        <ele>843</ele>
        <time>2018-05-29T11:25:04Z</time>
      </trkpt>
      <trkpt lat="43.74526" lon="6.33802">
        <ele>843</ele>
        <time>2018-05-29T11:25:29Z</time>
      </trkpt>
      <trkpt lat="43.74525" lon="6.33802">
        <ele>843</ele>
        <time>2018-05-29T11:25:55Z</time>
      </trkpt>
      <trkpt lat="43.74527" lon="6.33802">
        <ele>843</ele>
        <time>2018-05-29T11:26:16Z</time>
      </trkpt>
      <trkpt lat="43.74527" lon="6.33802">
        <ele>844</ele>
        <time>2018-05-29T11:26:36Z</time>
      </trkpt>
      <trkpt lat="43.74528" lon="6.33802">
        <ele>844</ele>
        <time>2018-05-29T11:26:56Z</time>
      </trkpt>
      <trkpt lat="43.74529" lon="6.33801">
        <ele>845</ele>
        <time>2018-05-29T11:27:15Z</time>
      </trkpt>
      <trkpt lat="43.7453" lon="6.338">
        <ele>846</ele>
        <time>2018-05-29T11:27:17Z</time>
      </trkpt>
      <trkpt lat="43.74532" lon="6.33799">
        <ele>847</ele>
        <time>2018-05-29T11:27:18Z</time>
      </trkpt>
      <trkpt lat="43.74547" lon="6.33762">
        <ele>859</ele>
        <time>2018-05-29T11:27:28Z</time>
      </trkpt>
      <trkpt lat="43.74548" lon="6.33757">
        <ele>858</ele>
        <time>2018-05-29T11:27:29Z</time>
      </trkpt>
      <trkpt lat="43.74552" lon="6.3374">
        <ele>853</ele>
        <time>2018-05-29T11:27:32Z</time>
      </trkpt>
      <trkpt lat="43.74554" lon="6.33736">
        <ele>853</ele>
        <time>2018-05-29T11:27:33Z</time>
      </trkpt>
      <trkpt lat="43.74557" lon="6.33732">
        <ele>854</ele>
        <time>2018-05-29T11:27:34Z</time>
      </trkpt>
      <trkpt lat="43.74561" lon="6.33728">
        <ele>855</ele>
        <time>2018-05-29T11:27:35Z</time>
      </trkpt>
      <trkpt lat="43.74565" lon="6.33724">
        <ele>856</ele>
        <time>2018-05-29T11:27:36Z</time>
      </trkpt>
      <trkpt lat="43.74572" lon="6.33716">
        <ele>858</ele>
        <time>2018-05-29T11:27:38Z</time>
      </trkpt>
      <trkpt lat="43.74575" lon="6.3371">
        <ele>857</ele>
        <time>2018-05-29T11:27:39Z</time>
      </trkpt>
      <trkpt lat="43.74576" lon="6.33704">
        <ele>856</ele>
        <time>2018-05-29T11:27:40Z</time>
      </trkpt>
      <trkpt lat="43.74577" lon="6.33697">
        <ele>854</ele>
        <time>2018-05-29T11:27:41Z</time>
      </trkpt>
      <trkpt lat="43.74578" lon="6.3369">
        <ele>853</ele>
        <time>2018-05-29T11:27:42Z</time>
      </trkpt>
      <trkpt lat="43.74578" lon="6.33684">
        <ele>852</ele>
        <time>2018-05-29T11:27:43Z</time>
      </trkpt>
      <trkpt lat="43.74578" lon="6.33678">
        <ele>851</ele>
        <time>2018-05-29T11:27:44Z</time>
      </trkpt>
      <trkpt lat="43.74579" lon="6.33672">
        <ele>850</ele>
        <time>2018-05-29T11:27:45Z</time>
      </trkpt>
      <trkpt lat="43.7458" lon="6.33667">
        <ele>849</ele>
        <time>2018-05-29T11:27:46Z</time>
      </trkpt>
      <trkpt lat="43.74582" lon="6.33661">
        <ele>849</ele>
        <time>2018-05-29T11:27:47Z</time>
      </trkpt>
      <trkpt lat="43.74585" lon="6.33655">
        <ele>849</ele>
        <time>2018-05-29T11:27:48Z</time>
      </trkpt>
      <trkpt lat="43.74588" lon="6.33651">
        <ele>850</ele>
        <time>2018-05-29T11:27:49Z</time>
      </trkpt>
      <trkpt lat="43.74592" lon="6.33647">
        <ele>851</ele>
        <time>2018-05-29T11:27:50Z</time>
      </trkpt>
      <trkpt lat="43.74596" lon="6.33643">
        <ele>852</ele>
        <time>2018-05-29T11:27:51Z</time>
      </trkpt>
      <trkpt lat="43.74623" lon="6.33619">
        <ele>852</ele>
        <time>2018-05-29T11:27:57Z</time>
      </trkpt>
      <trkpt lat="43.74628" lon="6.33616">
        <ele>853</ele>
        <time>2018-05-29T11:27:58Z</time>
      </trkpt>
      <trkpt lat="43.74657" lon="6.33589">
        <ele>854</ele>
        <time>2018-05-29T11:28:04Z</time>
      </trkpt>
      <trkpt lat="43.74661" lon="6.33583">
        <ele>854</ele>
        <time>2018-05-29T11:28:05Z</time>
      </trkpt>
      <trkpt lat="43.74663" lon="6.33577">
        <ele>855</ele>
        <time>2018-05-29T11:28:06Z</time>
      </trkpt>
      <trkpt lat="43.74665" lon="6.3357">
        <ele>856</ele>
        <time>2018-05-29T11:28:07Z</time>
      </trkpt>
      <trkpt lat="43.74668" lon="6.33565">
        <ele>857</ele>
        <time>2018-05-29T11:28:08Z</time>
      </trkpt>
      <trkpt lat="43.74669" lon="6.33559">
        <ele>858</ele>
        <time>2018-05-29T11:28:09Z</time>
      </trkpt>
      <trkpt lat="43.7467" lon="6.33553">
        <ele>858</ele>
        <time>2018-05-29T11:28:10Z</time>
      </trkpt>
      <trkpt lat="43.74671" lon="6.33545">
        <ele>858</ele>
        <time>2018-05-29T11:28:11Z</time>
      </trkpt>
      <trkpt lat="43.7467" lon="6.33538">
        <ele>857</ele>
        <time>2018-05-29T11:28:12Z</time>
      </trkpt>
      <trkpt lat="43.74668" lon="6.33531">
        <ele>855</ele>
        <time>2018-05-29T11:28:13Z</time>
      </trkpt>
      <trkpt lat="43.74666" lon="6.33524">
        <ele>852</ele>
        <time>2018-05-29T11:28:14Z</time>
      </trkpt>
      <trkpt lat="43.74663" lon="6.33517">
        <ele>850</ele>
        <time>2018-05-29T11:28:15Z</time>
      </trkpt>
      <trkpt lat="43.74653" lon="6.335">
        <ele>843</ele>
        <time>2018-05-29T11:28:19Z</time>
      </trkpt>
      <trkpt lat="43.74651" lon="6.33499">
        <ele>841</ele>
        <time>2018-05-29T11:28:20Z</time>
      </trkpt>
      <trkpt lat="43.7465" lon="6.33499">
        <ele>840</ele>
        <time>2018-05-29T11:28:21Z</time>
      </trkpt>
      <trkpt lat="43.74644" lon="6.33499">
        <ele>835</ele>
        <time>2018-05-29T11:28:31Z</time>
      </trkpt>
      <trkpt lat="43.74644" lon="6.33499">
        <ele>835</ele>
        <time>2018-05-29T11:28:41Z</time>
      </trkpt>
      <trkpt lat="43.74646" lon="6.33494">
        <ele>837</ele>
        <time>2018-05-29T11:28:44Z</time>
      </trkpt>
      <trkpt lat="43.74649" lon="6.3347">
        <ele>841</ele>
        <time>2018-05-29T11:28:52Z</time>
      </trkpt>
      <trkpt lat="43.74644" lon="6.33466">
        <ele>837</ele>
        <time>2018-05-29T11:29:03Z</time>
      </trkpt>
      <trkpt lat="43.74644" lon="6.33465">
        <ele>837</ele>
        <time>2018-05-29T11:29:27Z</time>
      </trkpt>
      <trkpt lat="43.74645" lon="6.33463">
        <ele>839</ele>
        <time>2018-05-29T11:29:29Z</time>
      </trkpt>
      <trkpt lat="43.74646" lon="6.3346">
        <ele>839</ele>
        <time>2018-05-29T11:29:32Z</time>
      </trkpt>
      <trkpt lat="43.74652" lon="6.33458">
        <ele>844</ele>
        <time>2018-05-29T11:29:36Z</time>
      </trkpt>
      <trkpt lat="43.74654" lon="6.33457">
        <ele>845</ele>
        <time>2018-05-29T11:29:37Z</time>
      </trkpt>
      <trkpt lat="43.74656" lon="6.33455">
        <ele>846</ele>
        <time>2018-05-29T11:29:38Z</time>
      </trkpt>
      <trkpt lat="43.74659" lon="6.33452">
        <ele>847</ele>
        <time>2018-05-29T11:29:39Z</time>
      </trkpt>
      <trkpt lat="43.74661" lon="6.33449">
        <ele>848</ele>
        <time>2018-05-29T11:29:40Z</time>
      </trkpt>
      <trkpt lat="43.74663" lon="6.33445">
        <ele>848</ele>
        <time>2018-05-29T11:29:41Z</time>
      </trkpt>
      <trkpt lat="43.74666" lon="6.33439">
        <ele>848</ele>
        <time>2018-05-29T11:29:42Z</time>
      </trkpt>
      <trkpt lat="43.74681" lon="6.33409">
        <ele>851</ele>
        <time>2018-05-29T11:29:47Z</time>
      </trkpt>
      <trkpt lat="43.74683" lon="6.33401">
        <ele>850</ele>
        <time>2018-05-29T11:29:48Z</time>
      </trkpt>
      <trkpt lat="43.74683" lon="6.33393">
        <ele>850</ele>
        <time>2018-05-29T11:29:49Z</time>
      </trkpt>
      <trkpt lat="43.74683" lon="6.33384">
        <ele>849</ele>
        <time>2018-05-29T11:29:50Z</time>
      </trkpt>
      <trkpt lat="43.74682" lon="6.33374">
        <ele>848</ele>
        <time>2018-05-29T11:29:51Z</time>
      </trkpt>
      <trkpt lat="43.7468" lon="6.33365">
        <ele>846</ele>
        <time>2018-05-29T11:29:52Z</time>
      </trkpt>
      <trkpt lat="43.74678" lon="6.33355">
        <ele>843</ele>
        <time>2018-05-29T11:29:53Z</time>
      </trkpt>
      <trkpt lat="43.74672" lon="6.33316">
        <ele>834</ele>
        <time>2018-05-29T11:29:57Z</time>
      </trkpt>
      <trkpt lat="43.74671" lon="6.33299">
        <ele>831</ele>
        <time>2018-05-29T11:30:03Z</time>
      </trkpt>
      <trkpt lat="43.74672" lon="6.33298">
        <ele>832</ele>
        <time>2018-05-29T11:30:04Z</time>
      </trkpt>
      <trkpt lat="43.74684" lon="6.33277">
        <ele>838</ele>
        <time>2018-05-29T11:30:10Z</time>
      </trkpt>
      <trkpt lat="43.74687" lon="6.33272">
        <ele>840</ele>
        <time>2018-05-29T11:30:11Z</time>
      </trkpt>
      <trkpt lat="43.74693" lon="6.33263">
        <ele>843</ele>
        <time>2018-05-29T11:30:13Z</time>
      </trkpt>
      <trkpt lat="43.74696" lon="6.33258">
        <ele>844</ele>
        <time>2018-05-29T11:30:14Z</time>
      </trkpt>
      <trkpt lat="43.74697" lon="6.33252">
        <ele>844</ele>
        <time>2018-05-29T11:30:15Z</time>
      </trkpt>
      <trkpt lat="43.74699" lon="6.33241">
        <ele>843</ele>
        <time>2018-05-29T11:30:17Z</time>
      </trkpt>
      <trkpt lat="43.74699" lon="6.33234">
        <ele>842</ele>
        <time>2018-05-29T11:30:18Z</time>
      </trkpt>
      <trkpt lat="43.74699" lon="6.33228">
        <ele>840</ele>
        <time>2018-05-29T11:30:19Z</time>
      </trkpt>
      <trkpt lat="43.74698" lon="6.33216">
        <ele>836</ele>
        <time>2018-05-29T11:30:21Z</time>
      </trkpt>
      <trkpt lat="43.74698" lon="6.33209">
        <ele>836</ele>
        <time>2018-05-29T11:30:22Z</time>
      </trkpt>
      <trkpt lat="43.74697" lon="6.33197">
        <ele>835</ele>
        <time>2018-05-29T11:30:24Z</time>
      </trkpt>
      <trkpt lat="43.74696" lon="6.33192">
        <ele>834</ele>
        <time>2018-05-29T11:30:25Z</time>
      </trkpt>
      <trkpt lat="43.74695" lon="6.33187">
        <ele>833</ele>
        <time>2018-05-29T11:30:26Z</time>
      </trkpt>
      <trkpt lat="43.74692" lon="6.33176">
        <ele>830</ele>
        <time>2018-05-29T11:30:29Z</time>
      </trkpt>
      <trkpt lat="43.74693" lon="6.33172">
        <ele>831</ele>
        <time>2018-05-29T11:30:30Z</time>
      </trkpt>
      <trkpt lat="43.74699" lon="6.33116">
        <ele>830</ele>
        <time>2018-05-29T11:30:41Z</time>
      </trkpt>
      <trkpt lat="43.74701" lon="6.33103">
        <ele>829</ele>
        <time>2018-05-29T11:30:43Z</time>
      </trkpt>
      <trkpt lat="43.74703" lon="6.33098">
        <ele>830</ele>
        <time>2018-05-29T11:30:44Z</time>
      </trkpt>
      <trkpt lat="43.74711" lon="6.33081">
        <ele>831</ele>
        <time>2018-05-29T11:30:47Z</time>
      </trkpt>
      <trkpt lat="43.74714" lon="6.33077">
        <ele>831</ele>
        <time>2018-05-29T11:30:48Z</time>
      </trkpt>
      <trkpt lat="43.74718" lon="6.33072">
        <ele>832</ele>
        <time>2018-05-29T11:30:49Z</time>
      </trkpt>
      <trkpt lat="43.74739" lon="6.33051">
        <ele>838</ele>
        <time>2018-05-29T11:30:54Z</time>
      </trkpt>
      <trkpt lat="43.74742" lon="6.33045">
        <ele>838</ele>
        <time>2018-05-29T11:30:55Z</time>
      </trkpt>
      <trkpt lat="43.74745" lon="6.33039">
        <ele>837</ele>
        <time>2018-05-29T11:30:56Z</time>
      </trkpt>
      <trkpt lat="43.74747" lon="6.33033">
        <ele>836</ele>
        <time>2018-05-29T11:30:57Z</time>
      </trkpt>
      <trkpt lat="43.74749" lon="6.33026">
        <ele>836</ele>
        <time>2018-05-29T11:30:58Z</time>
      </trkpt>
      <trkpt lat="43.7475" lon="6.33019">
        <ele>836</ele>
        <time>2018-05-29T11:30:59Z</time>
      </trkpt>
      <trkpt lat="43.74751" lon="6.33013">
        <ele>836</ele>
        <time>2018-05-29T11:31:00Z</time>
      </trkpt>
      <trkpt lat="43.74751" lon="6.33006">
        <ele>835</ele>
        <time>2018-05-29T11:31:01Z</time>
      </trkpt>
      <trkpt lat="43.74751" lon="6.32998">
        <ele>834</ele>
        <time>2018-05-29T11:31:02Z</time>
      </trkpt>
      <trkpt lat="43.74752" lon="6.32992">
        <ele>833</ele>
        <time>2018-05-29T11:31:03Z</time>
      </trkpt>
      <trkpt lat="43.74754" lon="6.32947">
        <ele>828</ele>
        <time>2018-05-29T11:31:09Z</time>
      </trkpt>
      <trkpt lat="43.74756" lon="6.3294">
        <ele>828</ele>
        <time>2018-05-29T11:31:10Z</time>
      </trkpt>
      <trkpt lat="43.74758" lon="6.32933">
        <ele>828</ele>
        <time>2018-05-29T11:31:11Z</time>
      </trkpt>
      <trkpt lat="43.74761" lon="6.32926">
        <ele>828</ele>
        <time>2018-05-29T11:31:12Z</time>
      </trkpt>
      <trkpt lat="43.74765" lon="6.3292">
        <ele>829</ele>
        <time>2018-05-29T11:31:13Z</time>
      </trkpt>
      <trkpt lat="43.74769" lon="6.32915">
        <ele>829</ele>
        <time>2018-05-29T11:31:14Z</time>
      </trkpt>
      <trkpt lat="43.74773" lon="6.3291">
        <ele>831</ele>
        <time>2018-05-29T11:31:15Z</time>
      </trkpt>
      <trkpt lat="43.74778" lon="6.32906">
        <ele>831</ele>
        <time>2018-05-29T11:31:16Z</time>
      </trkpt>
      <trkpt lat="43.74788" lon="6.32895">
        <ele>830</ele>
        <time>2018-05-29T11:31:18Z</time>
      </trkpt>
      <trkpt lat="43.74792" lon="6.32889">
        <ele>829</ele>
        <time>2018-05-29T11:31:19Z</time>
      </trkpt>
      <trkpt lat="43.7482" lon="6.32846">
        <ele>824</ele>
        <time>2018-05-29T11:31:26Z</time>
      </trkpt>
      <trkpt lat="43.74825" lon="6.32842">
        <ele>823</ele>
        <time>2018-05-29T11:31:27Z</time>
      </trkpt>
      <trkpt lat="43.7483" lon="6.32839">
        <ele>822</ele>
        <time>2018-05-29T11:31:28Z</time>
      </trkpt>
      <trkpt lat="43.74836" lon="6.32838">
        <ele>820</ele>
        <time>2018-05-29T11:31:29Z</time>
      </trkpt>
      <trkpt lat="43.74841" lon="6.32838">
        <ele>820</ele>
        <time>2018-05-29T11:31:30Z</time>
      </trkpt>
      <trkpt lat="43.74846" lon="6.32839">
        <ele>821</ele>
        <time>2018-05-29T11:31:31Z</time>
      </trkpt>
      <trkpt lat="43.74851" lon="6.32841">
        <ele>822</ele>
        <time>2018-05-29T11:31:32Z</time>
      </trkpt>
      <trkpt lat="43.74856" lon="6.32844">
        <ele>823</ele>
        <time>2018-05-29T11:31:33Z</time>
      </trkpt>
      <trkpt lat="43.74874" lon="6.32854">
        <ele>829</ele>
        <time>2018-05-29T11:31:37Z</time>
      </trkpt>
      <trkpt lat="43.74902" lon="6.32877">
        <ele>829</ele>
        <time>2018-05-29T11:31:46Z</time>
      </trkpt>
      <trkpt lat="43.7493" lon="6.32902">
        <ele>832</ele>
        <time>2018-05-29T11:31:59Z</time>
      </trkpt>
      <trkpt lat="43.74953" lon="6.32917">
        <ele>834</ele>
        <time>2018-05-29T11:32:14Z</time>
      </trkpt>
      <trkpt lat="43.74982" lon="6.32935">
        <ele>836</ele>
        <time>2018-05-29T11:32:30Z</time>
      </trkpt>
      <trkpt lat="43.75014" lon="6.32952">
        <ele>836</ele>
        <time>2018-05-29T11:32:48Z</time>
      </trkpt>
      <trkpt lat="43.75042" lon="6.32988">
        <ele>839</ele>
        <time>2018-05-29T11:33:08Z</time>
      </trkpt>
      <trkpt lat="43.75059" lon="6.3302">
        <ele>845</ele>
        <time>2018-05-29T11:33:23Z</time>
      </trkpt>
      <trkpt lat="43.75061" lon="6.33021">
        <ele>845</ele>
        <time>2018-05-29T11:33:24Z</time>
      </trkpt>
      <trkpt lat="43.75089" lon="6.33045">
        <ele>847</ele>
        <time>2018-05-29T11:33:38Z</time>
      </trkpt>
      <trkpt lat="43.75114" lon="6.33052">
        <ele>847</ele>
        <time>2018-05-29T11:33:51Z</time>
      </trkpt>
      <trkpt lat="43.75145" lon="6.3306">
        <ele>848</ele>
        <time>2018-05-29T11:34:04Z</time>
      </trkpt>
      <trkpt lat="43.75152" lon="6.33054">
        <ele>850</ele>
        <time>2018-05-29T11:34:07Z</time>
      </trkpt>
      <trkpt lat="43.75161" lon="6.33031">
        <ele>853</ele>
        <time>2018-05-29T11:34:15Z</time>
      </trkpt>
      <trkpt lat="43.7516" lon="6.33028">
        <ele>853</ele>
        <time>2018-05-29T11:34:16Z</time>
      </trkpt>
      <trkpt lat="43.75159" lon="6.33025">
        <ele>853</ele>
        <time>2018-05-29T11:34:17Z</time>
      </trkpt>
      <trkpt lat="43.75157" lon="6.33021">
        <ele>852</ele>
        <time>2018-05-29T11:34:18Z</time>
      </trkpt>
      <trkpt lat="43.75156" lon="6.33018">
        <ele>852</ele>
        <time>2018-05-29T11:34:19Z</time>
      </trkpt>
      <trkpt lat="43.75155" lon="6.33014">
        <ele>852</ele>
        <time>2018-05-29T11:34:20Z</time>
      </trkpt>
      <trkpt lat="43.75154" lon="6.33011">
        <ele>851</ele>
        <time>2018-05-29T11:34:21Z</time>
      </trkpt>
      <trkpt lat="43.75142" lon="6.32958">
        <ele>846</ele>
        <time>2018-05-29T11:34:37Z</time>
      </trkpt>
      <trkpt lat="43.75152" lon="6.32909">
        <ele>851</ele>
        <time>2018-05-29T11:34:54Z</time>
      </trkpt>
      <trkpt lat="43.75167" lon="6.32871">
        <ele>855</ele>
        <time>2018-05-29T11:35:09Z</time>
      </trkpt>
      <trkpt lat="43.75187" lon="6.32841">
        <ele>853</ele>
        <time>2018-05-29T11:35:25Z</time>
      </trkpt>
      <trkpt lat="43.75214" lon="6.32836">
        <ele>853</ele>
        <time>2018-05-29T11:35:38Z</time>
      </trkpt>
      <trkpt lat="43.75251" lon="6.32841">
        <ele>857</ele>
        <time>2018-05-29T11:35:53Z</time>
      </trkpt>
      <trkpt lat="43.75289" lon="6.32842">
        <ele>862</ele>
        <time>2018-05-29T11:36:07Z</time>
      </trkpt>
      <trkpt lat="43.75322" lon="6.32835">
        <ele>868</ele>
        <time>2018-05-29T11:36:20Z</time>
      </trkpt>
      <trkpt lat="43.75333" lon="6.32788">
        <ele>867</ele>
        <time>2018-05-29T11:36:32Z</time>
      </trkpt>
      <trkpt lat="43.75342" lon="6.3271">
        <ele>864</ele>
        <time>2018-05-29T11:36:47Z</time>
      </trkpt>
      <trkpt lat="43.75346" lon="6.327">
        <ele>863</ele>
        <time>2018-05-29T11:36:49Z</time>
      </trkpt>
      <trkpt lat="43.75348" lon="6.32695">
        <ele>862</ele>
        <time>2018-05-29T11:36:50Z</time>
      </trkpt>
      <trkpt lat="43.75351" lon="6.32691">
        <ele>861</ele>
        <time>2018-05-29T11:36:51Z</time>
      </trkpt>
      <trkpt lat="43.75355" lon="6.32687">
        <ele>860</ele>
        <time>2018-05-29T11:36:52Z</time>
      </trkpt>
      <trkpt lat="43.75359" lon="6.32685">
        <ele>859</ele>
        <time>2018-05-29T11:36:53Z</time>
      </trkpt>
      <trkpt lat="43.75363" lon="6.32683">
        <ele>859</ele>
        <time>2018-05-29T11:36:54Z</time>
      </trkpt>
      <trkpt lat="43.75367" lon="6.32682">
        <ele>860</ele>
        <time>2018-05-29T11:36:55Z</time>
      </trkpt>
      <trkpt lat="43.75371" lon="6.32681">
        <ele>860</ele>
        <time>2018-05-29T11:36:56Z</time>
      </trkpt>
      <trkpt lat="43.75393" lon="6.3268">
        <ele>866</ele>
        <time>2018-05-29T11:37:01Z</time>
      </trkpt>
      <trkpt lat="43.75398" lon="6.3268">
        <ele>868</ele>
        <time>2018-05-29T11:37:02Z</time>
      </trkpt>
      <trkpt lat="43.75402" lon="6.32678">
        <ele>868</ele>
        <time>2018-05-29T11:37:03Z</time>
      </trkpt>
      <trkpt lat="43.75407" lon="6.32675">
        <ele>868</ele>
        <time>2018-05-29T11:37:04Z</time>
      </trkpt>
      <trkpt lat="43.7541" lon="6.32672">
        <ele>868</ele>
        <time>2018-05-29T11:37:05Z</time>
      </trkpt>
      <trkpt lat="43.75414" lon="6.32667">
        <ele>867</ele>
        <time>2018-05-29T11:37:06Z</time>
      </trkpt>
      <trkpt lat="43.75416" lon="6.32665">
        <ele>867</ele>
        <time>2018-05-29T11:37:07Z</time>
      </trkpt>
      <trkpt lat="43.7542" lon="6.32656">
        <ele>865</ele>
        <time>2018-05-29T11:37:08Z</time>
      </trkpt>
      <trkpt lat="43.75421" lon="6.3265">
        <ele>863</ele>
        <time>2018-05-29T11:37:09Z</time>
      </trkpt>
      <trkpt lat="43.75422" lon="6.32643">
        <ele>861</ele>
        <time>2018-05-29T11:37:10Z</time>
      </trkpt>
      <trkpt lat="43.75422" lon="6.32635">
        <ele>860</ele>
        <time>2018-05-29T11:37:11Z</time>
      </trkpt>
      <trkpt lat="43.75421" lon="6.32628">
        <ele>859</ele>
        <time>2018-05-29T11:37:12Z</time>
      </trkpt>
      <trkpt lat="43.75419" lon="6.32619">
        <ele>858</ele>
        <time>2018-05-29T11:37:13Z</time>
      </trkpt>
      <trkpt lat="43.75418" lon="6.3261">
        <ele>856</ele>
        <time>2018-05-29T11:37:14Z</time>
      </trkpt>
      <trkpt lat="43.75418" lon="6.326">
        <ele>855</ele>
        <time>2018-05-29T11:37:15Z</time>
      </trkpt>
      <trkpt lat="43.7542" lon="6.32591">
        <ele>856</ele>
        <time>2018-05-29T11:37:16Z</time>
      </trkpt>
      <trkpt lat="43.75424" lon="6.32583">
        <ele>857</ele>
        <time>2018-05-29T11:37:17Z</time>
      </trkpt>
      <trkpt lat="43.7543" lon="6.32576">
        <ele>855</ele>
        <time>2018-05-29T11:37:18Z</time>
      </trkpt>
      <trkpt lat="43.75437" lon="6.32571">
        <ele>854</ele>
        <time>2018-05-29T11:37:19Z</time>
      </trkpt>
      <trkpt lat="43.75446" lon="6.32567">
        <ele>853</ele>
        <time>2018-05-29T11:37:20Z</time>
      </trkpt>
      <trkpt lat="43.75454" lon="6.32563">
        <ele>853</ele>
        <time>2018-05-29T11:37:21Z</time>
      </trkpt>
      <trkpt lat="43.75502" lon="6.32547">
        <ele>854</ele>
        <time>2018-05-29T11:37:26Z</time>
      </trkpt>
      <trkpt lat="43.75511" lon="6.32541">
        <ele>853</ele>
        <time>2018-05-29T11:37:27Z</time>
      </trkpt>
      <trkpt lat="43.7552" lon="6.32533">
        <ele>852</ele>
        <time>2018-05-29T11:37:28Z</time>
      </trkpt>
      <trkpt lat="43.75527" lon="6.32524">
        <ele>851</ele>
        <time>2018-05-29T11:37:29Z</time>
      </trkpt>
      <trkpt lat="43.75534" lon="6.32515">
        <ele>851</ele>
        <time>2018-05-29T11:37:30Z</time>
      </trkpt>
      <trkpt lat="43.75604" lon="6.3243">
        <ele>845</ele>
        <time>2018-05-29T11:37:39Z</time>
      </trkpt>
      <trkpt lat="43.75608" lon="6.32417">
        <ele>843</ele>
        <time>2018-05-29T11:37:40Z</time>
      </trkpt>
      <trkpt lat="43.75609" lon="6.32403">
        <ele>841</ele>
        <time>2018-05-29T11:37:41Z</time>
      </trkpt>
      <trkpt lat="43.75607" lon="6.32389">
        <ele>840</ele>
        <time>2018-05-29T11:37:42Z</time>
      </trkpt>
      <trkpt lat="43.75605" lon="6.32376">
        <ele>839</ele>
        <time>2018-05-29T11:37:43Z</time>
      </trkpt>
      <trkpt lat="43.75604" lon="6.32362">
        <ele>838</ele>
        <time>2018-05-29T11:37:44Z</time>
      </trkpt>
      <trkpt lat="43.75604" lon="6.32349">
        <ele>838</ele>
        <time>2018-05-29T11:37:45Z</time>
      </trkpt>
      <trkpt lat="43.75605" lon="6.32334">
        <ele>838</ele>
        <time>2018-05-29T11:37:46Z</time>
      </trkpt>
      <trkpt lat="43.75607" lon="6.32321">
        <ele>838</ele>
        <time>2018-05-29T11:37:47Z</time>
      </trkpt>
      <trkpt lat="43.75609" lon="6.32308">
        <ele>839</ele>
        <time>2018-05-29T11:37:48Z</time>
      </trkpt>
      <trkpt lat="43.75611" lon="6.32293">
        <ele>839</ele>
        <time>2018-05-29T11:37:49Z</time>
      </trkpt>
      <trkpt lat="43.7561" lon="6.32281">
        <ele>838</ele>
        <time>2018-05-29T11:37:50Z</time>
      </trkpt>
      <trkpt lat="43.75609" lon="6.32267">
        <ele>837</ele>
        <time>2018-05-29T11:37:51Z</time>
      </trkpt>
      <trkpt lat="43.75603" lon="6.32228">
        <ele>834</ele>
        <time>2018-05-29T11:37:54Z</time>
      </trkpt>
      <trkpt lat="43.75603" lon="6.32214">
        <ele>833</ele>
        <time>2018-05-29T11:37:55Z</time>
      </trkpt>
      <trkpt lat="43.75604" lon="6.32201">
        <ele>833</ele>
        <time>2018-05-29T11:37:56Z</time>
      </trkpt>
      <trkpt lat="43.7561" lon="6.32136">
        <ele>832</ele>
        <time>2018-05-29T11:38:01Z</time>
      </trkpt>
      <trkpt lat="43.75609" lon="6.32123">
        <ele>831</ele>
        <time>2018-05-29T11:38:02Z</time>
      </trkpt>
      <trkpt lat="43.75608" lon="6.32111">
        <ele>829</ele>
        <time>2018-05-29T11:38:03Z</time>
      </trkpt>
      <trkpt lat="43.75605" lon="6.32099">
        <ele>828</ele>
        <time>2018-05-29T11:38:04Z</time>
      </trkpt>
      <trkpt lat="43.75603" lon="6.3209">
        <ele>826</ele>
        <time>2018-05-29T11:38:05Z</time>
      </trkpt>
      <trkpt lat="43.756" lon="6.32081">
        <ele>824</ele>
        <time>2018-05-29T11:38:06Z</time>
      </trkpt>
      <trkpt lat="43.75597" lon="6.32076">
        <ele>823</ele>
        <time>2018-05-29T11:38:07Z</time>
      </trkpt>
      <trkpt lat="43.75594" lon="6.32073">
        <ele>822</ele>
        <time>2018-05-29T11:38:08Z</time>
      </trkpt>
      <trkpt lat="43.75592" lon="6.32071">
        <ele>822</ele>
        <time>2018-05-29T11:38:09Z</time>
      </trkpt>
      <trkpt lat="43.75591" lon="6.3207">
        <ele>821</ele>
        <time>2018-05-29T11:38:10Z</time>
      </trkpt>
      <trkpt lat="43.75592" lon="6.32071">
        <ele>822</ele>
        <time>2018-05-29T11:38:25Z</time>
      </trkpt>
      <trkpt lat="43.7559" lon="6.3207">
        <ele>821</ele>
        <time>2018-05-29T11:38:42Z</time>
      </trkpt>
      <trkpt lat="43.75591" lon="6.32071">
        <ele>821</ele>
        <time>2018-05-29T11:39:22Z</time>
      </trkpt>
      <trkpt lat="43.75591" lon="6.32071">
        <ele>821</ele>
        <time>2018-05-29T11:39:51Z</time>
      </trkpt>
      <trkpt lat="43.75591" lon="6.3207">
        <ele>821</ele>
        <time>2018-05-29T11:40:13Z</time>
      </trkpt>
      <trkpt lat="43.75591" lon="6.3207">
        <ele>821</ele>
        <time>2018-05-29T11:40:38Z</time>
      </trkpt>
      <trkpt lat="43.7559" lon="6.32071">
        <ele>821</ele>
        <time>2018-05-29T11:41:03Z</time>
      </trkpt>
      <trkpt lat="43.75589" lon="6.32071">
        <ele>821</ele>
        <time>2018-05-29T11:41:25Z</time>
      </trkpt>
      <trkpt lat="43.7559" lon="6.32065">
        <ele>821</ele>
        <time>2018-05-29T11:41:46Z</time>
      </trkpt>
      <trkpt lat="43.7559" lon="6.32062">
        <ele>821</ele>
        <time>2018-05-29T11:41:48Z</time>
      </trkpt>
      <trkpt lat="43.7559" lon="6.3206">
        <ele>822</ele>
        <time>2018-05-29T11:41:49Z</time>
      </trkpt>
      <trkpt lat="43.7559" lon="6.32057">
        <ele>822</ele>
        <time>2018-05-29T11:41:50Z</time>
      </trkpt>
      <trkpt lat="43.75589" lon="6.32055">
        <ele>821</ele>
        <time>2018-05-29T11:41:51Z</time>
      </trkpt>
      <trkpt lat="43.75587" lon="6.32053">
        <ele>821</ele>
        <time>2018-05-29T11:41:52Z</time>
      </trkpt>
      <trkpt lat="43.75584" lon="6.32046">
        <ele>821</ele>
        <time>2018-05-29T11:41:57Z</time>
      </trkpt>
      <trkpt lat="43.75584" lon="6.32045">
        <ele>821</ele>
        <time>2018-05-29T11:41:58Z</time>
      </trkpt>
      <trkpt lat="43.75584" lon="6.32043">
        <ele>822</ele>
        <time>2018-05-29T11:41:59Z</time>
      </trkpt>
      <trkpt lat="43.756" lon="6.32027">
        <ele>820</ele>
        <time>2018-05-29T11:42:06Z</time>
      </trkpt>
      <trkpt lat="43.75604" lon="6.32027">
        <ele>820</ele>
        <time>2018-05-29T11:42:07Z</time>
      </trkpt>
      <trkpt lat="43.75609" lon="6.32028">
        <ele>821</ele>
        <time>2018-05-29T11:42:08Z</time>
      </trkpt>
      <trkpt lat="43.75614" lon="6.32031">
        <ele>822</ele>
        <time>2018-05-29T11:42:09Z</time>
      </trkpt>
      <trkpt lat="43.75619" lon="6.32034">
        <ele>824</ele>
        <time>2018-05-29T11:42:10Z</time>
      </trkpt>
      <trkpt lat="43.75649" lon="6.32052">
        <ele>822</ele>
        <time>2018-05-29T11:42:15Z</time>
      </trkpt>
      <trkpt lat="43.75656" lon="6.32055">
        <ele>821</ele>
        <time>2018-05-29T11:42:16Z</time>
      </trkpt>
      <trkpt lat="43.7568" lon="6.3206">
        <ele>815</ele>
        <time>2018-05-29T11:42:19Z</time>
      </trkpt>
      <trkpt lat="43.75688" lon="6.32063">
        <ele>812</ele>
        <time>2018-05-29T11:42:20Z</time>
      </trkpt>
      <trkpt lat="43.75715" lon="6.32073">
        <ele>808</ele>
        <time>2018-05-29T11:42:23Z</time>
      </trkpt>
      <trkpt lat="43.75724" lon="6.32073">
        <ele>811</ele>
        <time>2018-05-29T11:42:24Z</time>
      </trkpt>
      <trkpt lat="43.75735" lon="6.32072">
        <ele>813</ele>
        <time>2018-05-29T11:42:25Z</time>
      </trkpt>
      <trkpt lat="43.75745" lon="6.32068">
        <ele>814</ele>
        <time>2018-05-29T11:42:26Z</time>
      </trkpt>
      <trkpt lat="43.75755" lon="6.32063">
        <ele>815</ele>
        <time>2018-05-29T11:42:27Z</time>
      </trkpt>
      <trkpt lat="43.75764" lon="6.32055">
        <ele>815</ele>
        <time>2018-05-29T11:42:28Z</time>
      </trkpt>
      <trkpt lat="43.75773" lon="6.32045">
        <ele>813</ele>
        <time>2018-05-29T11:42:29Z</time>
      </trkpt>
      <trkpt lat="43.75781" lon="6.32034">
        <ele>808</ele>
        <time>2018-05-29T11:42:30Z</time>
      </trkpt>
      <trkpt lat="43.75788" lon="6.32022">
        <ele>804</ele>
        <time>2018-05-29T11:42:31Z</time>
      </trkpt>
      <trkpt lat="43.75803" lon="6.31998">
        <ele>809</ele>
        <time>2018-05-29T11:42:33Z</time>
      </trkpt>
      <trkpt lat="43.75821" lon="6.31979">
        <ele>804</ele>
        <time>2018-05-29T11:42:35Z</time>
      </trkpt>
      <trkpt lat="43.75851" lon="6.31951">
        <ele>802</ele>
        <time>2018-05-29T11:42:38Z</time>
      </trkpt>
      <trkpt lat="43.75862" lon="6.31946">
        <ele>800</ele>
        <time>2018-05-29T11:42:39Z</time>
      </trkpt>
      <trkpt lat="43.75873" lon="6.31945">
        <ele>799</ele>
        <time>2018-05-29T11:42:40Z</time>
      </trkpt>
      <trkpt lat="43.75884" lon="6.31949">
        <ele>800</ele>
        <time>2018-05-29T11:42:41Z</time>
      </trkpt>
      <trkpt lat="43.75894" lon="6.31955">
        <ele>802</ele>
        <time>2018-05-29T11:42:42Z</time>
      </trkpt>
      <trkpt lat="43.75903" lon="6.31963">
        <ele>805</ele>
        <time>2018-05-29T11:42:43Z</time>
      </trkpt>
      <trkpt lat="43.75911" lon="6.3197">
        <ele>807</ele>
        <time>2018-05-29T11:42:44Z</time>
      </trkpt>
      <trkpt lat="43.7592" lon="6.31974">
        <ele>808</ele>
        <time>2018-05-29T11:42:45Z</time>
      </trkpt>
      <trkpt lat="43.75929" lon="6.31976">
        <ele>808</ele>
        <time>2018-05-29T11:42:46Z</time>
      </trkpt>
      <trkpt lat="43.75937" lon="6.31975">
        <ele>807</ele>
        <time>2018-05-29T11:42:47Z</time>
      </trkpt>
      <trkpt lat="43.75945" lon="6.31971">
        <ele>807</ele>
        <time>2018-05-29T11:42:48Z</time>
      </trkpt>
      <trkpt lat="43.75952" lon="6.31965">
        <ele>808</ele>
        <time>2018-05-29T11:42:49Z</time>
      </trkpt>
      <trkpt lat="43.75958" lon="6.31957">
        <ele>808</ele>
        <time>2018-05-29T11:42:50Z</time>
      </trkpt>
      <trkpt lat="43.75989" lon="6.31915">
        <ele>812</ele>
        <time>2018-05-29T11:42:56Z</time>
      </trkpt>
      <trkpt lat="43.75993" lon="6.31906">
        <ele>812</ele>
        <time>2018-05-29T11:42:57Z</time>
      </trkpt>
      <trkpt lat="43.75995" lon="6.31895">
        <ele>812</ele>
        <time>2018-05-29T11:42:58Z</time>
      </trkpt>
      <trkpt lat="43.75995" lon="6.31885">
        <ele>810</ele>
        <time>2018-05-29T11:42:59Z</time>
      </trkpt>
      <trkpt lat="43.75994" lon="6.31875">
        <ele>809</ele>
        <time>2018-05-29T11:43:00Z</time>
      </trkpt>
      <trkpt lat="43.75992" lon="6.31865">
        <ele>808</ele>
        <time>2018-05-29T11:43:01Z</time>
      </trkpt>
      <trkpt lat="43.75965" lon="6.31743">
        <ele>798</ele>
        <time>2018-05-29T11:43:14Z</time>
      </trkpt>
      <trkpt lat="43.75957" lon="6.31709">
        <ele>794</ele>
        <time>2018-05-29T11:43:21Z</time>
      </trkpt>
      <trkpt lat="43.75956" lon="6.31706">
        <ele>793</ele>
        <time>2018-05-29T11:43:32Z</time>
      </trkpt>
      <trkpt lat="43.75957" lon="6.31704">
        <ele>794</ele>
        <time>2018-05-29T11:43:33Z</time>
      </trkpt>
      <trkpt lat="43.75958" lon="6.31702">
        <ele>794</ele>
        <time>2018-05-29T11:43:34Z</time>
      </trkpt>
      <trkpt lat="43.75959" lon="6.317">
        <ele>795</ele>
        <time>2018-05-29T11:43:35Z</time>
      </trkpt>
      <trkpt lat="43.7596" lon="6.31698">
        <ele>796</ele>
        <time>2018-05-29T11:43:36Z</time>
      </trkpt>
      <trkpt lat="43.75964" lon="6.31696">
        <ele>798</ele>
        <time>2018-05-29T11:43:38Z</time>
      </trkpt>
      <trkpt lat="43.75966" lon="6.31695">
        <ele>799</ele>
        <time>2018-05-29T11:43:39Z</time>
      </trkpt>
      <trkpt lat="43.75967" lon="6.31693">
        <ele>800</ele>
        <time>2018-05-29T11:43:40Z</time>
      </trkpt>
      <trkpt lat="43.75968" lon="6.3169">
        <ele>801</ele>
        <time>2018-05-29T11:43:41Z</time>
      </trkpt>
      <trkpt lat="43.75969" lon="6.31688">
        <ele>801</ele>
        <time>2018-05-29T11:43:42Z</time>
      </trkpt>
      <trkpt lat="43.7597" lon="6.31686">
        <ele>801</ele>
        <time>2018-05-29T11:43:43Z</time>
      </trkpt>
      <trkpt lat="43.75972" lon="6.31683">
        <ele>801</ele>
        <time>2018-05-29T11:43:44Z</time>
      </trkpt>
      <trkpt lat="43.75974" lon="6.31681">
        <ele>801</ele>
        <time>2018-05-29T11:43:45Z</time>
      </trkpt>
      <trkpt lat="43.75997" lon="6.31648">
        <ele>806</ele>
        <time>2018-05-29T11:44:01Z</time>
      </trkpt>
      <trkpt lat="43.76019" lon="6.31615">
        <ele>808</ele>
        <time>2018-05-29T11:44:15Z</time>
      </trkpt>
      <trkpt lat="43.76044" lon="6.31592">
        <ele>811</ele>
        <time>2018-05-29T11:44:28Z</time>
      </trkpt>
      <trkpt lat="43.76072" lon="6.31606">
        <ele>813</ele>
        <time>2018-05-29T11:44:40Z</time>
      </trkpt>
      <trkpt lat="43.7611" lon="6.31637">
        <ele>816</ele>
        <time>2018-05-29T11:44:55Z</time>
      </trkpt>
      <trkpt lat="43.76151" lon="6.31676">
        <ele>822</ele>
        <time>2018-05-29T11:45:10Z</time>
      </trkpt>
      <trkpt lat="43.76183" lon="6.31685">
        <ele>824</ele>
        <time>2018-05-29T11:45:20Z</time>
      </trkpt>
      <trkpt lat="43.76217" lon="6.31673">
        <ele>822</ele>
        <time>2018-05-29T11:45:31Z</time>
      </trkpt>
      <trkpt lat="43.76245" lon="6.31655">
        <ele>811</ele>
        <time>2018-05-29T11:45:40Z</time>
      </trkpt>
      <trkpt lat="43.76249" lon="6.31655">
        <ele>811</ele>
        <time>2018-05-29T11:45:41Z</time>
      </trkpt>
      <trkpt lat="43.76252" lon="6.31656">
        <ele>811</ele>
        <time>2018-05-29T11:45:42Z</time>
      </trkpt>
      <trkpt lat="43.76256" lon="6.31658">
        <ele>812</ele>
        <time>2018-05-29T11:45:43Z</time>
      </trkpt>
      <trkpt lat="43.7626" lon="6.3166">
        <ele>813</ele>
        <time>2018-05-29T11:45:44Z</time>
      </trkpt>
      <trkpt lat="43.76263" lon="6.31664">
        <ele>814</ele>
        <time>2018-05-29T11:45:45Z</time>
      </trkpt>
      <trkpt lat="43.76267" lon="6.31667">
        <ele>815</ele>
        <time>2018-05-29T11:45:46Z</time>
      </trkpt>
      <trkpt lat="43.7627" lon="6.31671">
        <ele>815</ele>
        <time>2018-05-29T11:45:47Z</time>
      </trkpt>
      <trkpt lat="43.76272" lon="6.31676">
        <ele>815</ele>
        <time>2018-05-29T11:45:48Z</time>
      </trkpt>
      <trkpt lat="43.76275" lon="6.31681">
        <ele>815</ele>
        <time>2018-05-29T11:45:49Z</time>
      </trkpt>
      <trkpt lat="43.76276" lon="6.31687">
        <ele>815</ele>
        <time>2018-05-29T11:45:50Z</time>
      </trkpt>
      <trkpt lat="43.76278" lon="6.31692">
        <ele>816</ele>
        <time>2018-05-29T11:45:51Z</time>
      </trkpt>
      <trkpt lat="43.76286" lon="6.31718">
        <ele>821</ele>
        <time>2018-05-29T11:45:56Z</time>
      </trkpt>
      <trkpt lat="43.76292" lon="6.31733">
        <ele>824</ele>
        <time>2018-05-29T11:45:59Z</time>
      </trkpt>
      <trkpt lat="43.76295" lon="6.31738">
        <ele>824</ele>
        <time>2018-05-29T11:46:00Z</time>
      </trkpt>
      <trkpt lat="43.76298" lon="6.31742">
        <ele>823</ele>
        <time>2018-05-29T11:46:01Z</time>
      </trkpt>
      <trkpt lat="43.76302" lon="6.31745">
        <ele>822</ele>
        <time>2018-05-29T11:46:02Z</time>
      </trkpt>
      <trkpt lat="43.76306" lon="6.31748">
        <ele>821</ele>
        <time>2018-05-29T11:46:03Z</time>
      </trkpt>
      <trkpt lat="43.76309" lon="6.31751">
        <ele>820</ele>
        <time>2018-05-29T11:46:04Z</time>
      </trkpt>
      <trkpt lat="43.76312" lon="6.31754">
        <ele>820</ele>
        <time>2018-05-29T11:46:05Z</time>
      </trkpt>
      <trkpt lat="43.76316" lon="6.31757">
        <ele>820</ele>
        <time>2018-05-29T11:46:06Z</time>
      </trkpt>
      <trkpt lat="43.76355" lon="6.31772">
        <ele>819</ele>
        <time>2018-05-29T11:46:18Z</time>
      </trkpt>
      <trkpt lat="43.76402" lon="6.31825">
        <ele>817</ele>
        <time>2018-05-29T11:46:33Z</time>
      </trkpt>
      <trkpt lat="43.76408" lon="6.31835">
        <ele>817</ele>
        <time>2018-05-29T11:46:35Z</time>
      </trkpt>
      <trkpt lat="43.7641" lon="6.31839">
        <ele>817</ele>
        <time>2018-05-29T11:46:36Z</time>
      </trkpt>
      <trkpt lat="43.76412" lon="6.31845">
        <ele>817</ele>
        <time>2018-05-29T11:46:37Z</time>
      </trkpt>
      <trkpt lat="43.76426" lon="6.3188">
        <ele>821</ele>
        <time>2018-05-29T11:46:44Z</time>
      </trkpt>
      <trkpt lat="43.76428" lon="6.31885">
        <ele>821</ele>
        <time>2018-05-29T11:46:45Z</time>
      </trkpt>
      <trkpt lat="43.76431" lon="6.31889">
        <ele>822</ele>
        <time>2018-05-29T11:46:46Z</time>
      </trkpt>
      <trkpt lat="43.76434" lon="6.31893">
        <ele>822</ele>
        <time>2018-05-29T11:46:47Z</time>
      </trkpt>
      <trkpt lat="43.76438" lon="6.31897">
        <ele>821</ele>
        <time>2018-05-29T11:46:48Z</time>
      </trkpt>
      <trkpt lat="43.76441" lon="6.319">
        <ele>821</ele>
        <time>2018-05-29T11:46:49Z</time>
      </trkpt>
      <trkpt lat="43.76466" lon="6.31926">
        <ele>819</ele>
        <time>2018-05-29T11:46:56Z</time>
      </trkpt>
      <trkpt lat="43.76469" lon="6.3193">
        <ele>819</ele>
        <time>2018-05-29T11:46:57Z</time>
      </trkpt>
      <trkpt lat="43.76481" lon="6.31954">
        <ele>818</ele>
        <time>2018-05-29T11:47:02Z</time>
      </trkpt>
      <trkpt lat="43.76483" lon="6.31959">
        <ele>818</ele>
        <time>2018-05-29T11:47:03Z</time>
      </trkpt>
      <trkpt lat="43.76487" lon="6.31967">
        <ele>818</ele>
        <time>2018-05-29T11:47:05Z</time>
      </trkpt>
      <trkpt lat="43.76495" lon="6.31963">
        <ele>814</ele>
        <time>2018-05-29T11:47:08Z</time>
      </trkpt>
      <trkpt lat="43.76496" lon="6.31961">
        <ele>813</ele>
        <time>2018-05-29T11:47:09Z</time>
      </trkpt>
      <trkpt lat="43.76497" lon="6.31959">
        <ele>813</ele>
        <time>2018-05-29T11:47:10Z</time>
      </trkpt>
      <trkpt lat="43.76497" lon="6.31957">
        <ele>812</ele>
        <time>2018-05-29T11:47:11Z</time>
      </trkpt>
      <trkpt lat="43.76497" lon="6.31955">
        <ele>812</ele>
        <time>2018-05-29T11:47:12Z</time>
      </trkpt>
      <trkpt lat="43.76496" lon="6.31954">
        <ele>812</ele>
        <time>2018-05-29T11:47:13Z</time>
      </trkpt>
      <trkpt lat="43.76496" lon="6.31953">
        <ele>812</ele>
        <time>2018-05-29T11:47:14Z</time>
      </trkpt>
      <trkpt lat="43.76495" lon="6.31952">
        <ele>812</ele>
        <time>2018-05-29T11:47:15Z</time>
      </trkpt>
      <trkpt lat="43.76494" lon="6.3195">
        <ele>812</ele>
        <time>2018-05-29T11:47:16Z</time>
      </trkpt>
      <trkpt lat="43.76493" lon="6.31948">
        <ele>812</ele>
        <time>2018-05-29T11:47:17Z</time>
      </trkpt>
      <trkpt lat="43.76492" lon="6.31946">
        <ele>813</ele>
        <time>2018-05-29T11:47:18Z</time>
      </trkpt>
      <trkpt lat="43.76491" lon="6.31945">
        <ele>813</ele>
        <time>2018-05-29T11:47:19Z</time>
      </trkpt>
      <trkpt lat="43.76488" lon="6.31952">
        <ele>815</ele>
        <time>2018-05-29T11:47:22Z</time>
      </trkpt>
      <trkpt lat="43.7649" lon="6.31955">
        <ele>815</ele>
        <time>2018-05-29T11:47:23Z</time>
      </trkpt>
      <trkpt lat="43.76491" lon="6.31956">
        <ele>815</ele>
        <time>2018-05-29T11:47:24Z</time>
      </trkpt>
      <trkpt lat="43.76494" lon="6.31961">
        <ele>814</ele>
        <time>2018-05-29T11:47:26Z</time>
      </trkpt>
      <trkpt lat="43.76494" lon="6.31965">
        <ele>815</ele>
        <time>2018-05-29T11:47:27Z</time>
      </trkpt>
      <trkpt lat="43.76494" lon="6.31968">
        <ele>815</ele>
        <time>2018-05-29T11:47:28Z</time>
      </trkpt>
      <trkpt lat="43.76505" lon="6.32017">
        <ele>821</ele>
        <time>2018-05-29T11:47:42Z</time>
      </trkpt>
      <trkpt lat="43.76542" lon="6.32073">
        <ele>822</ele>
        <time>2018-05-29T11:48:00Z</time>
      </trkpt>
      <trkpt lat="43.76579" lon="6.32128">
        <ele>823</ele>
        <time>2018-05-29T11:48:17Z</time>
      </trkpt>
      <trkpt lat="43.76613" lon="6.32192">
        <ele>824</ele>
        <time>2018-05-29T11:48:35Z</time>
      </trkpt>
      <trkpt lat="43.76627" lon="6.32238">
        <ele>825</ele>
        <time>2018-05-29T11:48:48Z</time>
      </trkpt>
      <trkpt lat="43.76641" lon="6.32282">
        <ele>827</ele>
        <time>2018-05-29T11:49:00Z</time>
      </trkpt>
      <trkpt lat="43.76642" lon="6.32285">
        <ele>827</ele>
        <time>2018-05-29T11:49:01Z</time>
      </trkpt>
      <trkpt lat="43.76643" lon="6.32288">
        <ele>827</ele>
        <time>2018-05-29T11:49:02Z</time>
      </trkpt>
      <trkpt lat="43.76653" lon="6.3231">
        <ele>827</ele>
        <time>2018-05-29T11:49:09Z</time>
      </trkpt>
      <trkpt lat="43.76655" lon="6.32313">
        <ele>827</ele>
        <time>2018-05-29T11:49:10Z</time>
      </trkpt>
      <trkpt lat="43.76656" lon="6.32316">
        <ele>827</ele>
        <time>2018-05-29T11:49:11Z</time>
      </trkpt>
      <trkpt lat="43.76677" lon="6.32356">
        <ele>827</ele>
        <time>2018-05-29T11:49:24Z</time>
      </trkpt>
      <trkpt lat="43.76697" lon="6.32398">
        <ele>831</ele>
        <time>2018-05-29T11:49:39Z</time>
      </trkpt>
      <trkpt lat="43.76723" lon="6.32446">
        <ele>830</ele>
        <time>2018-05-29T11:49:54Z</time>
      </trkpt>
      <trkpt lat="43.76735" lon="6.32496">
        <ele>836</ele>
        <time>2018-05-29T11:50:09Z</time>
      </trkpt>
      <trkpt lat="43.76754" lon="6.32524">
        <ele>836</ele>
        <time>2018-05-29T11:50:21Z</time>
      </trkpt>
      <trkpt lat="43.76768" lon="6.32571">
        <ele>834</ele>
        <time>2018-05-29T11:50:38Z</time>
      </trkpt>
      <trkpt lat="43.76767" lon="6.32616">
        <ele>838</ele>
        <time>2018-05-29T11:50:54Z</time>
      </trkpt>
      <trkpt lat="43.76775" lon="6.32671">
        <ele>838</ele>
        <time>2018-05-29T11:51:12Z</time>
      </trkpt>
      <trkpt lat="43.76776" lon="6.32677">
        <ele>838</ele>
        <time>2018-05-29T11:51:14Z</time>
      </trkpt>
      <trkpt lat="43.76777" lon="6.3268">
        <ele>838</ele>
        <time>2018-05-29T11:51:15Z</time>
      </trkpt>
      <trkpt lat="43.76778" lon="6.32682">
        <ele>839</ele>
        <time>2018-05-29T11:51:16Z</time>
      </trkpt>
      <trkpt lat="43.7678" lon="6.32684">
        <ele>839</ele>
        <time>2018-05-29T11:51:17Z</time>
      </trkpt>
      <trkpt lat="43.76782" lon="6.32687">
        <ele>839</ele>
        <time>2018-05-29T11:51:18Z</time>
      </trkpt>
      <trkpt lat="43.76783" lon="6.32689">
        <ele>839</ele>
        <time>2018-05-29T11:51:19Z</time>
      </trkpt>
      <trkpt lat="43.76797" lon="6.32729">
        <ele>841</ele>
        <time>2018-05-29T11:51:33Z</time>
      </trkpt>
      <trkpt lat="43.76795" lon="6.3274">
        <ele>843</ele>
        <time>2018-05-29T11:51:37Z</time>
      </trkpt>
      <trkpt lat="43.76795" lon="6.32743">
        <ele>843</ele>
        <time>2018-05-29T11:51:38Z</time>
      </trkpt>
      <trkpt lat="43.76794" lon="6.32746">
        <ele>843</ele>
        <time>2018-05-29T11:51:39Z</time>
      </trkpt>
      <trkpt lat="43.76793" lon="6.32749">
        <ele>843</ele>
        <time>2018-05-29T11:51:40Z</time>
      </trkpt>
      <trkpt lat="43.76791" lon="6.32751">
        <ele>844</ele>
        <time>2018-05-29T11:51:41Z</time>
      </trkpt>
      <trkpt lat="43.7679" lon="6.32754">
        <ele>844</ele>
        <time>2018-05-29T11:51:42Z</time>
      </trkpt>
      <trkpt lat="43.76789" lon="6.32756">
        <ele>844</ele>
        <time>2018-05-29T11:51:43Z</time>
      </trkpt>
      <trkpt lat="43.76787" lon="6.32758">
        <ele>844</ele>
        <time>2018-05-29T11:51:44Z</time>
      </trkpt>
      <trkpt lat="43.76778" lon="6.32786">
        <ele>845</ele>
        <time>2018-05-29T11:51:55Z</time>
      </trkpt>
      <trkpt lat="43.76778" lon="6.32788">
        <ele>845</ele>
        <time>2018-05-29T11:51:56Z</time>
      </trkpt>
      <trkpt lat="43.76779" lon="6.32791">
        <ele>845</ele>
        <time>2018-05-29T11:51:57Z</time>
      </trkpt>
      <trkpt lat="43.76779" lon="6.32794">
        <ele>845</ele>
        <time>2018-05-29T11:51:58Z</time>
      </trkpt>
      <trkpt lat="43.76794" lon="6.32811">
        <ele>847</ele>
        <time>2018-05-29T11:52:10Z</time>
      </trkpt>
      <trkpt lat="43.76803" lon="6.32806">
        <ele>847</ele>
        <time>2018-05-29T11:52:16Z</time>
      </trkpt>
      <trkpt lat="43.76804" lon="6.32804">
        <ele>847</ele>
        <time>2018-05-29T11:52:17Z</time>
      </trkpt>
      <trkpt lat="43.76805" lon="6.32802">
        <ele>847</ele>
        <time>2018-05-29T11:52:18Z</time>
      </trkpt>
      <trkpt lat="43.76806" lon="6.32801">
        <ele>847</ele>
        <time>2018-05-29T11:52:19Z</time>
      </trkpt>
      <trkpt lat="43.76807" lon="6.32799">
        <ele>847</ele>
        <time>2018-05-29T11:52:20Z</time>
      </trkpt>
      <trkpt lat="43.76808" lon="6.32798">
        <ele>847</ele>
        <time>2018-05-29T11:52:21Z</time>
      </trkpt>
      <trkpt lat="43.76813" lon="6.32788">
        <ele>846</ele>
        <time>2018-05-29T11:52:27Z</time>
      </trkpt>
      <trkpt lat="43.76813" lon="6.32786">
        <ele>846</ele>
        <time>2018-05-29T11:52:28Z</time>
      </trkpt>
      <trkpt lat="43.76814" lon="6.32784">
        <ele>846</ele>
        <time>2018-05-29T11:52:29Z</time>
      </trkpt>
      <trkpt lat="43.76815" lon="6.3278">
        <ele>846</ele>
        <time>2018-05-29T11:52:31Z</time>
      </trkpt>
      <trkpt lat="43.76816" lon="6.32779">
        <ele>846</ele>
        <time>2018-05-29T11:52:32Z</time>
      </trkpt>
      <trkpt lat="43.76825" lon="6.32752">
        <ele>845</ele>
        <time>2018-05-29T11:52:47Z</time>
      </trkpt>
      <trkpt lat="43.76832" lon="6.32747">
        <ele>846</ele>
        <time>2018-05-29T11:52:52Z</time>
      </trkpt>
      <trkpt lat="43.76833" lon="6.32746">
        <ele>847</ele>
        <time>2018-05-29T11:52:53Z</time>
      </trkpt>
      <trkpt lat="43.76836" lon="6.32746">
        <ele>848</ele>
        <time>2018-05-29T11:52:55Z</time>
      </trkpt>
      <trkpt lat="43.76844" lon="6.32755">
        <ele>852</ele>
        <time>2018-05-29T11:53:02Z</time>
      </trkpt>
      <trkpt lat="43.76844" lon="6.32757">
        <ele>852</ele>
        <time>2018-05-29T11:53:03Z</time>
      </trkpt>
      <trkpt lat="43.76843" lon="6.32759">
        <ele>852</ele>
        <time>2018-05-29T11:53:04Z</time>
      </trkpt>
      <trkpt lat="43.76836" lon="6.32771">
        <ele>851</ele>
        <time>2018-05-29T11:53:11Z</time>
      </trkpt>
      <trkpt lat="43.76836" lon="6.32773">
        <ele>851</ele>
        <time>2018-05-29T11:53:12Z</time>
      </trkpt>
      <trkpt lat="43.76836" lon="6.32775">
        <ele>851</ele>
        <time>2018-05-29T11:53:13Z</time>
      </trkpt>
      <trkpt lat="43.76835" lon="6.32777">
        <ele>852</ele>
        <time>2018-05-29T11:53:14Z</time>
      </trkpt>
      <trkpt lat="43.76834" lon="6.32779">
        <ele>852</ele>
        <time>2018-05-29T11:53:15Z</time>
      </trkpt>
      <trkpt lat="43.76831" lon="6.32789">
        <ele>852</ele>
        <time>2018-05-29T11:53:21Z</time>
      </trkpt>
      <trkpt lat="43.7683" lon="6.32791">
        <ele>852</ele>
        <time>2018-05-29T11:53:22Z</time>
      </trkpt>
      <trkpt lat="43.7683" lon="6.32793">
        <ele>852</ele>
        <time>2018-05-29T11:53:23Z</time>
      </trkpt>
      <trkpt lat="43.76818" lon="6.32821">
        <ele>852</ele>
        <time>2018-05-29T11:53:39Z</time>
      </trkpt>
      <trkpt lat="43.7681" lon="6.32849">
        <ele>853</ele>
        <time>2018-05-29T11:53:54Z</time>
      </trkpt>
      <trkpt lat="43.76803" lon="6.32882">
        <ele>854</ele>
        <time>2018-05-29T11:54:10Z</time>
      </trkpt>
      <trkpt lat="43.76804" lon="6.32912">
        <ele>855</ele>
        <time>2018-05-29T11:54:22Z</time>
      </trkpt>
      <trkpt lat="43.76809" lon="6.32942">
        <ele>856</ele>
        <time>2018-05-29T11:54:35Z</time>
      </trkpt>
      <trkpt lat="43.76814" lon="6.3296">
        <ele>856</ele>
        <time>2018-05-29T11:54:43Z</time>
      </trkpt>
      <trkpt lat="43.76814" lon="6.32962">
        <ele>856</ele>
        <time>2018-05-29T11:54:44Z</time>
      </trkpt>
      <trkpt lat="43.76831" lon="6.32998">
        <ele>859</ele>
        <time>2018-05-29T11:55:02Z</time>
      </trkpt>
      <trkpt lat="43.7685" lon="6.33009">
        <ele>864</ele>
        <time>2018-05-29T11:55:13Z</time>
      </trkpt>
      <trkpt lat="43.76869" lon="6.33026">
        <ele>865</ele>
        <time>2018-05-29T11:55:25Z</time>
      </trkpt>
      <trkpt lat="43.7689" lon="6.33052">
        <ele>864</ele>
        <time>2018-05-29T11:55:39Z</time>
      </trkpt>
      <trkpt lat="43.76921" lon="6.33063">
        <ele>867</ele>
        <time>2018-05-29T11:55:54Z</time>
      </trkpt>
      <trkpt lat="43.76956" lon="6.33088">
        <ele>870</ele>
        <time>2018-05-29T11:56:10Z</time>
      </trkpt>
      <trkpt lat="43.76987" lon="6.33123">
        <ele>870</ele>
        <time>2018-05-29T11:56:26Z</time>
      </trkpt>
      <trkpt lat="43.77011" lon="6.33156">
        <ele>873</ele>
        <time>2018-05-29T11:56:43Z</time>
      </trkpt>
      <trkpt lat="43.77036" lon="6.33193">
        <ele>876</ele>
        <time>2018-05-29T11:57:01Z</time>
      </trkpt>
      <trkpt lat="43.77058" lon="6.33227">
        <ele>879</ele>
        <time>2018-05-29T11:57:16Z</time>
      </trkpt>
      <trkpt lat="43.77078" lon="6.33266">
        <ele>881</ele>
        <time>2018-05-29T11:57:31Z</time>
      </trkpt>
      <trkpt lat="43.77104" lon="6.33303">
        <ele>884</ele>
        <time>2018-05-29T11:57:47Z</time>
      </trkpt>
      <trkpt lat="43.77126" lon="6.33349">
        <ele>885</ele>
        <time>2018-05-29T11:58:03Z</time>
      </trkpt>
      <trkpt lat="43.7714" lon="6.33406">
        <ele>884</ele>
        <time>2018-05-29T11:58:20Z</time>
      </trkpt>
      <trkpt lat="43.77154" lon="6.33451">
        <ele>889</ele>
        <time>2018-05-29T11:58:38Z</time>
      </trkpt>
      <trkpt lat="43.77185" lon="6.33467">
        <ele>891</ele>
        <time>2018-05-29T11:58:54Z</time>
      </trkpt>
      <trkpt lat="43.77209" lon="6.33498">
        <ele>893</ele>
        <time>2018-05-29T11:59:09Z</time>
      </trkpt>
      <trkpt lat="43.77224" lon="6.33551">
        <ele>892</ele>
        <time>2018-05-29T11:59:28Z</time>
      </trkpt>
      <trkpt lat="43.77237" lon="6.33594">
        <ele>893</ele>
        <time>2018-05-29T11:59:44Z</time>
      </trkpt>
      <trkpt lat="43.77262" lon="6.33609">
        <ele>897</ele>
        <time>2018-05-29T11:59:58Z</time>
      </trkpt>
      <trkpt lat="43.77286" lon="6.33594">
        <ele>901</ele>
        <time>2018-05-29T12:00:12Z</time>
      </trkpt>
      <trkpt lat="43.77315" lon="6.33593">
        <ele>904</ele>
        <time>2018-05-29T12:00:27Z</time>
      </trkpt>
      <trkpt lat="43.77339" lon="6.33633">
        <ele>907</ele>
        <time>2018-05-29T12:00:47Z</time>
      </trkpt>
      <trkpt lat="43.77363" lon="6.33667">
        <ele>907</ele>
        <time>2018-05-29T12:01:06Z</time>
      </trkpt>
      <trkpt lat="43.77393" lon="6.33683">
        <ele>910</ele>
        <time>2018-05-29T12:01:23Z</time>
      </trkpt>
      <trkpt lat="43.77424" lon="6.33697">
        <ele>912</ele>
        <time>2018-05-29T12:01:40Z</time>
      </trkpt>
      <trkpt lat="43.77454" lon="6.33712">
        <ele>914</ele>
        <time>2018-05-29T12:01:56Z</time>
      </trkpt>
      <trkpt lat="43.77484" lon="6.33727">
        <ele>918</ele>
        <time>2018-05-29T12:02:12Z</time>
      </trkpt>
      <trkpt lat="43.77497" lon="6.33763">
        <ele>922</ele>
        <time>2018-05-29T12:02:25Z</time>
      </trkpt>
      <trkpt lat="43.77481" lon="6.33799">
        <ele>921</ele>
        <time>2018-05-29T12:02:39Z</time>
      </trkpt>
      <trkpt lat="43.77461" lon="6.33837">
        <ele>921</ele>
        <time>2018-05-29T12:02:55Z</time>
      </trkpt>
      <trkpt lat="43.7745" lon="6.3388">
        <ele>921</ele>
        <time>2018-05-29T12:03:10Z</time>
      </trkpt>
      <trkpt lat="43.77449" lon="6.3393">
        <ele>924</ele>
        <time>2018-05-29T12:03:26Z</time>
      </trkpt>
      <trkpt lat="43.7746" lon="6.3399">
        <ele>926</ele>
        <time>2018-05-29T12:03:43Z</time>
      </trkpt>
      <trkpt lat="43.7748" lon="6.34042">
        <ele>927</ele>
        <time>2018-05-29T12:03:57Z</time>
      </trkpt>
      <trkpt lat="43.77513" lon="6.34093">
        <ele>926</ele>
        <time>2018-05-29T12:04:13Z</time>
      </trkpt>
      <trkpt lat="43.77528" lon="6.3411">
        <ele>928</ele>
        <time>2018-05-29T12:04:20Z</time>
      </trkpt>
      <trkpt lat="43.77531" lon="6.3411">
        <ele>928</ele>
        <time>2018-05-29T12:04:21Z</time>
      </trkpt>
      <trkpt lat="43.77534" lon="6.34109">
        <ele>928</ele>
        <time>2018-05-29T12:04:22Z</time>
      </trkpt>
      <trkpt lat="43.77537" lon="6.34108">
        <ele>927</ele>
        <time>2018-05-29T12:04:23Z</time>
      </trkpt>
      <trkpt lat="43.77539" lon="6.34105">
        <ele>927</ele>
        <time>2018-05-29T12:04:24Z</time>
      </trkpt>
      <trkpt lat="43.77541" lon="6.34103">
        <ele>927</ele>
        <time>2018-05-29T12:04:25Z</time>
      </trkpt>
      <trkpt lat="43.77543" lon="6.341">
        <ele>927</ele>
        <time>2018-05-29T12:04:26Z</time>
      </trkpt>
      <trkpt lat="43.77543" lon="6.34096">
        <ele>927</ele>
        <time>2018-05-29T12:04:27Z</time>
      </trkpt>
      <trkpt lat="43.77544" lon="6.34093">
        <ele>927</ele>
        <time>2018-05-29T12:04:28Z</time>
      </trkpt>
      <trkpt lat="43.77543" lon="6.3409">
        <ele>927</ele>
        <time>2018-05-29T12:04:29Z</time>
      </trkpt>
      <trkpt lat="43.77541" lon="6.34089">
        <ele>927</ele>
        <time>2018-05-29T12:04:30Z</time>
      </trkpt>
      <trkpt lat="43.7754" lon="6.34091">
        <ele>927</ele>
        <time>2018-05-29T12:04:31Z</time>
      </trkpt>
      <trkpt lat="43.77539" lon="6.34096">
        <ele>927</ele>
        <time>2018-05-29T12:04:32Z</time>
      </trkpt>
      <trkpt lat="43.77539" lon="6.34098">
        <ele>927</ele>
        <time>2018-05-29T12:04:33Z</time>
      </trkpt>
      <trkpt lat="43.77541" lon="6.341">
        <ele>927</ele>
        <time>2018-05-29T12:04:34Z</time>
      </trkpt>
      <trkpt lat="43.77542" lon="6.34102">
        <ele>927</ele>
        <time>2018-05-29T12:04:35Z</time>
      </trkpt>
      <trkpt lat="43.77543" lon="6.34102">
        <ele>927</ele>
        <time>2018-05-29T12:04:36Z</time>
      </trkpt>
      <trkpt lat="43.77545" lon="6.34103">
        <ele>927</ele>
        <time>2018-05-29T12:04:37Z</time>
      </trkpt>
      <trkpt lat="43.77547" lon="6.34105">
        <ele>926</ele>
        <time>2018-05-29T12:04:38Z</time>
      </trkpt>
      <trkpt lat="43.77551" lon="6.34105">
        <ele>926</ele>
        <time>2018-05-29T12:04:39Z</time>
      </trkpt>
      <trkpt lat="43.77554" lon="6.34105">
        <ele>926</ele>
        <time>2018-05-29T12:04:40Z</time>
      </trkpt>
      <trkpt lat="43.77561" lon="6.34105">
        <ele>925</ele>
        <time>2018-05-29T12:04:43Z</time>
      </trkpt>
      <trkpt lat="43.77563" lon="6.34107">
        <ele>925</ele>
        <time>2018-05-29T12:04:44Z</time>
      </trkpt>
      <trkpt lat="43.77565" lon="6.3411">
        <ele>925</ele>
        <time>2018-05-29T12:04:45Z</time>
      </trkpt>
      <trkpt lat="43.7757" lon="6.34119">
        <ele>925</ele>
        <time>2018-05-29T12:04:47Z</time>
      </trkpt>
      <trkpt lat="43.77583" lon="6.34137">
        <ele>923</ele>
        <time>2018-05-29T12:04:50Z</time>
      </trkpt>
      <trkpt lat="43.77598" lon="6.3415">
        <ele>921</ele>
        <time>2018-05-29T12:04:52Z</time>
      </trkpt>
      <trkpt lat="43.77605" lon="6.34154">
        <ele>920</ele>
        <time>2018-05-29T12:04:53Z</time>
      </trkpt>
      <trkpt lat="43.77616" lon="6.34156">
        <ele>918</ele>
        <time>2018-05-29T12:04:54Z</time>
      </trkpt>
      <trkpt lat="43.77725" lon="6.34166">
        <ele>917</ele>
        <time>2018-05-29T12:05:07Z</time>
      </trkpt>
      <trkpt lat="43.77812" lon="6.34172">
        <ele>918</ele>
        <time>2018-05-29T12:05:22Z</time>
      </trkpt>
      <trkpt lat="43.77875" lon="6.34173">
        <ele>919</ele>
        <time>2018-05-29T12:05:37Z</time>
      </trkpt>
      <trkpt lat="43.77882" lon="6.34177">
        <ele>918</ele>
        <time>2018-05-29T12:05:48Z</time>
      </trkpt>
      <trkpt lat="43.77891" lon="6.34182">
        <ele>918</ele>
        <time>2018-05-29T12:06:12Z</time>
      </trkpt>
      <trkpt lat="43.77897" lon="6.34184">
        <ele>919</ele>
        <time>2018-05-29T12:06:22Z</time>
      </trkpt>
      <trkpt lat="43.77899" lon="6.34184">
        <ele>919</ele>
        <time>2018-05-29T12:07:09Z</time>
      </trkpt>
      <trkpt lat="43.77892" lon="6.34173">
        <ele>919</ele>
        <time>2018-05-29T12:24:40Z</time>
      </trkpt>
      <trkpt lat="43.77888" lon="6.34169">
        <ele>919</ele>
        <time>2018-05-29T12:24:47Z</time>
      </trkpt>
      <trkpt lat="43.77887" lon="6.34167">
        <ele>919</ele>
        <time>2018-05-29T12:24:48Z</time>
      </trkpt>
      <trkpt lat="43.77887" lon="6.34165">
        <ele>919</ele>
        <time>2018-05-29T12:24:49Z</time>
      </trkpt>
      <trkpt lat="43.77887" lon="6.34163">
        <ele>919</ele>
        <time>2018-05-29T12:24:50Z</time>
      </trkpt>
      <trkpt lat="43.77887" lon="6.34161">
        <ele>920</ele>
        <time>2018-05-29T12:24:51Z</time>
      </trkpt>
      <trkpt lat="43.77888" lon="6.3416">
        <ele>920</ele>
        <time>2018-05-29T12:24:52Z</time>
      </trkpt>
      <trkpt lat="43.77888" lon="6.34158">
        <ele>920</ele>
        <time>2018-05-29T12:24:53Z</time>
      </trkpt>
      <trkpt lat="43.77889" lon="6.34147">
        <ele>920</ele>
        <time>2018-05-29T12:24:57Z</time>
      </trkpt>
      <trkpt lat="43.77889" lon="6.34145">
        <ele>921</ele>
        <time>2018-05-29T12:24:58Z</time>
      </trkpt>
      <trkpt lat="43.77889" lon="6.34142">
        <ele>921</ele>
        <time>2018-05-29T12:24:59Z</time>
      </trkpt>
      <trkpt lat="43.77894" lon="6.34109">
        <ele>923</ele>
        <time>2018-05-29T12:25:11Z</time>
      </trkpt>
      <trkpt lat="43.77907" lon="6.34073">
        <ele>926</ele>
        <time>2018-05-29T12:25:27Z</time>
      </trkpt>
      <trkpt lat="43.77925" lon="6.34044">
        <ele>928</ele>
        <time>2018-05-29T12:25:43Z</time>
      </trkpt>
      <trkpt lat="43.77947" lon="6.3403">
        <ele>930</ele>
        <time>2018-05-29T12:25:58Z</time>
      </trkpt>
      <trkpt lat="43.77969" lon="6.3402">
        <ele>931</ele>
        <time>2018-05-29T12:26:14Z</time>
      </trkpt>
      <trkpt lat="43.77972" lon="6.34018">
        <ele>931</ele>
        <time>2018-05-29T12:26:21Z</time>
      </trkpt>
      <trkpt lat="43.77972" lon="6.34017">
        <ele>931</ele>
        <time>2018-05-29T12:26:22Z</time>
      </trkpt>
      <trkpt lat="43.77971" lon="6.34018">
        <ele>931</ele>
        <time>2018-05-29T12:26:24Z</time>
      </trkpt>
      <trkpt lat="43.77971" lon="6.34019">
        <ele>931</ele>
        <time>2018-05-29T12:26:25Z</time>
      </trkpt>
      <trkpt lat="43.77973" lon="6.3402">
        <ele>931</ele>
        <time>2018-05-29T12:26:26Z</time>
      </trkpt>
      <trkpt lat="43.77976" lon="6.34021">
        <ele>932</ele>
        <time>2018-05-29T12:26:29Z</time>
      </trkpt>
      <trkpt lat="43.77977" lon="6.34023">
        <ele>932</ele>
        <time>2018-05-29T12:26:30Z</time>
      </trkpt>
      <trkpt lat="43.77978" lon="6.34026">
        <ele>932</ele>
        <time>2018-05-29T12:26:31Z</time>
      </trkpt>
      <trkpt lat="43.77978" lon="6.34028">
        <ele>932</ele>
        <time>2018-05-29T12:26:32Z</time>
      </trkpt>
      <trkpt lat="43.77978" lon="6.34031">
        <ele>931</ele>
        <time>2018-05-29T12:26:33Z</time>
      </trkpt>
      <trkpt lat="43.77979" lon="6.34034">
        <ele>931</ele>
        <time>2018-05-29T12:26:34Z</time>
      </trkpt>
      <trkpt lat="43.77978" lon="6.34037">
        <ele>931</ele>
        <time>2018-05-29T12:26:35Z</time>
      </trkpt>
      <trkpt lat="43.77978" lon="6.3404">
        <ele>931</ele>
        <time>2018-05-29T12:26:36Z</time>
      </trkpt>
      <trkpt lat="43.77978" lon="6.34043">
        <ele>931</ele>
        <time>2018-05-29T12:26:37Z</time>
      </trkpt>
      <trkpt lat="43.77978" lon="6.34047">
        <ele>931</ele>
        <time>2018-05-29T12:26:38Z</time>
      </trkpt>
      <trkpt lat="43.77979" lon="6.34057">
        <ele>931</ele>
        <time>2018-05-29T12:26:41Z</time>
      </trkpt>
      <trkpt lat="43.77979" lon="6.3406">
        <ele>931</ele>
        <time>2018-05-29T12:26:42Z</time>
      </trkpt>
      <trkpt lat="43.77979" lon="6.34063">
        <ele>931</ele>
        <time>2018-05-29T12:26:43Z</time>
      </trkpt>
      <trkpt lat="43.77979" lon="6.34082">
        <ele>931</ele>
        <time>2018-05-29T12:26:49Z</time>
      </trkpt>
      <trkpt lat="43.77978" lon="6.34083">
        <ele>931</ele>
        <time>2018-05-29T12:26:50Z</time>
      </trkpt>
      <trkpt lat="43.77977" lon="6.34084">
        <ele>931</ele>
        <time>2018-05-29T12:26:51Z</time>
      </trkpt>
      <trkpt lat="43.77976" lon="6.34085">
        <ele>930</ele>
        <time>2018-05-29T12:26:52Z</time>
      </trkpt>
      <trkpt lat="43.77974" lon="6.34086">
        <ele>930</ele>
        <time>2018-05-29T12:26:53Z</time>
      </trkpt>
      <trkpt lat="43.77971" lon="6.34092">
        <ele>930</ele>
        <time>2018-05-29T12:26:58Z</time>
      </trkpt>
      <trkpt lat="43.77972" lon="6.34093">
        <ele>930</ele>
        <time>2018-05-29T12:26:59Z</time>
      </trkpt>
      <trkpt lat="43.77974" lon="6.34093">
        <ele>930</ele>
        <time>2018-05-29T12:27:01Z</time>
      </trkpt>
      <trkpt lat="43.77975" lon="6.34093">
        <ele>930</ele>
        <time>2018-05-29T12:27:02Z</time>
      </trkpt>
      <trkpt lat="43.77976" lon="6.34092">
        <ele>930</ele>
        <time>2018-05-29T12:27:03Z</time>
      </trkpt>
      <trkpt lat="43.77975" lon="6.34095">
        <ele>930</ele>
        <time>2018-05-29T12:27:11Z</time>
      </trkpt>
      <trkpt lat="43.77975" lon="6.34097">
        <ele>930</ele>
        <time>2018-05-29T12:27:12Z</time>
      </trkpt>
      <trkpt lat="43.77975" lon="6.34099">
        <ele>930</ele>
        <time>2018-05-29T12:27:13Z</time>
      </trkpt>
      <trkpt lat="43.77976" lon="6.34101">
        <ele>930</ele>
        <time>2018-05-29T12:27:14Z</time>
      </trkpt>
      <trkpt lat="43.77976" lon="6.34107">
        <ele>930</ele>
        <time>2018-05-29T12:27:19Z</time>
      </trkpt>
      <trkpt lat="43.77978" lon="6.34128">
        <ele>930</ele>
        <time>2018-05-29T12:27:33Z</time>
      </trkpt>
      <trkpt lat="43.77979" lon="6.3413">
        <ele>930</ele>
        <time>2018-05-29T12:27:34Z</time>
      </trkpt>
      <trkpt lat="43.77988" lon="6.34157">
        <ele>927</ele>
        <time>2018-05-29T12:27:46Z</time>
      </trkpt>
      <trkpt lat="43.77988" lon="6.34163">
        <ele>927</ele>
        <time>2018-05-29T12:27:48Z</time>
      </trkpt>
      <trkpt lat="43.77988" lon="6.34165">
        <ele>926</ele>
        <time>2018-05-29T12:27:49Z</time>
      </trkpt>
      <trkpt lat="43.77988" lon="6.34168">
        <ele>926</ele>
        <time>2018-05-29T12:27:50Z</time>
      </trkpt>
      <trkpt lat="43.77993" lon="6.34192">
        <ele>924</ele>
        <time>2018-05-29T12:28:01Z</time>
      </trkpt>
      <trkpt lat="43.77994" lon="6.34193">
        <ele>924</ele>
        <time>2018-05-29T12:28:02Z</time>
      </trkpt>
      <trkpt lat="43.77996" lon="6.34192">
        <ele>924</ele>
        <time>2018-05-29T12:28:03Z</time>
      </trkpt>
      <trkpt lat="43.78002" lon="6.34194">
        <ele>925</ele>
        <time>2018-05-29T12:28:09Z</time>
      </trkpt>
      <trkpt lat="43.78002" lon="6.34196">
        <ele>924</ele>
        <time>2018-05-29T12:28:10Z</time>
      </trkpt>
      <trkpt lat="43.78006" lon="6.34223">
        <ele>923</ele>
        <time>2018-05-29T12:28:20Z</time>
      </trkpt>
      <trkpt lat="43.78005" lon="6.34224">
        <ele>923</ele>
        <time>2018-05-29T12:28:21Z</time>
      </trkpt>
      <trkpt lat="43.78003" lon="6.34225">
        <ele>923</ele>
        <time>2018-05-29T12:28:22Z</time>
      </trkpt>
      <trkpt lat="43.78002" lon="6.34226">
        <ele>923</ele>
        <time>2018-05-29T12:28:23Z</time>
      </trkpt>
      <trkpt lat="43.78001" lon="6.34226">
        <ele>923</ele>
        <time>2018-05-29T12:28:24Z</time>
      </trkpt>
      <trkpt lat="43.77999" lon="6.34226">
        <ele>923</ele>
        <time>2018-05-29T12:28:25Z</time>
      </trkpt>
      <trkpt lat="43.77998" lon="6.34226">
        <ele>923</ele>
        <time>2018-05-29T12:28:26Z</time>
      </trkpt>
      <trkpt lat="43.77996" lon="6.34227">
        <ele>923</ele>
        <time>2018-05-29T12:28:38Z</time>
      </trkpt>
      <trkpt lat="43.77996" lon="6.34229">
        <ele>923</ele>
        <time>2018-05-29T12:29:04Z</time>
      </trkpt>
      <trkpt lat="43.77993" lon="6.3423">
        <ele>922</ele>
        <time>2018-05-29T12:29:27Z</time>
      </trkpt>
      <trkpt lat="43.77993" lon="6.34233">
        <ele>922</ele>
        <time>2018-05-29T12:29:28Z</time>
      </trkpt>
      <trkpt lat="43.77992" lon="6.34236">
        <ele>922</ele>
        <time>2018-05-29T12:29:29Z</time>
      </trkpt>
      <trkpt lat="43.77993" lon="6.34242">
        <ele>922</ele>
        <time>2018-05-29T12:29:31Z</time>
      </trkpt>
      <trkpt lat="43.77999" lon="6.34243">
        <ele>922</ele>
        <time>2018-05-29T12:29:36Z</time>
      </trkpt>
      <trkpt lat="43.78026" lon="6.34247">
        <ele>923</ele>
        <time>2018-05-29T12:29:50Z</time>
      </trkpt>
      <trkpt lat="43.78029" lon="6.34252">
        <ele>923</ele>
        <time>2018-05-29T12:29:51Z</time>
      </trkpt>
      <trkpt lat="43.78031" lon="6.3426">
        <ele>922</ele>
        <time>2018-05-29T12:29:52Z</time>
      </trkpt>
      <trkpt lat="43.78032" lon="6.34267">
        <ele>922</ele>
        <time>2018-05-29T12:29:53Z</time>
      </trkpt>
      <trkpt lat="43.78034" lon="6.34275">
        <ele>921</ele>
        <time>2018-05-29T12:29:54Z</time>
      </trkpt>
      <trkpt lat="43.78038" lon="6.34281">
        <ele>921</ele>
        <time>2018-05-29T12:29:55Z</time>
      </trkpt>
      <trkpt lat="43.78042" lon="6.34283">
        <ele>921</ele>
        <time>2018-05-29T12:29:56Z</time>
      </trkpt>
      <trkpt lat="43.78046" lon="6.34283">
        <ele>921</ele>
        <time>2018-05-29T12:29:57Z</time>
      </trkpt>
      <trkpt lat="43.78048" lon="6.34285">
        <ele>921</ele>
        <time>2018-05-29T12:29:58Z</time>
      </trkpt>
      <trkpt lat="43.7805" lon="6.34286">
        <ele>921</ele>
        <time>2018-05-29T12:29:59Z</time>
      </trkpt>
      <trkpt lat="43.78051" lon="6.34288">
        <ele>921</ele>
        <time>2018-05-29T12:30:00Z</time>
      </trkpt>
      <trkpt lat="43.78051" lon="6.3429">
        <ele>921</ele>
        <time>2018-05-29T12:30:01Z</time>
      </trkpt>
      <trkpt lat="43.78052" lon="6.34292">
        <ele>920</ele>
        <time>2018-05-29T12:30:02Z</time>
      </trkpt>
      <trkpt lat="43.78053" lon="6.34295">
        <ele>920</ele>
        <time>2018-05-29T12:30:03Z</time>
      </trkpt>
      <trkpt lat="43.78056" lon="6.34297">
        <ele>920</ele>
        <time>2018-05-29T12:30:04Z</time>
      </trkpt>
      <trkpt lat="43.78058" lon="6.34299">
        <ele>920</ele>
        <time>2018-05-29T12:30:05Z</time>
      </trkpt>
      <trkpt lat="43.78061" lon="6.343">
        <ele>920</ele>
        <time>2018-05-29T12:30:06Z</time>
      </trkpt>
      <trkpt lat="43.78064" lon="6.34302">
        <ele>920</ele>
        <time>2018-05-29T12:30:07Z</time>
      </trkpt>
      <trkpt lat="43.78066" lon="6.34304">
        <ele>920</ele>
        <time>2018-05-29T12:30:08Z</time>
      </trkpt>
      <trkpt lat="43.78067" lon="6.34307">
        <ele>920</ele>
        <time>2018-05-29T12:30:09Z</time>
      </trkpt>
      <trkpt lat="43.78067" lon="6.34309">
        <ele>920</ele>
        <time>2018-05-29T12:30:10Z</time>
      </trkpt>
      <trkpt lat="43.78068" lon="6.34312">
        <ele>920</ele>
        <time>2018-05-29T12:30:11Z</time>
      </trkpt>
      <trkpt lat="43.78069" lon="6.34314">
        <ele>920</ele>
        <time>2018-05-29T12:30:12Z</time>
      </trkpt>
      <trkpt lat="43.78072" lon="6.34316">
        <ele>919</ele>
        <time>2018-05-29T12:30:13Z</time>
      </trkpt>
      <trkpt lat="43.78075" lon="6.34317">
        <ele>919</ele>
        <time>2018-05-29T12:30:14Z</time>
      </trkpt>
      <trkpt lat="43.78078" lon="6.34317">
        <ele>919</ele>
        <time>2018-05-29T12:30:15Z</time>
      </trkpt>
      <trkpt lat="43.78083" lon="6.34311">
        <ele>919</ele>
        <time>2018-05-29T12:30:24Z</time>
      </trkpt>
      <trkpt lat="43.78084" lon="6.3431">
        <ele>919</ele>
        <time>2018-05-29T12:30:56Z</time>
      </trkpt>
    </trkseg>
  </trk>
</gpx>